GFSGBSN_con_mlcape_000.txt.gz
CAPE
15 10 2 9 3 2 3 5 1 1 40 20 48 39 55 23 3 1 7 4 7 5 0 6 7 0 16 5 0 0 0 0 0 4 9 3 0 0 0 0 0 0 0 0 0 0 0
6 9 4 10 13 12 6 16 11 0 0 73 40 35 28 42 18 0 1 0 7 2 15 0 14 8 0 0 0 0 0 0 0 9 5 8 0 0 0 0 0 0 0 0 0 0 0
8 4 5 10 5 2 7 20 22 6 2 18 52 32 40 43 25 6 0 2 0 0 2 1 13 0 0 0 0 0 0 0 0 0 0 0 9 0 7 0 0 0 0 0 0 0 0
7 4 5 3 1 6 8 18 12 13 4 2 11 46 3 55 37 13 1 6 16 22 20 10 21 1 0 0 0 0 0 0 0 0 0 0 0 0 0 0 0 1 0 0 0 0 0
6 6 6 3 3 9 9 5 8 19 6 5 7 8 39 12 68 23 3 7 10 0 11 16 0 0 0 0 0 0 0 0 0 0 0 0 0 0 0 0 0 0 0 0 0 0 0
16 5 5 4 4 11 6 9 19 15 11 5 7 0 4 15 81 26 0 6 10 15 7 0 0 0 0 0 0 0 0 0 0 0 0 0 0 0 3 0 0 0 0 0 0 0 0
10 8 12 12 6 4 4 7 15 43 17 12 13 12 0 4 50 19 3 0 1 3 13 0 0 0 0 0 0 0 0 0 0 0 0 0 0 0 0 0 0 0 0 0 0 0 0
12 31 24 18 4 1 0 3 27 38 34 16 29 12 6 2 70 11 0 0 0 0 0 0 0 0 0 0 0 0 0 0 0 0 0 0 0 0 0 1 4 5 1 0 0 0 0
31 40 33 24 36 27 18 15 31 31 22 33 29 21 8 0 49 4 0 0 0 0 0 0 0 0 0 0 0 0 0 0 0 0 0 0 0 0 0 0 1 0 0 0 0 0 0
31 25 34 37 28 27 29 29 46 36 43 33 31 6 15 1 19 1 1 0 0 0 0 0 0 0 0 0 0 0 0 0 0 0 0 0 0 0 0 0 0 0 0 0 0 0 0
16 17 21 32 20 35 25 57 54 60 73 50 29 10 15 3 5 2 0 0 0 0 0 0 0 0 0 0 0 0 0 6 0 0 0 0 0 0 0 0 0 0 0 0 1 0 1
19 24 18 31 38 52 46 76 52 100 36 5 36 30 43 1 3 0 0 0 0 0 0 0 0 10 5 0 14 0 1 5 2 1 0 0 0 0 0 0 0 0 1 0 0 3 1
34 28 31 44 63 97 75 39 29 38 27 79 84 63 45 5 1 0 1 6 0 0 0 0 1 3 3 3 4 2 1 3 1 3 0 3 0 0 0 0 0 0 1 0 0 0 0
34 33 40 50 69 57 41 17 16 14 24 12 11 56 14 1 30 0 1 0 0 0 0 0 0 1 1 0 1 3 5 5 4 2 0 0 0 0 0 0 0 0 0 0 0 0 0
40 37 47 44 47 43 13 15 7 42 33 13 33 58 19 1 17 0 1 0 0 0 0 0 0 2 3 0 0 3 4 3 0 3 2 0 0 0 0 0 0 0 0 0 0 0 0
33 32 38 46 36 36 15 30 20 48 32 14 26 5 0 6 24 14 0 0 0 0 0 0 0 0 0 1 0 3 0 0 4 0 2 1 2 0 0 0 0 0 0 0 0 0 0
26 46 41 36 37 28 24 24 26 26 31 26 9 7 4 7 36 7 0 0 0 0 0 0 0 0 0 0 0 1 0 0 0 0 0 0 0 0 3 0 0 0 0 0 0 0 0
39 39 47 37 45 24 25 23 28 30 20 14 1 0 21 40 4 2 0 0 0 0 0 3 0 0 0 0 0 0 0 0 0 0 0 1 1 0 0 0 0 0 0 0 0 0 0
44 39 29 57 49 46 25 16 15 35 40 25 4 42 53 22 0 0 0 0 0 0 0 0 0 0 1 0 0 0 0 0 0 0 0 0 0 0 0 0 0 1 0 0 0 1 0
45 37 31 51 55 45 18 16 16 34 2 4 2 5 11 16 4 0 0 0 0 0 0 5 4 0 0 2 0 0 0 0 0 0 0 0 0 0 0 0 0 0 1 0 1 0 0
48 29 34 31 47 32 16 13 6 34 0 9 3 1 0 0 1 0 1 0 0 0 0 1 5 3 2 0 0 0 0 0 0 0 6 2 0 1 0 0 0 0 0 1 0 0 0
42 17 33 36 32 23 15 7 14 21 8 0 7 0 0 0 0 0 0 0 0 0 8 1 0 0 1 2 0 0 0 0 3 0 1 2 0 0 0 1 0 0 1 1 1 0 0
30 31 21 24 22 8 16 3 9 26 22 2 0 0 2 3 2 0 0 0 0 2 0 0 0 3 3 0 5 1 0 0 0 1 2 1 0 0 0 0 1 0 0 2 0 0 0
28 36 12 22 17 7 13 10 11 25 32 5 1 2 23 1 2 0 0 0 0 4 1 2 0 6 3 9 6 3 0 0 0 0 0 0 0 1 0 0 0 0 0 0 0 0 0
25 28 20 16 13 9 13 9 11 24 26 5 1 2 17 0 6 0 0 0 0 2 1 2 0 0 12 18 2 5 0 0 0 0 0 0 0 0 0 0 0 0 1 0 0 0 0
27 28 32 23 17 15 11 8 3 21 16 2 0 1 4 0 0 0 1 8 2 1 1 5 1 0 7 5 3 2 0 0 0 0 0 0 0 0 0 0 0 0 0 0 0 0 0
14 23 31 16 11 12 8 16 1 7 8 5 0 2 2 2 0 1 0 0 1 1 0 0 0 1 4 2 1 0 0 0 0 0 0 1 0 0 0 0 0 0 0 0 0 0 0
21 10 18 18 14 10 3 13 7 7 12 14 0 2 1 2 3 0 0 1 0 0 0 0 0 1 1 1 1 0 0 0 0 0 0 0 0 0 0 0 0 0 0 0 0 0 0
25 19 16 28 13 15 4 14 6 8 23 17 1 0 1 2 0 0 0 0 0 0 0 0 0 1 3 15 0 1 1 0 0 0 0 0 0 0 0 0 0 0 0 0 0 0 0

GFSGBSN_con_mlcape_003.txt.gz
CAPE
9 8 7 8 7 7 6 3 7 5 8 11 6 24 58 59 57 13 0 0 2 0 1 0 0 0 4 10 4 0 0 0 0 7 1 1 0 0 0 0 0 0 0 0 0 0 0
11 10 12 11 8 7 8 6 3 6 5 9 4 12 22 18 5 27 1 0 0 0 9 0 0 0 0 0 0 0 0 0 0 7 1 0 0 0 0 0 0 0 0 0 0 0 0
11 12 10 10 8 5 8 13 8 3 7 9 4 17 5 18 14 38 3 0 0 0 5 3 0 0 0 0 0 0 0 0 0 0 5 6 4 0 0 0 0 0 0 0 0 0 0
9 13 5 6 4 10 8 8 6 6 8 13 12 5 10 2 19 40 11 3 0 16 17 5 6 0 0 0 0 0 0 0 0 0 0 0 7 0 0 0 0 0 0 0 0 0 0
5 5 13 6 16 14 17 11 7 7 9 16 10 5 12 0 5 32 17 8 1 14 1 30 0 0 0 0 0 0 0 0 0 0 0 0 0 0 0 0 0 0 0 0 0 0 0
12 8 11 15 8 7 14 13 10 14 13 35 12 16 14 2 1 9 16 7 21 8 2 0 0 0 0 0 0 0 0 0 0 0 0 0 0 0 0 0 0 0 0 0 0 0 0
28 23 40 36 30 1 0 4 9 10 23 21 22 38 48 14 8 5 15 6 3 3 0 0 0 0 0 0 0 0 0 0 0 0 0 0 0 0 0 0 0 0 0 0 0 0 0
44 44 43 37 48 20 27 18 8 26 28 61 33 31 50 44 39 2 4 0 0 0 0 0 0 0 0 0 0 0 0 0 0 0 0 0 0 0 0 0 0 0 0 0 0 0 0
25 24 17 45 37 28 28 35 19 28 44 69 83 41 36 55 51 5 2 0 0 0 0 0 0 0 0 0 0 0 0 0 0 0 0 0 0 0 0 0 1 1 1 0 0 0 0
10 27 38 31 32 24 34 44 32 54 76 89 74 12 50 53 9 0 2 0 0 0 0 0 0 0 0 1 0 0 0 0 0 0 0 0 0 0 0 0 0 0 0 0 0 1 0
41 28 26 30 26 26 59 69 54 97 55 66 34 65 66 81 22 36 0 0 0 0 0 0 0 2 4 0 0 0 0 3 0 0 0 0 0 0 0 0 0 0 0 0 0 0 1
31 31 27 35 32 41 68 64 92 48 89 17 14 27 54 45 49 0 2 0 0 0 0 0 0 3 5 0 16 0 8 20 2 2 0 0 0 0 0 0 0 0 1 0 0 0 1
35 27 37 28 46 54 70 36 36 38 37 25 0 3 18 36 6 1 11 4 0 0 0 0 1 8 2 1 5 3 1 3 2 1 0 1 0 0 0 0 0 0 0 0 0 0 0
12 11 29 29 54 61 52 29 33 34 26 42 33 11 9 42 22 5 3 0 0 0 0 0 0 3 1 1 3 2 0 2 1 0 0 0 0 0 0 0 0 0 0 0 0 0 0
20 7 20 39 50 66 46 27 24 26 30 30 15 33 43 35 2 1 5 0 0 0 0 0 2 2 1 1 0 1 4 1 0 0 0 0 0 0 0 0 0 0 0 0 0 0 0
10 14 34 43 32 63 33 31 19 32 12 24 50 29 13 2 3 13 1 0 0 0 0 0 0 0 1 0 0 2 2 0 0 0 1 1 0 0 0 0 0 0 0 0 0 0 0
25 16 31 36 27 56 28 34 29 29 13 45 3 5 3 1 2 5 0 0 0 0 0 0 0 0 0 1 0 0 0 0 0 0 0 1 0 0 1 0 0 0 1 0 0 0 0
13 17 23 39 42 51 26 20 27 18 16 13 5 4 2 0 1 0 0 0 0 0 0 0 0 0 0 0 1 0 0 0 0 0 0 0 0 0 0 0 0 0 0 0 0 0 0
8 19 23 31 50 62 28 12 13 15 29 21 3 30 9 0 0 0 0 0 0 0 0 0 0 0 0 0 0 0 0 0 0 0 0 0 0 0 0 0 0 0 0 0 0 0 0
1 16 27 41 52 46 10 17 4 10 19 44 2 5 10 12 1 0 0 0 0 0 0 0 0 0 0 1 0 0 0 0 0 0 0 0 0 0 0 0 0 0 1 0 0 0 0
2 21 29 36 34 38 8 17 3 4 2 21 7 0 0 1 1 0 0 0 0 0 0 1 7 4 0 3 3 0 0 0 0 0 0 0 0 0 0 0 0 0 0 0 0 0 0
7 13 23 28 23 32 7 14 0 6 16 0 3 3 0 1 0 0 0 0 0 0 0 0 0 0 0 6 0 0 0 0 0 0 0 4 0 0 0 1 1 0 1 0 0 0 0
22 3 26 27 13 26 5 16 6 6 20 1 1 0 1 0 1 0 0 0 0 0 0 0 0 2 6 0 0 0 0 0 1 2 0 3 0 0 0 0 0 0 0 1 4 2 0
15 17 21 35 32 25 8 10 10 8 21 8 3 1 4 2 0 0 0 0 0 0 1 4 0 4 2 4 2 5 0 0 0 0 0 2 0 0 0 0 0 0 0 0 0 0 0
17 18 12 32 14 14 25 2 7 4 15 5 2 1 4 0 6 0 0 0 0 0 0 0 0 0 6 14 1 2 1 1 0 0 0 0 1 0 0 0 0 0 0 0 0 0 0
11 24 12 17 28 16 22 12 3 7 7 1 1 1 5 7 0 0 0 0 0 0 0 2 2 0 1 3 2 0 0 0 0 0 0 0 0 0 0 0 0 0 0 0 0 0 0
4 14 22 21 29 22 20 10 5 0 0 9 2 2 1 1 0 0 0 0 3 2 1 0 0 0 7 3 0 0 0 0 0 0 0 0 0 0 0 0 0 0 0 0 0 0 0
2 4 9 7 7 17 24 9 25 1 0 13 0 4 1 1 2 1 0 0 0 0 0 0 0 0 1 1 1 0 0 0 0 0 0 0 0 0 0 0 0 0 0 0 0 0 0
2 2 8 10 23 5 17 36 8 2 2 22 2 0 0 2 0 0 0 0 0 1 1 0 0 0 3 3 2 3 1 0 0 0 0 0 0 0 0 0 0 0 0 0 0 0 0

GFSGBSN_con_mlcape_006.txt.gz
CAPE
8 12 12 10 9 7 7 9 10 3 0 2 4 2 9 6 8 39 40 0 0 0 0 0 0 0 30 5 1 0 0 0 23 41 7 8 0 0 0 0 0 0 0 0 0 0 0
12 10 9 6 9 9 14 11 11 5 0 1 4 10 6 8 4 25 30 2 0 2 0 0 0 0 0 3 0 0 0 0 18 50 10 3 5 0 0 0 0 0 0 0 0 0 0
8 7 11 13 11 18 31 28 24 13 9 3 7 21 8 2 5 2 33 16 0 1 0 2 0 0 0 0 0 0 0 0 0 60 20 5 2 0 3 7 4 0 0 0 0 0 0
8 8 9 5 15 24 27 27 26 16 17 7 9 26 22 1 13 3 23 44 4 1 4 0 0 0 0 0 0 0 0 0 0 0 33 39 37 5 0 2 1 0 0 0 0 0 0
16 27 31 17 18 13 9 23 21 13 11 15 22 10 26 17 9 3 3 69 8 18 2 14 0 0 0 0 0 0 0 0 0 0 0 7 0 0 0 0 0 0 0 0 0 0 0
32 18 29 50 55 51 27 22 23 11 2 11 32 16 15 32 16 5 0 60 43 23 22 0 0 0 0 0 0 0 0 0 0 0 0 2 5 3 0 1 0 0 0 0 0 0 0
12 22 56 58 59 49 42 41 46 27 20 15 13 28 22 26 27 6 1 81 7 6 5 0 0 0 0 0 0 0 0 0 0 2 5 7 3 0 0 0 0 0 0 0 0 0 0
27 43 55 50 46 53 36 44 39 23 25 28 44 74 47 32 34 17 20 0 0 0 0 0 0 0 0 0 0 0 0 0 0 0 5 1 0 0 0 0 0 0 0 0 0 0 0
40 35 35 41 39 32 45 35 43 44 41 69 10 44 38 55 30 3 1 17 0 0 0 3 0 0 0 0 0 0 0 0 0 1 0 0 0 0 0 0 0 0 0 0 0 0 0
20 13 20 46 34 43 49 50 54 61 76 74 46 71 43 30 4 0 0 15 0 0 0 0 1 0 0 0 0 0 0 0 0 0 0 0 0 0 0 0 0 0 0 0 1 1 0
15 22 36 35 37 49 52 47 53 54 44 25 56 29 13 27 7 14 24 6 0 0 0 0 2 8 7 0 0 0 0 0 1 0 0 0 0 0 0 0 0 0 0 0 1 2 0
25 28 19 32 42 44 47 50 36 20 23 17 18 13 12 6 3 1 20 4 0 0 0 2 7 5 10 5 1 3 9 12 3 5 1 1 0 0 0 0 0 0 4 6 4 0 0
19 19 27 27 44 43 33 45 23 21 10 18 33 19 6 3 1 10 64 1 0 0 0 1 6 8 3 4 11 2 7 10 2 2 1 2 1 0 0 2 1 6 7 0 0 2 0
34 29 31 33 35 19 31 39 28 7 12 16 22 26 21 2 1 6 19 0 0 0 0 0 11 5 10 5 11 3 2 6 6 1 1 0 0 0 0 0 0 1 1 0 0 0 0
37 26 32 31 22 27 37 28 15 12 5 9 20 18 33 19 13 32 2 0 0 0 0 0 7 5 5 1 6 1 1 1 0 0 0 0 0 0 0 0 0 4 0 0 9 1 1
36 32 32 26 28 24 29 28 17 12 9 16 0 57 87 99 35 16 0 0 0 0 0 0 0 0 0 3 1 2 3 0 2 0 0 3 0 0 0 0 0 3 2 1 1 1 6
14 22 30 33 30 40 34 12 18 21 12 29 0 4 7 55 2 0 0 0 0 0 0 0 0 0 0 1 1 1 0 0 0 0 1 5 1 1 2 2 0 1 1 2 7 18 2
12 28 26 37 25 33 24 10 26 19 9 15 2 0 22 17 2 0 0 0 3 0 0 0 0 0 0 0 0 2 0 0 0 0 2 0 5 0 0 0 0 0 4 1 0 0 0
29 22 22 24 33 22 18 10 13 8 22 8 3 7 1 17 0 0 3 1 16 0 0 0 0 0 0 0 0 0 0 0 0 0 0 3 0 0 0 0 0 3 0 0 2 0 0
18 34 22 26 20 18 16 5 8 4 8 13 1 0 3 0 12 0 0 2 2 0 0 0 0 0 0 0 0 0 0 0 0 0 0 0 6 0 0 0 0 0 0 1 0 0 0
27 20 32 26 29 22 15 5 7 3 4 1 3 1 1 0 3 2 0 0 0 0 0 0 0 0 0 0 0 0 0 0 0 0 0 4 0 2 0 1 1 2 2 3 0 0 0
5 17 25 23 14 7 9 6 4 2 0 1 1 1 5 11 2 1 0 0 0 0 0 0 0 0 0 0 1 1 0 0 0 0 0 6 1 0 1 0 1 1 2 2 1 4 4
23 28 32 24 12 8 9 7 8 7 1 3 1 1 8 2 2 4 0 0 0 0 0 0 0 0 0 0 0 1 1 0 0 2 3 3 0 0 0 0 0 1 0 1 0 2 4
18 26 29 14 24 5 8 3 13 7 11 1 5 2 3 0 1 0 0 0 0 0 2 0 1 2 8 8 6 3 5 2 3 6 11 1 0 0 0 0 0 1 0 0 0 0 0
21 16 19 13 20 9 4 1 10 6 12 0 1 2 1 4 2 0 0 0 0 0 1 5 0 0 4 12 5 1 1 1 0 2 4 6 10 5 0 0 0 0 0 3 0 0 0
10 9 4 3 7 8 5 0 11 1 6 0 1 0 1 0 0 0 0 0 0 0 0 1 0 4 9 22 4 1 0 0 0 0 0 0 2 1 0 0 0 0 0 0 0 0 0
7 8 6 6 5 17 6 5 4 0 1 2 0 0 1 1 1 0 1 0 5 1 0 1 1 0 4 5 2 0 0 0 0 0 0 1 1 0 0 1 0 0 0 0 0 0 0
5 7 6 3 0 1 7 0 0 0 0 3 0 0 0 2 0 2 0 0 0 0 0 0 0 1 4 1 1 2 0 0 0 0 0 0 0 0 1 0 0 0 0 0 0 0 0
5 6 7 2 1 1 3 3 3 7 3 2 6 8 0 2 0 0 0 0 0 0 1 1 1 0 1 1 1 1 0 0 0 1 0 0 0 0 0 0 0 0 0 0 0 0 0

GFSGBSN_con_mlcape_009.txt.gz
CAPE
2 2 3 9 4 12 19 15 16 10 4 3 1 2 9 5 4 6 6 46 62 1 8 0 0 0 12 26 15 0 0 0 29 39 8 12 8 9 5 0 0 0 0 0 0 0 0
6 5 9 11 11 16 18 22 25 15 12 9 4 0 8 12 0 2 8 8 86 0 7 0 0 0 1 12 0 0 0 0 4 45 2 19 11 7 12 10 0 1 0 0 0 0 0
14 12 22 8 17 9 21 10 13 20 17 5 3 5 0 7 5 1 4 6 47 8 5 14 0 0 0 0 0 0 0 0 30 28 27 9 2 11 16 6 5 0 0 0 0 0 0
23 29 31 25 35 16 26 28 25 18 7 4 7 4 12 5 12 0 1 5 3 30 3 21 0 0 0 0 0 0 0 0 15 16 22 15 6 11 5 6 0 0 0 0 0 0 0
23 23 28 44 40 28 35 44 40 70 38 11 2 14 21 12 9 4 4 3 1 28 20 34 0 0 0 0 0 0 0 5 0 0 5 7 17 9 5 1 0 0 0 0 0 0 0
26 22 33 47 59 39 40 42 63 44 46 31 11 6 34 24 13 23 11 6 0 30 38 21 1 0 0 0 0 0 0 5 0 0 0 0 1 1 0 1 0 0 0 0 0 0 0
27 24 49 41 52 32 46 60 62 60 65 59 28 45 0 32 25 41 18 0 46 19 43 5 0 0 0 0 0 0 0 2 7 1 0 5 3 0 0 0 0 0 0 0 0 0 0
23 18 34 41 46 33 52 56 87 90 81 69 66 63 50 39 49 34 28 8 11 1 9 5 0 0 0 0 0 0 0 0 5 4 2 1 0 0 0 0 0 0 0 0 0 0 0
19 38 45 52 33 26 45 71 98 81 93 80 96 60 55 59 16 43 25 0 5 0 5 6 1 2 0 0 0 0 0 0 1 2 1 2 0 0 0 0 0 0 0 0 0 0 0
32 23 20 20 25 36 53 67 62 67 85 57 46 21 22 8 21 0 0 26 34 0 0 2 2 2 0 0 0 0 0 0 1 1 0 3 0 0 0 0 0 0 0 0 0 0 0
29 31 29 37 32 45 54 50 57 74 49 23 19 25 35 11 12 13 26 44 30 9 0 0 2 1 9 0 0 2 0 0 1 0 0 0 0 0 0 0 0 0 0 0 0 2 0
26 25 31 38 31 39 39 65 58 40 39 10 21 28 48 7 17 6 5 10 4 0 0 1 3 3 5 6 7 7 9 7 2 1 1 0 0 0 0 0 0 0 0 1 2 0 0
36 27 28 37 44 33 44 53 42 38 12 9 17 20 24 0 2 11 21 4 0 0 0 1 3 8 7 3 6 5 4 6 0 1 0 1 0 1 0 0 2 0 0 0 0 3 0
37 24 29 36 41 36 48 47 25 9 16 3 11 4 47 46 0 3 12 6 0 6 1 0 8 11 11 3 0 2 0 3 2 1 0 0 0 0 0 0 0 3 1 0 0 0 0
38 24 34 44 44 41 51 42 19 29 13 4 1 5 47 18 3 9 0 0 0 3 0 6 5 5 12 0 2 17 4 7 2 2 0 0 0 0 0 0 0 2 0 0 3 1 1
35 28 33 37 39 36 41 11 23 22 11 10 0 10 54 43 18 7 0 2 0 0 0 0 1 2 1 3 2 5 5 0 2 1 1 0 0 0 0 0 0 0 0 0 1 0 0
36 40 26 34 37 30 43 3 25 23 21 2 6 0 93 95 5 0 0 0 5 3 0 2 0 1 0 1 0 1 1 0 1 1 2 1 0 0 0 0 0 0 1 1 0 3 2
32 39 29 27 39 34 28 15 23 13 19 1 2 0 44 25 0 1 4 0 4 3 0 0 0 0 0 0 0 0 1 0 0 0 2 1 4 0 0 0 0 0 0 0 1 0 0
21 30 25 23 28 28 17 12 11 9 14 6 5 5 11 10 0 0 1 0 9 7 23 16 0 0 0 0 0 1 0 0 0 0 2 0 2 0 0 0 0 1 0 0 0 0 0
13 21 27 21 21 24 13 13 11 2 8 2 0 7 4 2 8 8 0 1 9 23 24 5 0 0 0 0 0 0 0 0 0 0 0 4 6 0 0 0 0 0 1 1 1 0 0
14 22 24 12 26 26 10 6 9 0 0 0 1 6 11 0 0 3 2 5 6 4 3 0 0 0 0 0 0 0 0 0 0 0 0 3 1 1 0 0 0 0 0 0 0 1 0
15 15 21 8 28 12 22 3 9 0 0 0 0 0 3 0 8 7 1 9 8 2 0 0 0 0 0 5 5 3 3 1 3 0 0 7 2 2 0 0 0 0 0 1 2 2 1
13 12 13 9 21 8 19 5 5 1 0 1 0 1 1 2 4 7 8 3 5 3 0 1 5 5 8 12 6 2 3 1 2 8 7 6 1 0 0 0 0 0 1 1 0 2 2
8 5 3 3 4 12 5 13 1 0 3 0 2 1 1 1 6 4 0 0 0 12 6 3 3 6 15 4 6 2 1 3 1 0 1 10 0 1 0 0 0 0 0 0 0 1 2
8 5 3 3 4 12 7 15 9 0 0 0 1 1 1 5 6 0 0 7 4 1 1 10 3 2 0 8 6 2 1 1 0 1 1 4 11 0 0 1 0 0 0 0 1 0 0
10 9 2 3 0 0 2 1 0 0 0 5 0 0 1 0 0 1 1 0 8 6 2 4 0 6 8 22 1 0 0 0 0 3 2 10 3 3 2 1 0 0 0 0 0 0 0
6 11 7 1 0 0 0 1 0 1 0 1 16 0 1 0 1 2 2 5 1 3 2 2 0 1 0 8 2 0 0 0 1 1 0 1 1 2 1 0 0 0 0 0 0 0 0
7 8 9 6 0 0 1 1 4 3 0 0 4 0 0 2 0 0 4 8 15 12 8 0 2 0 2 0 0 0 0 11 0 0 0 0 0 1 1 1 0 0 0 0 0 0 0
5 12 8 11 4 1 2 4 4 6 6 4 2 8 5 0 0 0 0 1 1 16 9 2 14 6 5 0 1 1 1 5 4 2 0 1 0 6 0 1 0 0 0 0 0 0 0

GFSGBSN_con_mlcape_012.txt.gz
CAPE
12 10 7 14 20 18 15 20 23 26 23 26 9 10 7 2 2 6 2 3 5 23 4 0 0 0 0 48 19 23 6 23 65 34 29 8 2 0 0 0 0 0 0 0 0 0 0
5 13 15 7 16 18 19 20 17 18 21 27 19 20 20 11 7 4 3 1 5 17 30 4 0 0 0 16 30 0 0 0 10 50 37 17 26 16 13 9 3 2 3 1 0 0 0
6 20 21 24 26 45 33 44 47 35 51 46 31 28 24 26 24 17 7 5 3 11 47 22 0 0 0 1 0 0 0 0 8 59 35 38 27 14 9 10 3 2 0 0 0 0 0
25 17 30 32 34 45 31 38 48 55 50 73 71 53 9 9 30 9 15 3 5 6 3 32 3 0 3 0 0 0 0 0 22 95 47 19 7 1 6 1 1 0 0 0 0 0 0
18 34 30 31 23 28 40 40 57 75 58 55 71 84 69 23 12 20 17 12 7 5 17 41 0 2 0 0 0 0 0 9 24 20 42 36 22 1 0 0 0 0 0 0 0 0 0
34 24 25 39 32 40 28 41 49 55 65 85 67 75 74 36 13 40 26 25 2 1 87 39 19 6 0 0 0 0 0 4 3 28 8 14 1 0 0 0 0 0 0 0 0 0 0
8 17 31 20 24 34 36 40 46 59 73 76 84 94 48 35 64 35 11 21 15 40 16 8 0 0 0 0 0 0 0 2 9 14 0 3 0 0 0 0 0 0 0 0 0 0 0
22 22 19 27 33 36 37 47 50 52 52 66 88 70 48 61 60 87 6 19 20 4 5 10 2 4 0 0 0 0 0 0 4 4 0 0 0 0 0 0 0 0 0 0 0 0 0
27 22 21 33 39 34 43 47 40 46 70 47 49 46 52 19 10 18 18 18 13 2 6 2 9 9 1 0 0 0 0 0 0 2 1 0 0 0 0 0 0 0 0 0 0 0 0
28 16 29 33 42 31 36 34 50 58 46 44 36 12 8 24 19 2 19 52 0 8 0 1 1 12 1 2 1 0 0 0 2 0 1 0 0 0 0 0 0 0 0 0 0 0 0
33 14 29 41 46 30 39 43 58 38 27 15 13 1 1 21 0 10 15 26 14 4 0 1 2 2 0 1 0 2 0 0 1 1 0 0 0 0 0 0 0 0 0 0 0 0 0
27 15 33 40 51 31 31 33 24 16 12 8 7 21 37 17 12 2 12 15 0 0 0 1 1 1 0 22 6 0 3 1 0 0 0 0 0 0 0 0 0 0 0 0 0 0 0
23 16 37 42 44 37 20 19 15 13 12 4 5 24 47 45 0 2 0 1 0 0 1 0 1 6 3 11 12 6 3 1 0 0 0 0 0 0 0 0 0 0 0 0 0 0 0
19 18 30 36 34 20 12 18 2 15 3 2 5 17 46 42 1 0 0 0 0 0 1 0 3 4 3 4 3 10 3 5 3 0 0 0 0 0 0 0 0 1 0 0 0 0 0
25 17 28 30 38 21 21 11 0 11 21 14 22 33 5 37 13 0 0 0 0 7 1 2 4 0 0 6 2 4 4 1 0 0 0 0 0 0 0 0 0 0 0 0 0 0 0
31 23 30 23 29 19 22 2 3 15 17 37 8 36 9 2 1 0 0 25 5 3 0 0 0 1 0 0 1 3 3 0 1 0 0 0 0 0 0 0 0 0 0 0 1 0 0
13 28 22 21 25 10 23 6 14 13 12 28 2 12 24 29 4 0 2 3 0 0 0 0 0 1 0 1 2 0 0 0 0 0 3 0 1 0 0 0 0 0 0 1 0 0 0
26 24 25 31 25 14 12 8 7 9 18 10 1 6 17 1 0 0 1 0 5 1 15 0 0 0 0 0 2 0 0 0 0 0 0 0 0 0 0 0 0 0 0 0 1 0 0
10 24 33 15 21 7 6 3 3 9 38 4 2 17 5 2 1 0 0 2 2 0 4 0 0 0 0 0 0 2 0 0 0 0 1 0 0 0 0 0 0 0 0 0 0 0 0
14 18 21 21 22 6 9 0 2 4 7 0 1 0 0 0 1 2 0 2 5 13 18 2 0 0 0 2 1 1 0 0 0 0 0 0 1 0 0 0 0 0 0 0 0 0 0
13 17 9 22 17 7 6 2 0 0 0 0 0 1 0 4 7 0 1 3 1 1 5 0 0 0 0 2 0 2 0 0 0 0 0 1 0 0 0 0 0 0 0 0 0 0 1
10 14 6 5 6 7 2 8 0 0 0 0 0 1 0 0 12 0 2 0 3 5 2 0 0 1 0 0 6 0 2 0 0 0 0 0 0 0 0 0 0 0 0 0 0 0 3
11 12 7 7 5 8 5 5 0 0 0 2 0 1 0 0 1 3 4 1 5 0 0 0 4 1 6 4 0 1 0 0 4 0 0 5 2 0 0 0 0 0 0 0 2 0 0
10 12 9 6 2 2 0 0 0 0 0 0 1 2 1 0 0 0 0 0 0 0 0 1 0 5 4 2 2 0 0 2 5 2 1 1 0 0 0 0 0 0 0 0 0 0 0
10 8 13 10 5 1 1 0 0 0 0 0 0 1 1 1 0 0 3 0 0 0 0 5 4 1 0 0 0 2 1 0 0 0 0 0 0 0 0 0 0 0 0 0 0 0 0
13 5 10 9 10 6 3 0 0 0 0 0 0 0 2 0 0 11 3 1 0 2 0 5 0 0 0 6 0 0 1 1 0 1 13 4 0 5 4 0 0 0 0 0 0 0 0
23 7 14 8 7 7 12 6 0 1 0 0 0 0 1 2 0 0 3 5 1 3 0 2 0 1 0 0 0 0 0 0 0 0 0 2 9 1 0 0 0 0 0 0 0 0 0
27 11 12 12 9 8 10 18 8 1 1 1 0 7 0 1 0 0 0 3 9 17 0 0 0 0 0 0 0 1 0 4 0 0 0 0 0 2 1 0 0 0 0 0 0 0 0
31 11 7 21 11 11 11 13 19 14 1 2 0 0 0 1 0 0 0 0 0 1 2 0 12 0 4 0 0 1 1 0 0 0 0 1 0 0 0 0 0 0 0 0 0 0 0

GFSGBSN_con_mlcape_015.txt.gz
CAPE
18 11 9 5 14 10 4 16 18 24 24 36 29 38 41 36 25 28 12 17 1 5 24 69 32 5 0 8 0 19 59 43 44 14 0 0 0 0 0 0 0 0 0 0 0 0 0
15 31 21 24 33 32 21 32 39 50 57 59 43 43 42 28 26 12 17 11 8 6 5 48 32 11 0 0 0 3 0 15 50 6 9 22 0 0 1 0 0 0 0 0 0 0 0
21 20 19 19 28 30 38 38 31 46 58 77 63 55 63 57 18 36 11 9 12 2 7 5 24 0 0 0 1 0 0 0 0 36 9 41 29 23 10 0 0 1 0 0 0 0 0
24 38 18 18 28 17 23 38 25 55 65 64 74 94 92 65 46 13 10 7 8 0 2 3 37 17 1 0 0 0 0 0 0 10 33 28 14 19 19 2 0 0 0 0 0 0 0
21 19 17 22 24 21 22 32 46 52 59 87 77 85 69 67 42 16 11 5 5 2 1 2 21 18 0 0 0 0 0 7 43 33 44 28 15 8 6 3 0 0 0 0 0 0 0
20 18 12 35 26 31 26 37 45 47 59 58 67 71 88 79 58 45 29 31 1 6 0 47 18 16 0 0 0 0 0 9 24 48 16 4 3 1 3 2 0 0 0 0 0 0 0
12 6 25 22 27 24 22 17 28 33 54 41 42 39 34 71 64 50 23 1 11 17 5 16 0 0 0 0 0 0 0 10 20 10 0 4 0 0 0 0 0 0 0 0 0 0 0
21 27 25 23 32 25 16 18 23 32 25 26 1 19 23 27 16 43 25 1 10 1 12 26 1 5 0 0 0 0 0 4 9 1 0 0 0 0 0 0 0 0 0 0 0 0 0
14 13 15 24 32 25 21 13 23 28 17 12 7 15 18 17 8 36 1 5 19 0 8 9 12 1 0 0 0 0 0 1 0 1 0 0 0 0 0 0 0 0 0 0 0 0 0
13 9 20 27 33 37 23 19 21 19 26 18 14 15 17 9 0 0 11 3 2 0 0 1 7 11 2 0 0 0 0 1 6 1 0 0 0 0 0 0 0 0 0 0 0 0 0
21 8 26 24 25 26 28 20 23 31 19 25 32 24 44 51 3 0 0 9 0 0 5 1 6 1 5 0 0 0 0 0 0 0 0 0 0 0 0 0 0 0 0 0 0 0 0
11 18 28 22 20 25 29 31 28 12 17 22 32 47 69 29 13 1 4 1 0 0 0 1 0 10 16 18 3 0 0 0 0 0 0 0 0 0 0 0 0 0 0 0 0 0 0
18 26 18 20 25 22 22 23 8 13 28 31 36 47 59 47 0 2 2 0 0 0 0 0 2 4 4 10 2 1 1 0 0 0 0 0 0 0 0 0 0 0 0 0 0 0 0
12 12 13 20 30 13 15 25 3 8 22 13 10 43 5 31 0 1 0 0 0 0 0 3 6 6 9 2 5 7 2 0 0 0 0 0 0 0 0 0 0 0 0 0 0 0 0
18 16 23 23 23 10 32 17 15 15 9 4 15 0 0 36 0 0 0 0 0 0 2 2 2 2 6 6 0 9 1 0 0 0 0 0 0 0 0 0 0 0 0 0 0 0 0
15 10 28 30 40 25 26 24 21 18 2 29 0 15 11 7 0 0 0 1 0 0 2 0 0 0 1 5 0 3 2 0 0 0 0 0 0 0 0 0 0 0 0 0 0 0 0
9 13 13 25 40 20 23 22 13 6 8 0 0 3 5 0 0 0 12 3 1 2 0 0 0 0 0 2 0 0 0 0 0 0 0 0 0 0 0 0 0 0 0 0 0 0 0
13 11 6 23 35 8 13 14 4 8 0 0 0 1 1 2 0 0 0 1 3 0 0 1 0 0 0 0 0 0 0 0 0 0 0 0 0 0 0 0 0 0 0 0 0 0 0
5 13 2 8 7 10 8 12 0 1 5 0 0 5 3 0 2 0 0 1 1 3 5 0 1 0 0 0 0 0 0 0 0 0 0 0 0 0 0 0 0 0 0 0 0 0 0
15 9 2 2 8 8 13 9 0 0 1 0 0 0 0 0 0 0 0 1 0 0 0 0 0 0 0 0 0 0 0 0 0 0 0 0 0 0 0 0 0 0 0 0 0 0 0
15 13 2 2 4 1 1 2 0 0 0 0 0 0 0 0 0 0 0 2 0 0 0 0 0 0 0 0 0 0 0 0 0 0 0 0 0 0 0 0 0 0 0 0 0 0 0
18 14 3 2 3 2 0 0 0 0 0 0 0 0 0 0 0 0 0 0 0 0 0 0 0 0 0 0 0 0 0 0 0 0 0 0 0 0 0 0 0 0 0 0 0 0 0
17 16 13 3 1 3 0 0 0 0 0 0 0 1 1 0 0 0 0 1 0 0 0 0 0 0 0 0 0 0 1 1 1 0 0 1 0 0 0 0 0 0 0 0 0 0 1
13 8 15 12 2 0 3 0 0 0 0 0 0 1 1 0 0 0 0 0 0 0 0 0 0 0 0 0 0 0 0 2 2 0 0 0 0 0 0 0 0 0 0 0 0 0 0
3 22 11 17 13 9 0 1 1 0 0 0 0 0 1 0 0 0 0 0 0 0 0 0 0 0 0 0 0 2 1 0 0 0 0 0 0 0 0 0 0 0 0 0 0 0 0
5 27 6 19 3 5 12 0 3 1 0 0 0 0 1 0 0 0 8 3 0 0 0 0 0 0 0 0 0 0 0 0 0 1 6 1 1 0 4 0 0 0 0 0 0 0 0
5 27 14 10 16 5 13 8 14 6 0 0 0 0 0 2 0 0 2 5 2 2 2 6 0 0 0 0 0 0 0 0 0 0 1 5 4 0 0 0 0 0 0 0 0 0 0
5 21 8 10 13 15 18 8 9 7 7 0 0 1 0 1 0 0 0 1 2 1 0 0 0 0 0 0 0 0 0 0 0 0 0 0 0 0 1 0 0 0 0 0 0 0 0
4 10 0 4 12 16 9 6 17 15 9 7 0 0 0 0 0 0 0 0 0 0 6 0 5 0 0 0 0 0 2 0 0 0 0 0 0 0 0 0 0 0 0 0 0 0 0

GFSGBSN_con_mlcape_018.txt.gz
CAPE
16 17 36 13 19 6 7 5 36 28 35 52 82 79 74 41 36 48 29 8 8 6 0 0 3 75 1 0 0 0 74 186 55 16 0 0 0 0 0 0 0 0 0 0 0 0 0
11 23 13 18 24 14 24 29 40 35 50 63 69 61 71 79 94 54 40 17 3 1 0 0 0 38 0 0 0 20 110 87 57 2 0 0 0 0 0 0 0 0 0 0 0 0 0
20 16 23 27 24 29 32 45 43 49 54 62 86 106 102 89 65 49 14 15 4 5 0 0 0 16 0 0 0 14 91 64 54 18 0 0 11 4 0 0 0 0 0 0 0 0 0
24 18 18 10 28 27 32 35 34 30 37 36 58 59 79 63 50 47 15 11 5 4 1 0 0 21 0 0 0 0 0 0 7 35 16 33 15 8 0 0 0 0 0 0 0 0 0
11 12 26 27 25 30 48 31 31 22 27 27 30 21 31 48 67 58 54 19 5 4 5 2 1 4 0 0 0 3 0 0 15 35 33 26 37 19 0 0 0 0 0 0 0 0 0
24 29 19 28 29 37 41 24 29 37 35 25 26 29 30 22 47 60 81 40 17 6 2 4 11 0 0 0 0 0 0 11 42 59 27 29 9 2 2 1 0 0 0 0 0 0 0
20 27 10 29 22 30 34 34 18 24 28 22 14 16 27 26 33 34 22 0 10 0 2 8 4 0 0 0 0 0 0 4 62 8 2 4 0 0 0 0 0 0 0 0 0 0 0
4 17 9 37 32 40 31 25 29 38 28 18 25 14 21 26 13 21 16 0 15 1 0 1 2 0 0 0 0 0 0 25 52 0 0 0 0 0 0 0 0 5 0 0 0 0 0
19 10 13 28 36 28 29 7 37 42 26 19 17 22 20 32 42 5 1 7 31 9 2 4 2 1 0 0 0 0 0 1 17 0 0 0 0 0 0 0 0 0 0 0 0 0 0
12 13 14 30 29 33 26 25 30 25 7 29 27 12 35 34 4 0 3 59 10 0 0 10 2 2 20 2 0 0 2 0 1 0 0 0 0 0 0 0 0 0 0 0 0 0 0
11 18 13 20 29 22 18 14 27 17 19 33 57 65 58 110 2 4 0 0 0 0 0 0 4 2 14 0 0 4 0 0 0 0 0 0 0 0 0 0 0 0 0 0 0 0 0
7 13 17 22 30 31 7 40 34 27 25 32 27 43 111 52 28 5 0 0 0 0 0 0 3 6 14 1 1 10 6 0 1 1 0 0 0 0 0 0 0 0 0 0 0 0 0
11 14 20 35 31 25 18 34 28 28 30 31 51 11 43 43 6 6 0 0 0 0 0 0 2 7 7 7 0 12 0 1 0 0 0 0 0 0 0 0 0 0 0 0 0 0 0
10 10 11 31 25 31 25 25 16 17 21 51 7 0 19 4 2 0 0 0 0 0 0 2 3 8 3 4 6 6 0 1 0 0 0 0 0 0 0 0 0 0 0 0 0 0 0
14 9 10 14 28 23 24 17 19 6 27 16 0 0 7 0 0 0 0 0 0 0 3 8 2 0 1 1 0 0 1 0 0 0 0 0 0 0 0 0 0 0 0 0 0 0 0
5 5 6 17 9 12 10 12 8 6 0 0 0 0 2 0 0 0 0 0 0 1 1 0 0 0 0 0 0 0 0 0 0 0 0 0 0 0 0 0 0 0 0 0 0 0 0
4 4 3 9 5 7 10 7 5 1 0 0 0 0 0 0 0 0 0 0 1 5 2 0 0 0 0 0 0 0 0 0 0 0 0 0 0 0 0 0 0 0 0 0 0 0 0
5 3 1 8 1 3 1 0 1 2 0 0 0 0 0 0 0 1 0 0 1 0 0 0 0 0 0 0 0 0 0 0 0 0 0 0 0 0 0 0 0 0 0 0 0 0 0
6 1 1 6 1 0 0 0 0 1 2 0 0 0 0 0 0 0 0 0 0 1 0 0 0 0 0 0 0 0 0 0 0 0 0 0 0 0 0 0 0 0 0 0 0 0 0
10 0 0 2 7 0 0 0 0 0 0 0 0 0 0 0 0 0 0 0 0 0 0 0 0 0 0 0 0 0 0 0 0 0 0 0 0 0 0 0 0 0 0 0 0 0 0
13 0 0 1 8 1 0 0 0 0 0 0 0 0 0 0 0 0 0 0 0 0 0 0 0 0 0 0 0 0 0 0 0 0 0 0 0 0 0 0 0 0 0 0 0 0 0
5 0 0 0 6 3 1 0 0 0 0 0 0 0 0 0 0 0 0 0 0 0 0 0 0 0 0 0 0 0 0 0 0 0 0 0 0 0 0 0 0 0 0 0 0 0 0
0 13 0 5 2 5 2 1 0 0 0 0 0 0 0 0 0 0 0 0 0 0 0 0 0 0 0 0 0 0 0 0 0 0 0 0 0 0 0 0 0 0 0 0 0 0 0
0 5 1 9 9 4 1 3 1 0 0 0 0 2 0 0 0 0 0 0 0 0 0 0 0 0 0 0 0 0 0 1 0 0 0 0 0 0 0 0 0 0 0 0 0 0 0
0 1 3 1 10 11 7 2 2 1 0 0 1 0 2 0 0 0 0 0 0 0 0 0 0 0 0 0 0 3 0 4 2 1 0 0 0 0 0 0 0 0 0 0 0 0 0
0 4 17 1 10 20 18 13 5 4 0 0 0 0 1 0 0 0 0 0 0 0 0 0 0 0 0 0 0 0 0 0 0 0 3 0 0 1 1 0 0 0 0 0 0 0 0
0 11 24 4 7 17 11 12 18 6 2 0 0 0 0 2 0 0 0 0 1 0 0 0 0 0 0 0 0 0 0 1 0 0 1 5 11 1 1 0 0 0 0 0 0 0 0
4 12 24 4 1 2 14 7 4 17 14 0 0 0 0 0 0 0 0 0 1 0 0 0 0 0 0 0 0 0 0 1 3 0 0 0 0 1 0 0 0 0 0 0 0 0 0
9 10 10 24 3 2 12 8 8 12 6 13 0 0 0 1 0 0 0 0 0 0 0 1 0 0 0 0 0 0 0 0 0 0 0 1 0 0 0 0 0 0 0 0 0 0 0

GFSGBSN_con_mlcape_021.txt.gz
CAPE
19 11 10 17 11 22 32 35 35 37 38 44 42 39 56 39 76 104 90 36 2 5 4 0 0 0 6 1 0 0 131 219 93 59 4 0 0 0 0 0 0 0 0 0 0 0 0
23 19 12 12 13 30 31 27 34 21 23 25 29 31 38 37 54 59 76 48 11 1 2 0 0 2 3 1 0 0 45 174 130 23 9 0 0 0 0 0 0 0 0 0 0 0 0
8 19 13 24 16 30 33 27 28 15 17 24 30 29 19 9 14 39 55 44 25 5 6 8 1 6 8 0 0 4 98 78 121 36 0 0 0 0 0 0 0 0 0 0 0 0 0
12 17 14 26 11 27 33 31 36 19 33 14 29 35 28 14 19 33 67 52 40 8 5 10 7 5 0 0 0 0 14 63 89 36 0 0 19 12 0 0 0 0 0 0 0 0 0
20 12 19 26 17 32 28 29 26 27 22 30 25 20 26 24 28 34 51 81 53 18 9 21 2 8 3 0 0 0 0 62 40 62 53 20 29 12 3 1 0 0 0 0 0 0 0
11 21 13 26 26 34 31 38 33 39 37 37 19 10 5 6 28 31 32 62 41 38 5 7 1 4 0 0 0 0 0 35 73 89 60 42 36 6 7 10 0 0 0 0 0 0 0
1 13 10 27 30 37 31 49 36 43 45 52 17 10 5 3 16 19 7 0 0 0 3 0 5 0 0 0 0 0 0 39 94 79 33 3 18 1 0 0 0 0 0 0 0 0 0
14 7 20 13 22 34 39 39 40 49 47 6 0 1 25 35 44 37 0 0 12 9 0 0 12 0 6 5 0 0 0 48 63 1 0 0 1 2 0 0 0 3 2 0 0 0 0
12 6 13 11 27 39 28 24 28 40 17 0 30 68 62 56 36 0 0 2 16 18 8 2 1 5 5 7 0 1 0 20 12 0 0 2 0 0 4 0 5 0 0 0 0 0 0
13 10 13 34 37 42 31 36 20 23 34 30 35 56 62 72 2 1 0 3 53 0 0 0 0 2 14 1 0 0 7 15 1 0 5 2 0 0 0 0 0 0 0 0 0 0 0
14 5 12 26 24 41 38 21 26 26 27 23 14 15 50 47 1 2 0 0 0 0 0 0 0 16 9 0 0 1 0 0 0 0 0 0 0 0 0 0 0 0 0 0 0 0 0
7 15 15 19 25 42 14 18 14 33 38 99 83 45 30 13 17 4 0 0 0 0 0 1 6 7 4 1 12 1 2 0 0 0 0 0 0 0 0 0 0 0 0 0 0 0 0
7 11 10 13 19 8 11 11 27 47 34 4 11 16 3 3 0 3 0 0 0 0 0 0 2 3 4 13 19 2 1 0 0 0 0 0 0 0 0 0 0 0 0 0 0 0 0
15 8 8 8 4 6 7 14 13 30 12 0 7 1 0 0 0 0 0 0 0 0 0 3 5 9 1 15 12 8 0 1 0 0 0 0 0 0 0 0 0 0 0 0 0 0 0
14 10 4 5 1 2 1 3 5 2 20 1 0 0 0 0 0 0 0 0 0 0 0 8 1 0 0 4 3 3 0 0 0 0 0 0 0 0 0 0 0 0 0 0 0 0 0
13 6 3 6 0 0 0 2 4 2 1 0 0 0 0 0 0 0 0 0 0 0 1 0 0 0 0 0 0 0 0 0 0 0 0 0 0 0 0 0 0 0 0 0 0 0 0
16 6 1 4 1 0 0 0 2 2 0 0 0 0 0 0 0 0 0 0 4 6 1 0 0 0 0 0 0 0 0 0 0 0 0 0 0 0 0 0 0 0 0 0 0 0 0
16 8 2 2 3 0 0 0 0 0 0 0 0 0 0 0 0 0 0 0 2 8 0 0 0 0 0 0 0 0 0 0 0 0 0 0 0 0 0 0 0 0 0 0 0 0 0
5 9 4 2 4 0 0 0 0 0 2 0 0 0 0 0 0 0 0 0 0 4 0 0 0 0 0 0 0 0 0 0 0 0 0 0 0 0 0 0 0 0 0 0 0 0 0
0 12 3 1 6 0 0 0 0 0 0 0 0 0 0 0 0 0 0 0 0 0 0 0 0 0 0 0 0 0 0 0 0 0 0 0 0 0 0 0 0 0 0 0 0 0 0
2 14 2 0 6 4 0 0 0 0 0 0 0 0 0 0 0 0 0 0 0 0 0 0 0 0 0 0 0 0 0 0 0 0 0 0 0 0 0 0 0 0 0 0 0 0 0
2 14 5 0 0 2 2 0 0 0 0 0 0 0 0 0 0 0 0 0 0 0 0 0 0 0 0 0 0 0 0 0 0 0 1 0 0 0 0 0 0 0 0 0 0 0 0
3 7 24 2 0 0 0 1 0 0 0 0 0 0 0 0 0 0 0 0 0 0 0 0 0 0 0 0 0 0 0 0 0 0 0 0 0 0 0 0 0 0 0 0 0 0 0
1 4 21 5 0 5 3 0 0 1 0 0 1 0 0 0 0 0 0 0 0 0 0 0 0 0 0 0 0 0 0 0 0 0 0 0 0 0 0 0 0 0 0 0 0 0 0
2 1 14 18 2 3 4 4 0 3 0 0 0 0 1 0 0 0 0 0 0 0 0 0 0 0 0 0 0 0 2 2 0 0 0 0 0 0 0 0 0 0 0 0 0 0 0
5 2 13 34 2 4 13 0 4 1 0 0 0 0 1 2 0 1 0 0 0 0 0 0 0 0 0 0 1 0 0 0 0 1 0 0 0 0 0 0 0 0 0 0 0 0 0
11 6 7 33 5 0 6 16 5 10 5 0 0 0 0 2 0 0 0 0 0 0 0 0 0 0 0 0 0 0 0 2 0 0 0 0 4 0 1 2 0 0 0 0 0 0 0
13 14 15 23 32 6 1 23 13 14 16 0 0 0 0 0 0 0 0 0 0 0 0 0 0 0 0 0 0 0 0 0 2 0 0 0 0 0 3 4 0 0 0 0 0 0 0
4 24 14 16 10 17 0 0 6 19 20 9 0 0 0 1 0 0 0 0 0 0 0 0 0 0 0 0 0 0 0 0 0 1 0 0 0 0 0 0 0 0 0 0 0 0 0

GFSGBSN_con_mlcape_024.txt.gz
CAPE
16 19 21 23 15 9 29 35 29 23 15 44 19 31 34 32 33 36 40 85 106 58 12 5 10 6 0 31 0 0 0 432 0 45 20 23 7 0 0 0 0 0 0 0 0 0 0
17 21 34 32 22 12 26 33 31 37 38 24 34 29 26 20 21 18 31 39 67 35 9 14 17 13 3 17 0 0 0 345 16 101 26 16 5 0 0 0 0 0 0 0 0 0 0
22 24 30 26 12 15 32 43 49 41 30 39 47 35 30 34 33 27 35 40 77 62 26 6 13 9 6 6 0 0 58 135 210 114 1 10 0 0 0 0 0 0 0 0 0 0 0
19 25 24 8 5 25 32 51 50 60 50 31 56 40 15 27 21 28 27 60 96 104 48 11 10 14 3 0 0 0 0 94 149 83 32 2 1 7 0 0 0 0 0 0 0 0 0
19 21 21 26 9 30 32 45 45 36 46 54 53 43 21 10 16 18 37 58 92 118 76 31 11 0 17 1 0 0 0 106 88 51 50 46 57 34 5 0 0 1 0 0 0 0 0
20 12 26 21 9 26 30 25 38 52 69 58 44 23 10 20 16 38 31 58 83 93 46 17 0 62 3 0 0 0 0 49 46 43 29 22 36 20 8 2 0 0 0 0 0 0 0
20 12 21 18 20 28 21 20 26 29 40 42 18 60 62 30 73 71 10 0 0 0 2 0 0 2 2 0 2 0 3 49 46 13 2 30 17 1 2 3 0 0 0 0 0 0 0
12 11 28 20 28 41 18 20 16 18 22 20 23 38 39 69 38 32 0 0 10 0 0 0 0 25 0 9 0 1 0 70 65 24 4 5 8 0 0 0 0 0 0 0 0 0 0
4 14 11 19 14 19 22 19 22 29 31 59 3 12 36 36 25 1 0 0 1 18 3 4 3 14 14 6 1 1 6 25 26 29 7 1 1 2 0 1 4 2 4 0 0 0 0
6 15 19 19 22 14 13 31 33 43 44 89 120 29 13 21 0 0 0 2 14 0 0 0 3 9 7 18 1 0 20 0 7 0 0 0 0 3 0 1 0 0 0 0 0 0 0
5 16 7 13 11 7 18 31 9 41 8 25 23 25 64 6 3 2 1 1 0 0 0 0 0 4 10 5 0 4 0 0 0 0 2 0 1 1 0 0 0 0 0 0 0 0 0
7 4 16 12 5 3 13 9 4 32 1 22 18 9 2 5 0 4 0 0 0 0 0 0 2 12 6 3 0 0 0 0 0 0 0 0 0 0 0 0 0 0 0 0 0 0 0
8 3 12 14 5 1 3 3 4 18 8 12 1 0 0 0 0 0 0 0 0 0 0 0 1 3 0 9 5 2 1 0 1 0 0 0 0 0 0 0 0 0 0 0 0 0 0
2 15 6 15 3 0 1 2 4 4 19 0 0 0 0 0 0 0 0 0 0 0 0 2 4 2 0 14 8 3 0 5 0 0 0 0 0 0 0 0 0 0 0 0 0 0 0
1 6 6 9 5 0 0 2 1 1 0 1 0 0 0 0 0 0 0 0 0 1 1 2 0 1 1 2 3 1 0 0 0 0 0 0 0 0 0 0 0 0 0 0 0 0 0
2 10 7 2 12 0 0 0 0 0 0 0 0 0 0 0 0 0 0 0 0 1 0 0 0 0 0 0 0 0 0 0 0 0 0 0 0 0 0 0 0 0 0 0 0 0 0
2 10 8 4 5 2 0 0 0 0 0 0 0 0 0 0 0 0 0 0 6 6 0 0 0 0 0 0 0 0 0 0 0 0 0 0 0 0 0 0 0 0 0 0 0 0 0
1 9 6 8 3 4 0 0 0 0 1 0 0 0 0 0 0 0 0 0 1 0 0 0 0 0 0 0 0 0 0 0 0 0 0 0 0 0 0 0 0 0 0 0 0 0 0
3 9 4 10 5 4 1 0 0 0 1 0 0 0 0 0 0 0 0 0 0 0 0 0 0 0 0 0 0 0 0 0 0 0 0 0 0 0 0 0 0 0 0 0 0 0 0
6 5 7 7 6 2 2 1 0 0 0 0 0 0 0 0 0 0 1 0 0 0 0 0 0 0 0 0 0 0 0 0 0 0 0 0 0 0 0 0 0 0 0 0 0 0 0
3 4 9 3 11 2 1 1 0 0 0 0 0 0 0 0 0 0 0 0 0 0 0 0 0 0 0 0 0 0 0 0 0 0 0 0 0 0 0 0 0 0 0 0 0 0 0
2 3 4 9 4 5 0 2 1 0 0 0 0 0 0 0 0 0 0 0 0 0 0 0 0 0 0 0 0 0 0 0 0 0 0 0 0 0 0 0 0 0 0 0 0 0 0
2 2 2 19 2 5 1 0 3 0 0 0 0 0 2 0 0 0 0 0 0 0 0 0 0 0 0 0 0 0 0 0 0 0 0 0 0 0 0 0 0 0 0 0 0 0 0
1 4 0 17 4 2 8 0 1 3 0 0 1 1 1 0 0 0 0 0 0 0 0 0 0 1 0 0 0 0 0 0 0 0 0 0 0 0 0 0 0 0 0 0 0 0 0
6 9 8 12 22 0 0 5 9 4 0 0 0 0 1 0 0 0 0 0 0 0 0 0 0 0 0 0 0 0 0 1 0 0 0 0 0 0 0 0 0 0 0 0 0 0 0
11 12 15 11 42 0 0 0 3 5 10 0 0 0 0 0 0 0 0 0 0 0 0 0 0 0 0 0 0 0 0 0 0 5 0 0 0 0 0 0 0 0 0 0 0 0 0
17 18 18 28 26 33 1 0 10 3 4 0 0 0 0 0 0 0 0 0 0 0 0 0 0 0 0 0 0 0 0 0 0 0 0 2 1 0 0 0 0 0 0 0 0 0 0
17 12 23 8 14 31 36 2 0 3 16 3 0 0 0 0 0 0 0 0 0 0 0 0 0 0 0 0 0 0 0 0 0 0 0 0 0 0 1 0 0 0 0 0 0 0 0
15 13 20 17 8 24 37 33 8 3 11 24 12 0 0 0 0 0 0 0 0 0 2 0 0 0 0 0 0 0 0 0 0 0 0 0 0 0 0 0 0 0 0 0 0 0 0

GFSGBSN_con_mlcape_027.txt.gz
CAPE
10 16 21 28 27 28 21 30 40 46 38 42 34 36 46 54 57 39 19 30 38 50 85 84 28 8 14 11 3 0 0 2 10 41 69 5 1 1 0 0 0 0 0 0 0 0 0
16 24 15 13 23 28 19 30 36 53 40 38 29 61 39 74 62 65 45 46 43 46 101 63 7 21 15 4 0 0 0 18 0 61 36 22 3 0 0 0 0 0 0 0 0 0 0
13 24 25 14 32 19 21 25 34 38 37 46 42 78 74 47 67 66 64 51 32 52 134 107 66 8 16 0 0 0 0 33 9 118 27 22 6 0 0 0 0 0 0 0 0 0 0
10 22 24 18 21 39 32 22 29 33 32 41 70 98 82 74 31 57 51 96 80 112 178 105 47 21 3 23 6 1 0 60 102 236 133 37 6 4 0 0 0 0 0 0 0 0 0
9 10 16 14 21 40 26 26 30 5 15 30 30 49 13 33 24 47 96 112 119 158 184 107 7 8 0 56 1 0 0 13 149 150 65 60 24 29 3 0 0 0 0 0 0 0 0
14 8 12 21 18 42 16 32 22 7 11 26 25 25 23 29 48 69 149 138 137 167 118 43 1 4 0 5 8 0 0 31 114 128 47 64 23 13 6 2 0 0 0 0 0 0 0
8 11 17 28 17 18 25 2 19 36 57 95 112 20 31 35 26 17 5 0 0 0 14 0 0 1 26 21 3 4 4 62 54 35 6 13 3 0 4 5 0 0 0 0 0 0 0
8 11 18 13 20 14 16 27 36 42 49 27 57 67 0 22 10 6 0 0 2 0 0 0 0 0 0 43 2 1 11 87 0 5 8 13 8 1 1 1 0 0 0 0 0 0 0
11 7 10 7 11 6 21 16 29 32 33 36 36 45 0 11 6 0 0 0 0 0 0 26 45 0 5 2 3 0 26 18 0 2 0 1 11 1 0 8 0 0 0 0 0 0 0
6 9 10 4 7 5 8 13 13 16 7 25 33 28 20 0 0 0 0 3 0 0 0 1 22 7 14 4 12 10 35 1 4 2 5 2 0 0 3 2 1 0 0 0 0 0 0
9 9 10 6 7 5 5 15 8 3 2 7 7 2 8 0 0 0 0 1 0 0 0 0 1 0 13 0 7 8 0 0 0 0 0 0 0 10 2 1 0 0 0 0 0 0 0
7 5 3 4 10 5 6 5 4 4 0 0 0 0 2 0 0 1 0 0 0 0 0 0 1 3 8 15 2 1 1 5 2 3 0 0 4 0 2 0 0 0 0 0 0 0 0
5 3 5 3 12 3 5 3 3 9 0 0 0 0 0 0 0 0 0 0 0 0 0 0 1 6 5 13 6 4 2 0 0 0 0 0 0 0 0 0 0 0 0 0 0 0 0
5 3 8 4 7 6 3 2 2 3 1 0 0 0 0 0 0 0 0 0 0 0 0 2 7 6 5 4 1 1 3 0 0 0 0 0 1 0 0 0 0 0 0 0 0 0 0
3 4 7 6 4 7 4 2 0 1 2 0 0 0 0 0 0 0 0 0 0 0 0 1 4 1 3 1 4 1 0 0 0 0 0 0 0 0 0 0 0 0 0 0 0 0 0
2 5 3 6 4 5 5 2 0 0 1 0 0 0 0 0 0 0 0 0 0 0 0 0 0 0 0 1 0 0 0 0 0 0 0 0 0 0 0 0 0 0 0 0 0 0 0
3 2 5 4 8 3 2 1 1 0 1 0 0 0 0 0 0 0 0 0 1 0 0 0 0 0 0 0 0 0 0 0 0 0 0 0 0 0 0 0 0 0 0 0 0 0 0
4 3 8 2 1 7 3 0 0 0 1 0 0 0 0 0 0 0 0 0 3 0 0 0 0 0 0 0 0 0 0 0 0 0 0 0 0 0 0 0 0 0 0 0 0 0 0
2 3 12 2 7 3 4 1 0 0 2 0 0 0 0 0 0 0 0 0 0 0 0 0 0 0 0 0 0 0 0 0 0 0 0 0 0 0 0 0 0 0 0 0 0 0 0
1 1 4 21 1 8 5 1 0 0 0 0 0 0 0 0 0 0 0 0 0 0 0 0 0 0 0 0 0 0 0 0 0 0 0 0 0 0 0 0 0 0 0 0 0 0 0
4 1 2 12 5 7 8 2 0 0 0 0 0 0 0 0 0 0 0 0 0 0 0 0 0 0 0 0 0 0 0 0 0 0 0 0 0 0 0 0 0 0 0 0 0 0 0
2 1 5 6 14 3 2 2 1 0 0 0 0 0 0 0 0 0 0 0 0 0 0 0 0 0 0 0 0 0 0 0 0 0 0 0 0 0 0 0 0 0 0 0 0 0 0
3 4 4 4 16 7 0 2 3 0 0 0 0 0 0 0 0 0 0 0 0 0 0 0 0 0 0 0 0 0 0 0 0 0 0 1 0 0 0 0 0 0 0 0 0 0 0
8 12 9 9 22 5 0 4 2 6 0 0 0 1 0 0 0 0 0 0 0 0 0 0 0 0 0 0 0 0 0 0 0 0 0 0 0 0 0 0 0 0 0 0 0 0 0
9 13 14 17 13 16 0 0 7 6 0 0 0 0 0 0 0 0 0 0 0 0 0 0 0 0 0 0 0 0 0 2 0 0 0 0 0 0 0 0 0 0 0 0 0 0 0
22 21 26 16 28 25 7 5 9 7 0 0 0 0 0 0 0 0 0 0 0 0 0 0 0 0 0 0 0 0 0 0 0 3 1 0 0 0 0 0 0 0 0 0 0 0 0
35 41 36 37 24 20 21 9 0 0 1 0 0 0 0 0 0 0 0 0 0 0 0 0 0 0 0 0 0 0 0 0 0 0 2 3 4 0 0 0 0 0 0 0 0 0 0
31 32 34 34 28 15 14 9 18 3 0 0 0 0 0 0 0 0 0 0 0 0 1 0 1 0 0 4 0 0 0 0 0 0 0 0 0 1 0 0 0 0 0 0 0 0 0
11 8 21 22 24 14 10 8 23 8 4 1 0 0 0 0 0 0 0 0 0 0 0 0 1 0 0 0 0 0 0 0 0 0 0 0 0 0 0 0 0 0 0 0 0 0 0

GFSGBSN_con_mlcape_030.txt.gz
CAPE
12 14 23 30 34 29 16 12 27 39 42 47 49 51 75 55 27 95 73 56 61 33 51 18 34 1 0 9 0 6 0 10 197 13 48 31 15 50 16 2 0 0 0 0 0 0 0
6 20 33 8 28 18 21 39 37 50 48 44 43 69 100 62 72 73 97 92 84 60 52 57 17 7 1 0 0 0 0 2 202 9 46 46 4 32 26 9 0 0 0 0 0 0 0
6 29 19 22 30 28 36 23 41 46 30 17 22 29 50 22 40 68 68 88 89 85 71 92 38 7 7 0 89 39 6 10 145 7 75 77 25 20 9 2 0 0 0 0 0 0 0
11 13 12 28 34 17 35 23 11 14 23 47 45 56 28 9 5 30 50 96 108 119 129 123 89 20 6 0 0 4 5 19 100 144 205 142 14 23 0 0 0 0 0 0 0 0 0
11 12 20 22 26 16 29 18 17 33 70 74 78 110 29 19 12 50 73 128 171 165 169 22 39 13 0 16 13 28 9 35 150 167 242 133 46 32 0 0 0 0 0 0 0 0 0
14 12 14 14 18 18 27 30 15 49 44 49 42 79 22 11 7 17 52 45 158 199 156 92 23 5 0 6 51 10 0 17 172 158 163 83 36 18 12 1 0 0 0 0 0 0 0
11 7 14 7 11 6 20 13 27 45 23 40 60 56 4 10 1 0 0 0 0 18 27 0 0 2 44 39 60 0 0 1 167 83 14 15 8 0 0 1 0 0 0 0 0 0 0
3 8 11 12 8 6 11 6 26 38 12 16 32 1 0 3 0 0 0 0 2 0 0 0 0 0 0 0 36 6 48 23 50 5 22 17 10 18 10 5 0 0 0 0 0 0 0
3 6 7 11 5 3 2 6 24 21 15 7 16 3 0 2 1 0 0 1 5 0 20 42 2 0 0 47 29 29 17 9 22 23 17 4 8 0 3 1 4 0 0 0 0 0 0
4 10 6 10 6 3 3 4 14 14 19 0 2 0 0 0 0 0 1 5 0 0 0 0 2 2 3 4 27 30 3 14 3 2 5 4 2 0 0 3 4 0 0 0 0 0 0
3 8 5 10 6 4 4 4 6 4 11 1 0 0 0 0 0 1 1 6 0 0 0 0 0 0 4 7 6 4 0 8 3 2 3 1 7 16 7 1 4 1 0 0 0 0 0
4 8 5 10 6 5 3 3 4 3 3 9 0 0 0 0 0 0 0 0 0 0 0 1 1 8 2 15 2 5 11 6 4 1 1 3 1 0 0 0 1 0 0 0 0 0 0
3 6 6 6 7 7 4 2 1 2 2 3 0 0 0 0 0 0 0 0 0 0 0 1 2 5 3 14 1 1 4 3 1 0 1 1 1 0 0 0 0 0 0 1 0 0 0
4 3 4 4 6 7 6 1 1 1 3 3 1 0 0 0 0 0 0 0 0 0 0 0 10 5 3 2 3 3 3 0 0 0 1 0 0 0 4 0 0 0 0 0 0 0 0
4 3 4 2 4 7 7 2 1 0 1 3 0 0 0 0 0 0 0 0 0 0 0 8 0 0 4 0 1 0 0 0 0 0 0 0 0 0 0 0 0 0 0 0 0 0 0
2 2 6 3 5 4 6 6 1 0 2 1 0 0 0 0 0 0 0 0 0 1 0 0 0 0 1 3 0 0 0 0 0 0 0 0 0 0 0 0 0 0 0 0 0 0 0
1 3 9 6 5 4 4 3 2 0 0 0 0 0 0 0 0 0 0 3 4 7 0 0 0 0 2 2 1 0 0 0 0 0 0 0 0 0 0 0 0 0 0 0 0 0 0
1 4 2 11 2 9 2 3 2 0 1 0 0 0 0 0 0 0 0 0 1 0 0 0 0 0 0 0 0 0 0 0 0 0 0 0 0 1 0 0 0 0 0 0 0 0 0
1 1 2 7 2 5 7 1 1 0 0 1 0 0 0 0 0 0 0 0 1 0 0 0 0 0 0 0 0 0 0 0 0 0 0 0 0 0 2 0 0 0 0 0 0 0 0
1 1 2 3 12 5 4 0 0 0 0 0 0 0 0 0 0 0 0 0 0 0 0 0 0 0 0 0 0 0 0 0 0 0 0 0 0 0 0 0 0 0 0 0 0 0 0
4 3 1 4 7 3 2 1 0 0 0 0 0 0 0 0 0 0 0 0 0 0 0 0 0 0 0 0 0 0 0 0 0 0 0 0 0 0 0 0 0 0 0 0 0 0 0
4 6 8 0 9 11 0 1 0 0 0 0 0 1 0 0 0 0 0 0 0 0 0 0 0 0 0 0 0 0 0 0 0 0 0 0 0 0 0 0 0 0 0 0 0 0 0
5 13 18 6 9 12 6 1 1 0 0 0 0 0 1 0 0 0 0 0 0 0 0 0 0 0 0 0 0 0 0 0 0 0 0 0 0 0 0 0 0 0 0 0 0 0 0
11 9 27 10 14 17 23 3 9 0 0 0 0 1 0 0 0 0 0 0 0 0 0 0 0 0 0 0 0 0 0 0 0 0 0 0 0 0 0 0 0 0 0 0 0 0 0
10 19 27 15 14 12 7 3 9 6 0 0 0 0 0 0 0 0 0 0 0 0 0 0 0 0 0 0 0 0 0 0 0 0 0 0 0 0 0 0 0 0 0 0 0 0 0
0 22 17 27 19 11 4 10 7 5 0 0 0 0 0 0 0 0 0 0 0 0 0 0 0 0 0 0 0 0 0 0 0 0 0 0 3 0 0 0 0 0 0 0 0 0 0
1 16 18 17 15 5 4 13 18 9 5 0 0 0 0 0 0 0 0 0 0 0 0 0 0 0 0 2 7 4 0 0 0 0 0 6 8 2 2 1 0 0 0 0 0 0 0
5 12 1 5 12 14 11 6 11 9 4 1 0 0 0 0 0 0 0 0 0 0 0 0 0 3 1 11 6 0 0 0 0 0 1 1 1 1 9 0 0 0 0 0 0 0 0
23 5 0 0 16 17 9 3 2 16 8 7 0 0 0 0 0 0 0 0 0 0 0 0 1 0 2 9 0 0 0 0 1 1 0 0 0 0 0 0 0 0 0 0 0 0 0

GFSGBSN_con_mlcape_033.txt.gz
CAPE
9 14 20 20 23 18 22 26 22 22 24 29 41 41 42 66 64 71 89 97 115 151 75 93 19 11 0 0 0 171 94 346 249 31 24 31 3 29 30 7 0 0 0 0 0 0 0
4 12 10 20 19 20 25 21 16 12 14 40 62 95 75 48 11 6 92 39 116 101 60 82 51 1 0 1 0 17 0 0 27 88 33 33 0 27 44 16 2 2 0 0 0 0 0
7 6 13 16 25 12 16 17 29 31 63 68 74 106 118 30 0 0 8 55 89 132 108 104 89 19 17 4 27 161 1 0 0 83 34 37 14 67 16 22 22 13 5 0 0 0 0
4 7 15 14 7 9 20 27 22 39 54 33 61 90 99 50 16 20 32 53 125 139 135 87 58 15 7 0 0 0 37 0 0 148 17 39 47 30 27 25 29 16 14 0 0 0 0
6 6 15 11 9 6 11 22 25 40 10 15 49 74 76 28 17 16 42 101 168 206 140 23 10 20 1 26 0 0 21 19 0 156 66 275 107 35 43 23 25 22 0 0 0 0 0
3 5 8 7 10 7 15 27 26 30 14 13 29 41 25 0 1 0 11 22 121 135 126 53 42 12 0 5 12 75 51 0 42 93 131 157 89 10 26 19 0 0 0 0 0 0 0
3 3 12 5 9 5 10 20 18 24 20 14 12 11 10 0 0 1 33 113 124 67 30 5 4 3 30 23 91 43 11 40 78 80 15 162 38 6 0 0 0 0 0 0 0 0 0
3 6 7 4 6 8 4 7 10 26 21 14 0 0 0 0 1 0 17 18 12 7 6 0 0 0 0 0 47 44 27 3 29 17 12 2 8 0 7 2 0 0 0 0 0 0 0
2 5 4 7 4 7 3 6 6 15 21 7 1 0 0 0 0 0 1 5 12 5 16 8 8 0 0 48 26 14 10 12 17 15 20 13 3 16 6 6 10 2 0 0 0 0 0
1 6 5 6 5 6 7 3 3 7 7 18 5 0 0 0 0 0 2 4 1 0 1 0 3 3 20 48 21 25 0 0 0 11 19 11 7 5 10 7 7 6 0 0 0 0 0
2 3 3 6 6 5 6 6 5 0 1 4 8 0 0 0 0 0 0 1 0 4 12 4 0 0 0 44 2 1 2 16 1 0 1 0 0 8 7 4 10 19 0 0 0 0 0
2 3 3 6 2 3 4 4 5 6 1 2 3 2 0 1 0 0 0 0 0 1 0 0 0 2 5 15 7 9 2 14 3 2 0 2 1 0 0 7 9 0 0 0 0 0 0
1 2 4 3 2 7 4 3 2 5 5 0 1 3 0 0 0 0 0 1 0 0 0 1 2 6 6 5 1 3 3 1 0 0 0 0 1 1 0 0 0 0 4 6 2 0 0
1 2 5 3 3 4 4 6 1 1 1 0 2 0 0 0 0 0 4 1 0 1 1 0 5 7 6 2 0 1 3 1 0 1 0 0 0 0 1 0 0 0 13 14 0 0 0
0 1 5 5 5 6 4 3 3 0 1 1 0 0 0 0 0 3 0 0 0 0 0 7 3 3 2 0 2 8 4 0 0 0 0 0 1 2 3 0 0 1 0 0 0 0 0
0 1 2 10 5 3 3 4 3 0 0 2 0 0 0 0 0 0 0 0 1 0 4 1 5 1 0 0 4 10 8 0 0 0 0 0 1 2 1 1 0 1 0 0 0 0 0
0 3 2 2 7 3 3 6 3 0 0 0 0 0 0 0 2 4 0 2 5 3 0 0 0 3 1 0 0 1 0 0 0 0 0 0 0 1 1 0 0 0 0 0 0 0 0
3 1 1 2 7 5 3 5 2 1 0 0 0 2 0 0 2 3 6 2 4 2 0 0 0 0 5 2 4 3 0 0 0 0 0 0 1 0 0 0 0 0 0 0 0 0 0
4 1 3 1 2 6 4 2 2 0 0 0 0 0 0 0 6 0 0 0 1 0 0 0 0 0 0 0 2 1 0 0 0 0 0 0 0 0 1 0 0 0 0 0 0 0 0
4 4 6 0 2 7 3 1 1 0 0 0 0 0 0 0 0 0 0 0 0 0 0 0 0 0 0 0 0 0 0 0 0 0 0 0 0 0 0 0 0 0 0 0 0 0 0
4 2 11 0 4 8 4 0 1 0 0 0 0 1 0 4 1 1 0 0 0 0 0 0 0 0 0 0 0 0 0 0 0 0 0 0 0 0 0 0 0 0 0 0 0 0 0
0 6 12 1 5 9 17 0 2 0 0 0 0 2 0 1 0 0 0 0 0 0 0 0 0 0 0 0 0 0 0 0 0 0 0 0 0 0 0 0 0 0 0 0 0 0 0
0 2 14 8 12 16 9 3 0 0 0 0 0 0 2 0 0 0 1 0 1 0 0 0 0 4 1 0 0 0 0 0 0 0 0 0 0 0 0 0 0 0 0 0 0 0 0
0 0 9 23 19 13 4 5 6 0 0 0 0 1 0 0 0 1 0 0 0 0 1 0 2 9 0 0 0 0 0 0 0 0 0 3 0 0 0 0 0 0 0 0 0 0 0
0 8 16 17 14 10 4 6 12 5 0 0 0 0 0 0 0 0 0 0 0 0 0 0 3 0 0 0 4 4 1 2 1 0 0 2 5 1 0 0 0 0 0 0 0 0 0
0 2 0 0 1 0 1 2 16 5 5 0 0 0 0 0 0 0 0 0 0 1 0 0 0 0 0 16 9 2 3 2 1 6 1 0 3 0 0 0 0 0 0 0 0 0 0
0 8 2 0 0 9 5 5 10 0 0 0 0 0 0 0 0 0 0 0 0 3 0 1 5 8 0 13 10 0 3 0 1 1 1 7 6 1 0 0 0 0 0 0 0 0 0
0 11 2 0 4 12 0 0 0 1 1 1 5 0 0 0 0 0 0 0 0 0 0 0 1 2 5 10 7 9 0 2 0 0 0 0 0 0 1 0 0 0 0 0 0 0 0
5 10 3 2 2 9 18 6 4 7 14 0 3 0 0 2 0 0 0 0 0 0 0 0 0 1 7 24 8 9 0 4 2 2 0 0 0 0 0 0 0 0 0 0 0 0 0

GFSGBSN_con_mlcape_036.txt.gz
CAPE
8 13 9 13 14 8 20 17 14 22 33 48 51 68 102 135 114 73 59 72 98 120 76 83 57 24 12 1 0 87 56 132 263 175 13 47 0 27 9 9 0 0 0 0 6 0 0
2 12 10 14 14 11 15 10 7 29 40 24 30 44 108 120 60 14 11 4 62 23 68 105 102 39 0 6 2 80 104 163 210 88 2 43 0 7 103 86 0 0 0 0 6 0 0
9 9 9 10 9 11 11 9 15 33 32 30 21 9 79 55 9 0 1 5 29 56 118 78 93 25 5 0 61 139 34 1 68 64 25 1 11 18 69 74 22 14 0 0 0 0 0
5 7 10 10 10 8 9 13 20 37 40 34 30 26 54 26 0 6 35 52 107 159 138 129 77 2 3 0 0 0 25 6 0 16 55 45 42 16 128 14 23 23 7 4 0 0 0
5 6 5 8 9 6 4 8 23 31 35 32 15 18 7 7 10 12 22 48 111 229 167 52 3 5 0 0 0 0 0 7 9 30 27 26 32 30 94 15 17 28 0 0 0 0 0
4 6 7 7 6 6 4 4 13 26 22 24 4 0 0 0 0 3 1 19 104 121 89 29 8 4 0 0 1 0 0 74 66 59 3 33 26 23 42 17 0 0 0 0 0 0 0
3 4 4 5 4 4 4 2 9 16 21 14 0 0 5 0 0 0 4 90 91 70 48 3 1 0 0 3 70 12 190 105 20 87 25 24 3 0 0 0 0 0 0 0 0 0 0
1 3 4 6 5 5 4 4 1 11 9 17 2 0 0 0 0 1 6 3 5 5 3 0 0 0 0 0 44 94 57 3 6 24 23 12 1 0 2 0 0 1 0 0 0 0 0
2 2 2 6 8 6 6 5 5 4 3 3 12 0 0 0 0 8 3 4 5 2 4 21 0 0 14 9 34 12 1 0 2 13 4 2 3 14 0 0 0 0 0 0 0 0 0
1 2 2 4 2 5 6 6 7 6 4 0 2 8 1 0 0 0 0 1 0 0 0 0 5 25 36 18 13 37 18 1 1 4 21 2 12 15 13 12 0 0 0 0 0 0 0
1 1 2 3 5 6 4 9 10 7 3 5 2 3 5 0 0 2 0 0 0 3 0 1 0 0 13 11 1 9 4 0 0 6 3 1 8 23 11 10 7 4 0 0 0 0 0
1 1 2 4 3 5 6 1 6 7 3 2 1 4 0 0 1 0 0 0 1 0 0 0 0 5 9 20 9 2 2 0 0 0 0 1 0 0 0 2 0 10 1 0 0 0 0
1 0 4 5 2 8 5 3 4 7 3 0 2 1 1 0 1 0 0 1 0 0 0 0 5 5 4 4 2 1 0 0 0 0 0 0 0 0 0 0 1 0 0 0 1 0 0
1 0 2 4 2 1 4 5 1 3 1 0 0 0 0 0 0 0 0 1 0 0 6 0 8 1 0 0 1 3 1 0 1 0 0 0 0 0 0 0 0 5 0 1 0 0 0
0 0 2 4 2 2 4 4 2 1 0 0 0 0 0 0 0 0 0 0 0 0 0 3 1 4 0 0 0 3 4 2 5 2 0 0 0 2 0 0 0 1 0 0 0 0 0
0 1 3 5 4 4 3 2 2 1 0 0 0 0 0 0 0 0 0 0 0 0 0 0 1 0 1 1 2 10 0 0 0 0 0 0 0 1 1 0 0 0 0 0 0 0 0
1 3 1 4 3 4 1 2 2 0 0 0 0 0 0 0 0 0 0 1 0 0 0 0 3 0 0 0 0 1 0 0 0 0 0 0 0 2 1 0 0 0 0 0 0 0 0
0 1 2 1 2 8 7 3 3 0 0 0 0 0 0 0 0 2 0 0 0 0 0 0 0 0 0 0 0 0 2 0 0 0 0 0 0 0 0 0 0 0 0 0 0 0 0
0 4 5 1 2 8 9 6 4 0 0 0 0 0 0 0 3 0 0 0 0 0 0 0 0 0 0 0 0 0 0 0 0 0 0 0 0 0 0 0 0 0 0 0 0 0 0
0 0 2 4 3 11 7 6 2 0 0 0 0 0 1 0 0 3 1 0 0 0 0 0 0 0 0 0 0 0 0 0 0 0 0 0 0 0 0 0 0 0 0 0 0 0 0
0 0 5 1 5 14 0 5 1 0 0 0 0 0 0 2 1 0 0 2 7 7 0 0 0 0 0 0 0 0 0 0 0 0 0 0 0 0 0 0 0 0 0 0 0 0 0
0 0 0 3 4 12 1 3 2 0 0 0 1 0 0 0 0 0 0 0 5 0 0 0 0 0 0 1 0 0 0 0 0 0 0 0 0 0 0 0 0 0 0 0 0 0 0
0 0 0 9 5 6 2 3 4 0 0 0 0 1 0 0 1 0 0 0 1 0 0 0 3 5 1 1 0 0 0 0 0 0 0 0 0 0 0 0 0 0 0 0 0 0 0
0 0 1 7 4 3 2 5 12 0 0 0 0 0 0 0 0 0 0 0 0 0 0 1 6 9 0 0 0 0 0 0 0 0 0 0 0 0 0 0 0 0 0 0 0 0 0
0 0 0 1 1 2 9 2 6 1 0 0 0 0 0 0 0 0 0 0 0 0 0 0 1 0 0 0 0 3 1 0 0 0 0 0 0 0 0 0 0 0 0 0 0 0 0
0 0 11 0 0 1 6 2 8 3 0 0 0 0 0 0 0 0 0 0 0 0 0 1 0 0 0 11 17 1 3 0 0 1 0 0 0 0 1 0 0 0 0 0 0 0 0
0 1 11 0 0 0 5 3 0 0 0 0 0 0 0 0 0 0 0 0 0 0 0 0 1 4 1 5 4 2 0 0 0 0 0 4 1 0 0 0 0 0 0 0 0 0 0
0 1 10 0 0 0 2 3 6 10 0 1 9 0 0 0 0 0 0 0 0 0 0 0 0 2 3 4 2 6 2 2 0 0 0 0 0 0 0 0 0 0 0 0 0 0 0
0 18 29 8 0 0 1 0 1 4 11 24 1 0 0 0 0 0 0 0 0 0 0 0 0 0 0 9 16 16 0 0 0 0 0 0 0 0 0 0 0 0 0 0 0 0 0

GFSGBSN_con_mlcape_039.txt.gz
CAPE
5 8 6 13 3 11 5 8 9 16 33 17 36 27 28 79 92 46 41 7 19 34 16 9 12 28 1 0 0 0 0 18 290 197 3 0 0 42 0 22 20 0 0 7 13 1 0
5 7 6 6 5 8 6 14 16 23 25 21 20 16 17 39 3 0 0 5 6 23 42 73 52 81 5 0 6 68 70 62 150 108 46 0 0 36 3 24 19 0 6 0 7 0 0
6 6 7 5 5 5 7 10 14 19 12 11 27 20 17 0 9 0 5 5 23 74 59 61 105 43 5 0 0 6 61 47 93 104 49 35 0 25 25 82 41 12 1 0 0 0 2
4 6 2 4 6 6 2 7 8 16 12 4 14 10 9 2 0 15 31 46 82 136 108 97 65 5 0 0 0 0 1 11 0 15 48 34 17 3 32 27 16 24 8 6 0 0 0
4 5 4 4 6 7 6 7 2 10 17 8 1 18 1 0 0 0 0 7 69 156 140 8 0 0 0 0 0 0 0 3 0 8 33 85 39 8 4 32 28 32 1 0 0 0 0
4 6 7 4 6 5 7 6 2 3 10 20 1 0 11 7 0 0 0 27 61 95 30 6 2 0 0 0 0 0 0 0 36 15 1 31 31 4 11 13 0 0 0 0 0 0 0
4 4 8 6 6 7 7 5 6 3 2 4 19 1 0 0 12 0 0 0 0 0 0 2 0 0 0 0 32 0 8 11 25 19 0 7 39 0 0 0 0 0 0 0 0 0 0
2 4 4 4 4 7 4 11 5 6 5 1 4 9 6 0 4 0 0 0 2 0 0 0 0 0 0 1 17 0 8 2 11 1 0 3 1 0 0 0 0 0 0 0 0 0 0
1 4 5 6 3 1 4 9 15 8 7 7 1 2 8 0 0 0 0 0 2 1 1 5 0 0 9 21 21 7 10 2 3 3 9 1 0 0 0 0 0 0 0 0 0 0 0
1 3 3 5 2 1 4 7 11 7 6 6 5 1 1 3 0 0 0 0 0 0 0 0 3 0 0 0 19 19 0 0 15 0 6 1 0 0 0 0 0 0 0 0 0 0 0
0 1 6 2 7 3 4 4 6 4 3 4 6 2 0 7 0 0 0 0 0 0 0 0 18 12 1 9 2 1 0 0 22 5 4 0 0 0 0 0 0 0 0 0 0 0 0
0 1 6 2 9 1 4 5 6 8 5 1 0 2 1 0 0 0 0 0 0 0 0 0 6 3 6 3 7 3 10 0 2 0 0 0 0 0 4 1 12 3 0 0 0 0 0
0 2 4 5 4 5 3 3 2 2 3 0 0 1 0 0 0 0 0 0 0 0 0 0 2 2 4 8 3 2 1 1 1 0 0 0 0 0 0 0 0 0 0 0 0 0 0
0 3 1 5 5 3 6 3 4 3 2 0 0 0 0 0 0 0 0 1 0 0 1 0 8 1 1 3 2 2 2 1 0 0 2 1 2 0 0 0 0 0 0 0 0 0 0
0 3 0 4 2 4 2 5 4 5 0 0 0 0 0 0 0 0 0 0 0 0 0 1 0 0 0 0 0 3 1 2 2 0 0 0 0 0 0 0 0 0 0 0 0 0 0
1 2 1 3 5 4 6 7 8 2 0 0 0 0 0 0 0 0 0 0 0 0 0 0 0 0 0 0 2 0 1 1 1 0 0 0 0 1 1 0 0 0 0 0 0 0 0
0 1 2 1 6 14 6 9 6 3 0 0 0 0 0 0 0 0 0 0 0 0 0 0 0 0 0 0 0 0 0 0 0 0 0 0 0 1 2 0 0 0 0 0 1 0 0
0 0 0 6 5 12 2 2 4 4 1 0 0 1 0 0 0 0 0 0 0 0 0 0 0 0 0 0 0 0 0 0 0 0 0 0 0 1 0 1 0 0 0 0 3 0 0
0 0 4 8 7 6 1 3 3 1 1 0 0 0 0 0 1 0 0 0 0 0 0 0 0 0 0 0 0 0 0 0 0 0 0 0 0 0 0 0 0 0 0 0 0 0 0
0 0 4 10 5 5 3 4 1 0 0 0 0 0 1 0 0 3 0 0 0 0 0 0 0 0 0 0 0 0 0 0 0 0 0 0 0 0 0 0 0 0 0 0 0 0 0
0 0 5 8 3 5 5 4 1 0 0 0 0 0 0 0 0 0 2 5 6 1 0 0 0 0 0 0 0 0 0 0 0 0 0 0 0 0 0 0 0 0 0 0 0 0 0
0 0 4 1 3 3 3 5 2 0 0 0 0 0 0 0 0 0 0 14 3 0 0 0 0 0 0 0 0 0 0 0 0 0 0 0 0 0 0 0 0 0 0 0 0 0 0
0 0 0 0 0 2 4 4 1 1 0 0 0 0 0 0 0 0 0 0 1 0 1 7 9 3 0 0 0 0 0 0 0 0 0 0 0 0 0 0 0 0 0 0 0 0 0
0 0 0 0 1 6 4 4 4 0 0 0 0 0 0 0 0 0 0 0 0 0 0 0 6 11 0 0 0 0 0 0 0 0 0 0 0 0 0 0 0 0 0 0 0 0 0
0 0 0 0 3 10 1 2 2 0 0 0 0 0 0 0 0 0 0 0 0 0 0 0 9 0 0 0 0 0 0 0 0 0 0 0 0 0 0 0 0 0 0 0 0 0 0
0 0 0 0 2 3 2 1 3 3 0 0 0 0 0 0 0 0 0 0 0 0 1 9 0 0 0 2 7 1 2 0 0 0 0 0 0 0 0 0 0 0 0 0 0 0 0
0 0 2 0 0 0 12 14 10 7 0 0 1 0 0 0 0 0 0 0 0 0 0 0 0 0 0 0 0 4 2 0 0 0 0 2 2 0 1 0 0 0 0 0 0 0 0
0 0 15 8 0 0 7 7 9 13 4 0 0 0 0 0 0 0 0 0 0 0 0 0 0 0 0 4 0 0 0 0 0 0 0 0 0 0 0 0 0 0 0 0 0 0 0
0 3 18 5 2 4 8 9 13 16 18 3 1 0 1 0 0 0 0 0 0 0 0 0 0 0 0 1 2 4 6 0 0 0 0 0 0 0 0 0 0 0 0 0 0 0 0

GFSGBSN_con_mlcape_042.txt.gz
CAPE
6 5 6 7 7 8 12 11 12 26 10 11 10 10 4 4 3 12 27 11 22 20 62 21 12 44 0 0 0 1 31 1 10 83 110 0 11 67 6 0 14 0 4 14 13 20 22
6 4 6 7 8 7 5 4 13 24 6 10 6 8 7 6 3 5 25 34 51 37 58 111 31 9 5 0 0 0 0 0 36 81 107 0 0 62 51 7 32 0 9 31 17 31 30
5 4 6 9 6 8 6 5 10 14 12 4 2 6 3 4 0 0 41 43 37 38 128 86 91 0 0 0 0 0 0 3 81 68 69 20 0 47 0 4 2 2 28 14 0 0 0
3 6 5 7 5 1 7 6 7 15 20 9 0 1 1 0 0 0 0 25 61 93 60 33 26 11 0 0 0 0 0 25 12 50 77 36 0 18 15 0 31 10 1 2 0 0 0
3 5 3 7 3 1 6 7 7 7 13 13 9 0 0 0 0 0 0 0 4 67 53 1 0 0 0 1 0 0 0 0 18 37 44 70 36 16 11 4 13 1 0 0 0 0 0
2 3 5 4 5 7 13 8 6 11 4 4 5 11 2 0 0 0 0 0 0 1 2 1 0 0 0 0 0 0 0 0 18 45 55 58 32 8 0 11 0 0 0 0 0 0 0
2 2 2 4 5 7 5 14 5 13 11 7 1 0 6 6 0 0 0 0 0 0 0 0 0 0 0 0 16 1 6 0 8 43 0 13 0 0 0 0 0 0 0 0 0 0 0
2 3 3 4 4 4 10 11 9 4 19 12 8 2 3 7 0 0 0 0 0 0 0 0 0 0 0 0 6 5 0 0 16 1 2 7 2 0 0 0 0 0 0 0 0 10 9
2 3 3 2 7 4 2 2 3 4 9 6 6 1 3 3 1 0 0 0 0 0 1 0 0 0 6 3 6 1 13 0 18 0 0 1 0 0 0 9 1 0 0 0 0 0 0
1 3 3 2 5 2 4 1 10 11 4 2 10 3 3 2 0 0 0 0 0 0 0 0 6 0 0 2 0 32 42 16 33 10 10 1 1 0 0 0 0 0 0 0 0 0 0
1 3 5 1 8 13 8 8 10 11 10 8 8 3 3 5 0 0 0 0 0 0 0 0 3 3 1 1 1 6 21 0 7 20 0 0 3 0 0 0 0 0 0 0 0 0 0
1 3 4 2 8 2 14 8 8 7 11 6 2 2 1 0 0 0 0 0 0 0 0 0 2 0 0 4 3 22 20 9 3 0 0 1 0 0 1 1 0 0 0 0 0 0 0
1 2 1 1 6 1 4 4 8 7 7 3 0 2 1 0 0 0 0 0 0 0 0 0 5 0 0 0 6 7 0 1 8 0 0 1 1 0 0 20 7 0 0 0 0 0 0
0 3 1 1 0 5 5 5 2 3 2 0 0 0 0 0 0 0 0 0 0 0 0 1 8 5 0 2 4 2 1 1 2 0 1 1 11 0 0 2 1 0 0 0 0 0 0
0 2 1 3 6 5 8 8 5 6 1 0 0 0 0 0 0 0 0 0 0 0 0 0 0 0 0 2 1 3 1 0 0 0 0 0 0 1 0 0 0 0 0 0 0 0 0
0 0 1 5 5 7 5 7 7 6 0 0 0 0 0 0 0 0 0 0 0 0 0 0 0 0 0 1 1 0 3 1 0 0 0 0 0 1 0 0 0 0 0 0 0 0 0
0 0 1 4 4 7 4 5 6 5 0 0 0 0 0 0 0 0 0 0 0 0 0 0 0 0 0 0 0 0 0 1 0 0 0 0 0 0 1 0 0 0 0 0 0 0 0
0 0 4 6 4 5 5 6 5 2 0 0 0 0 0 0 0 0 0 0 0 0 0 0 0 0 0 0 0 0 0 0 0 0 0 0 1 0 0 0 0 0 0 0 0 0 0
0 0 2 5 4 2 3 4 3 0 0 0 0 0 0 0 0 0 0 0 0 0 0 0 0 0 0 0 0 0 0 0 0 0 0 0 0 0 0 0 1 2 0 0 0 0 0
0 0 2 3 6 3 6 2 0 0 0 0 0 0 0 0 0 0 0 0 0 0 0 0 0 0 0 0 0 0 0 0 0 0 0 0 0 0 0 0 0 0 0 0 0 0 0
0 0 1 2 2 5 4 1 0 0 0 0 0 0 0 1 1 0 1 1 2 1 0 0 0 0 0 0 0 0 0 0 0 0 0 0 0 0 0 0 0 0 0 0 0 0 0
0 0 0 1 4 8 3 1 0 0 0 0 0 0 0 0 0 0 0 9 10 1 0 0 0 0 0 0 0 0 0 0 0 0 0 0 0 0 0 0 0 0 0 0 0 0 0
0 0 0 0 5 6 2 1 0 0 0 0 0 0 0 0 0 0 0 0 0 0 0 0 6 2 0 0 0 0 0 0 0 0 0 0 0 0 0 0 0 0 0 0 0 0 0
0 0 0 0 2 5 0 1 1 0 0 0 0 0 0 0 0 0 0 0 0 0 0 0 4 10 0 0 0 0 0 0 0 0 0 0 0 0 0 0 0 0 0 0 0 0 0
0 0 0 0 0 2 2 4 3 0 0 0 0 0 0 0 0 0 0 0 0 0 0 3 0 0 0 0 0 0 0 0 0 0 0 0 0 0 0 0 0 0 0 0 0 0 0
0 0 0 0 0 0 13 4 2 0 0 0 0 0 0 0 0 0 0 0 0 0 0 5 0 0 0 0 4 0 0 0 0 0 0 0 0 0 0 0 0 0 0 0 0 0 0
0 0 0 0 0 1 5 5 8 0 0 0 0 0 0 0 0 0 0 0 0 0 0 0 0 0 0 0 0 0 0 0 0 0 0 1 1 0 1 1 0 0 0 0 0 0 0
0 0 0 5 1 8 7 10 27 3 0 0 0 0 0 0 0 0 0 0 0 0 0 0 0 0 0 0 0 0 0 0 0 0 0 0 0 0 1 1 0 0 0 0 0 0 0
0 0 0 4 4 6 14 12 33 22 8 0 0 0 3 0 0 0 0 0 0 0 0 0 0 0 0 0 1 0 5 0 0 0 0 0 0 0 0 0 0 0 0 0 0 0 0

GFSGBSN_con_mlcape_045.txt.gz
CAPE
5 5 3 4 5 7 5 15 14 29 12 6 7 6 4 2 4 8 15 31 77 70 102 48 44 106 8 4 0 0 0 0 3 0 36 0 0 16 6 38 46 4 2 8 2 0 5
3 3 4 5 7 8 6 8 10 21 36 10 9 10 4 3 2 6 17 10 33 42 63 62 36 11 3 1 0 0 0 0 1 2 55 0 0 14 33 30 90 3 7 12 1 0 2
4 3 3 2 3 5 6 7 10 9 17 20 12 4 8 8 0 0 0 7 21 69 88 94 0 6 11 0 0 0 0 26 5 18 77 10 4 29 16 17 14 0 25 30 5 1 5
5 3 1 4 5 8 8 21 9 13 8 17 19 20 4 4 2 0 0 0 0 18 16 20 31 9 0 0 0 0 0 57 70 94 58 27 0 24 15 0 49 15 9 19 7 11 21
4 2 3 3 6 4 6 9 21 29 8 6 4 16 27 2 3 0 0 0 0 1 17 0 0 0 0 1 0 0 0 27 54 48 40 12 15 34 3 4 0 13 0 0 0 0 0
2 2 4 6 5 6 7 3 6 13 35 5 8 5 11 15 13 0 0 0 0 0 0 0 0 0 0 0 0 0 0 8 52 0 51 42 34 17 3 4 0 0 0 0 0 0 0
1 2 4 3 2 1 11 13 18 15 13 12 8 4 2 7 5 6 0 0 0 0 0 0 0 0 0 0 0 1 0 0 0 26 1 22 0 0 0 0 0 0 0 0 0 0 0
1 3 4 1 3 8 7 11 17 7 10 9 11 8 2 3 1 1 0 0 0 0 0 0 0 0 0 0 0 0 0 3 6 1 0 2 0 0 0 2 0 0 0 0 0 0 1
1 3 5 1 3 12 1 11 14 13 7 6 8 12 1 3 3 0 0 0 0 0 0 0 0 0 11 2 1 0 0 0 0 1 0 0 1 0 4 19 2 0 0 0 0 0 0
1 2 3 2 3 11 13 10 5 6 6 7 7 6 2 4 0 0 0 0 0 0 0 0 2 1 0 1 0 29 0 0 8 0 3 0 1 0 1 27 1 0 0 0 0 0 0
0 1 3 4 4 7 11 0 7 2 8 9 6 5 2 6 0 0 0 0 0 0 0 0 2 1 0 6 0 6 10 0 3 2 0 1 1 0 0 0 0 0 0 0 0 0 0
0 1 2 3 5 7 7 7 2 11 3 7 3 2 2 1 1 0 0 0 0 0 0 0 1 1 2 7 0 6 0 18 6 2 0 2 0 0 0 0 0 0 0 0 0 0 0
0 0 2 3 6 4 2 4 2 3 11 6 1 3 1 0 0 0 0 0 0 0 0 0 0 0 0 5 4 11 1 0 1 1 0 1 1 0 0 5 0 0 0 3 1 0 0
0 0 1 2 2 5 2 3 3 2 7 5 0 0 1 0 0 0 0 0 0 0 0 0 0 0 0 0 2 0 1 2 1 0 0 0 0 0 0 0 0 0 0 0 0 0 0
0 0 0 2 1 5 10 2 1 4 5 5 0 0 0 0 0 0 0 0 0 0 0 0 1 0 0 10 1 2 1 2 0 0 0 0 0 0 0 0 0 0 0 0 0 0 0
0 0 0 2 3 6 2 3 1 5 2 2 0 0 0 0 0 0 0 0 0 0 0 0 0 0 0 3 2 7 1 0 0 0 0 0 0 0 0 0 0 0 0 0 0 0 0
0 0 1 2 2 5 2 4 7 4 0 0 0 0 0 0 0 0 0 0 0 0 0 0 0 0 0 0 0 0 0 0 4 0 0 0 0 1 0 1 0 0 0 0 0 0 0
0 0 0 3 1 3 4 5 5 4 0 0 0 0 0 0 0 0 0 0 0 0 0 0 0 0 0 0 0 0 0 0 1 0 0 0 0 0 0 0 0 0 0 0 0 0 0
0 0 0 1 1 3 3 2 2 1 0 0 0 0 0 0 0 0 0 0 0 0 0 0 0 0 0 0 0 0 0 0 1 0 0 0 0 0 2 3 0 0 0 0 0 0 0
0 0 0 0 2 2 1 0 1 0 0 0 0 0 0 1 0 0 0 0 0 0 0 0 0 0 0 0 0 0 0 0 0 0 0 0 0 0 0 0 0 1 2 0 0 0 0
0 0 0 0 2 1 1 0 0 0 0 0 0 0 0 0 0 0 0 0 3 0 0 0 0 0 0 0 0 0 0 0 0 0 0 0 0 0 0 0 0 0 0 0 0 0 0
0 0 0 1 2 0 0 0 0 0 0 0 0 0 0 0 0 0 8 4 4 2 0 0 0 0 0 0 0 0 0 0 0 0 0 0 0 0 0 0 0 0 0 0 0 0 0
0 0 0 0 0 0 0 1 0 0 0 0 0 0 0 0 0 1 0 0 0 1 3 7 8 1 0 0 0 0 0 0 0 0 0 0 0 0 0 0 0 0 0 0 0 0 0
0 0 0 0 0 0 0 0 0 1 0 0 0 0 0 0 0 0 0 0 0 0 0 0 4 6 0 0 0 0 0 0 0 0 0 0 0 0 0 0 0 0 0 0 0 0 0
0 0 0 0 0 0 0 0 0 2 0 0 0 0 0 0 0 0 0 0 0 0 0 0 0 0 0 0 0 0 0 0 0 0 0 0 0 0 0 0 0 0 0 0 0 0 0
0 0 0 0 0 0 0 0 0 0 0 0 0 0 0 0 0 0 0 0 0 0 0 0 0 0 0 0 3 0 0 0 0 0 0 0 0 0 0 0 0 0 0 0 0 0 0
0 0 0 0 0 0 0 0 0 0 0 0 0 0 0 0 0 0 0 0 0 0 0 0 0 0 0 0 1 0 0 0 0 0 0 0 1 0 0 1 0 0 0 0 0 0 0
0 0 0 0 0 0 0 0 0 0 0 0 0 0 0 0 0 0 0 0 0 0 0 0 0 0 0 0 0 0 0 0 0 0 0 0 0 0 0 0 0 0 0 0 0 0 0
0 0 0 0 0 0 0 0 0 0 0 0 0 0 0 0 0 0 0 0 0 0 0 0 0 0 0 0 0 0 0 0 0 0 0 0 0 0 0 0 0 0 0 0 0 0 0

GFSGBSN_con_mlcape_048.txt.gz
CAPE
4 3 3 4 5 7 6 9 6 4 11 30 7 4 5 9 6 6 13 8 7 48 86 47 85 145 21 4 4 0 0 0 0 1 15 4 0 0 1 18 17 34 0 0 8 1 4
5 4 1 6 7 11 4 9 9 3 7 22 31 4 5 4 9 3 2 1 0 27 35 49 34 27 19 0 0 0 0 2 0 6 7 4 1 0 12 15 34 10 16 21 29 8 7
2 4 4 6 4 1 4 10 25 23 13 3 17 15 16 7 11 5 4 0 0 0 23 54 7 0 16 10 2 0 0 4 5 4 80 1 3 10 32 20 30 47 54 50 29 1 6
0 4 2 4 1 12 9 6 5 7 17 24 7 10 19 37 5 5 0 29 0 0 1 0 11 0 0 0 0 0 0 35 0 18 108 36 0 28 19 10 27 54 68 62 25 0 8
0 4 3 4 5 2 12 22 18 17 19 15 18 5 7 14 25 5 2 29 0 0 0 0 0 0 0 0 1 0 0 41 45 30 82 80 1 24 8 3 11 15 2 3 4 0 0
0 2 3 5 4 9 17 18 25 21 21 23 20 11 3 10 14 18 2 0 0 0 0 0 0 0 0 0 0 0 0 2 33 26 21 31 17 7 23 8 0 0 0 0 0 0 0
1 1 4 5 2 9 17 19 20 28 33 15 9 12 2 10 5 11 0 0 0 0 0 0 0 0 0 0 25 0 0 0 24 12 0 0 2 3 6 5 0 0 0 0 0 0 0
0 2 3 3 6 12 7 9 21 29 32 18 3 12 3 1 5 10 0 0 0 0 0 0 0 0 0 0 0 0 0 2 10 5 0 0 0 2 25 5 2 0 0 0 0 0 0
0 2 4 3 3 4 13 11 12 21 23 19 16 10 2 6 4 0 0 0 0 0 0 0 0 0 0 1 0 0 0 1 2 0 0 1 0 11 26 11 2 0 0 0 0 0 0
0 1 4 3 6 4 6 13 11 20 27 18 10 5 9 6 0 0 0 0 0 0 0 0 0 0 0 0 0 8 0 24 7 0 1 1 0 2 21 27 4 0 0 0 0 0 0
0 0 2 1 2 6 3 6 12 15 14 12 3 3 1 9 0 0 0 0 0 0 0 0 0 0 0 11 0 3 0 1 0 0 1 0 1 0 0 26 15 0 0 0 0 0 0
0 0 1 0 0 5 3 9 17 13 14 9 6 2 4 1 1 0 0 0 0 0 0 0 0 0 0 4 2 5 3 0 14 4 2 2 0 8 0 1 0 0 0 0 0 0 0
0 0 0 0 1 3 3 12 4 7 5 1 1 3 2 0 0 0 0 0 0 0 0 0 0 0 1 0 1 1 0 0 1 0 0 1 0 0 0 3 0 0 0 0 0 0 0
0 0 0 1 1 2 3 4 2 4 4 1 1 0 1 0 0 0 0 0 0 0 0 1 1 0 1 0 0 0 0 1 0 0 0 0 1 0 0 0 1 0 0 0 0 0 0
0 0 0 0 3 3 1 2 1 9 5 3 0 0 0 0 0 0 0 0 0 0 0 1 1 0 0 7 0 1 0 0 0 0 0 0 0 0 0 0 0 0 0 0 0 0 0
0 0 0 1 3 4 2 1 2 7 3 0 0 0 0 0 0 0 0 0 0 0 0 0 0 0 0 8 0 0 0 0 0 0 0 0 0 1 0 0 0 0 0 0 0 0 0
0 0 0 1 2 4 2 5 6 2 0 0 0 1 0 0 0 0 0 0 0 0 0 0 0 0 0 1 1 3 0 0 0 0 0 0 0 0 1 0 0 0 0 0 0 0 0
0 0 0 1 1 1 2 3 2 0 0 0 0 0 0 0 0 0 0 0 0 0 0 0 0 0 0 0 2 0 0 0 0 0 0 0 0 0 0 0 0 0 0 0 0 0 0
0 0 0 0 0 0 2 2 0 0 0 0 0 0 0 0 0 0 0 0 0 0 0 0 0 0 0 0 0 0 0 0 0 0 0 0 0 0 0 0 0 1 0 0 0 0 0
0 0 0 0 0 0 0 0 0 0 0 0 0 0 0 1 0 0 0 0 0 0 0 0 0 0 0 0 0 0 0 0 0 1 0 0 0 0 0 0 0 0 0 0 0 3 1
0 0 0 0 0 0 1 0 0 0 0 0 0 0 0 0 0 0 0 0 0 0 0 0 0 0 0 0 0 0 0 0 0 1 0 0 0 0 0 0 0 0 0 0 0 0 0
0 0 0 0 0 0 1 0 0 0 0 0 0 0 0 0 0 0 0 0 0 2 0 0 0 0 0 0 0 0 0 0 0 0 0 0 0 0 0 0 0 0 0 0 0 0 1
0 0 0 0 0 0 0 0 0 0 0 0 0 0 0 0 0 4 0 0 0 0 0 12 11 2 0 0 0 0 0 0 0 0 0 0 0 0 0 0 0 0 0 0 0 0 0
0 0 0 0 0 0 0 0 0 0 0 0 0 0 0 0 0 0 0 0 0 0 3 1 5 5 0 0 0 0 0 0 0 0 0 0 0 0 0 0 0 0 0 0 0 0 0
0 0 0 0 0 0 0 0 0 0 0 0 0 0 0 0 0 0 0 0 0 0 1 2 0 0 0 0 0 0 0 0 0 0 0 0 0 0 0 0 0 0 0 0 0 0 0
0 0 0 0 0 0 0 0 0 0 0 0 0 0 0 0 0 0 0 0 0 0 0 0 0 0 0 1 0 0 0 0 0 0 0 0 0 0 0 0 0 0 0 0 0 0 0
0 0 0 0 0 0 0 0 0 0 0 0 0 0 0 0 0 0 0 0 0 0 0 0 0 0 0 0 0 0 0 0 0 0 0 0 1 0 0 1 0 0 0 0 0 0 0
0 0 0 0 0 0 0 0 0 0 0 0 0 0 0 0 0 0 0 0 0 0 0 0 0 0 0 0 0 0 0 0 0 0 0 0 0 0 0 0 0 0 0 0 0 0 0
0 0 0 0 0 0 0 0 0 0 0 0 0 0 0 0 0 0 0 0 0 0 0 0 0 0 0 0 0 0 0 0 0 0 0 0 0 0 0 0 0 0 0 0 0 0 0

GFSGBSN_con_mlcape_051.txt.gz
CAPE
1 4 2 4 5 5 11 12 20 13 12 6 22 27 16 1 11 3 1 13 10 9 1 48 69 64 12 0 0 1 1 0 0 6 2 6 0 11 0 8 16 4 2 15 24 1 0
2 5 3 4 4 7 5 9 5 7 21 30 4 16 22 17 5 7 6 4 8 3 1 5 1 23 21 2 0 0 0 0 0 4 6 7 0 0 7 14 8 9 26 26 39 3 1
4 2 5 4 1 8 12 14 16 14 18 22 34 4 14 11 37 2 8 16 3 0 0 0 25 1 21 0 0 0 0 0 2 6 12 1 2 4 10 8 28 40 23 48 22 21 6
3 3 5 5 3 6 8 16 24 28 24 25 25 23 5 10 11 26 2 13 1 0 0 0 0 0 0 0 1 2 0 0 5 30 49 11 0 6 23 7 7 0 20 17 26 16 12
2 2 5 4 4 8 7 21 16 31 39 31 28 22 9 12 14 21 21 10 0 0 0 0 0 0 0 0 1 0 0 37 35 12 65 38 27 16 19 1 3 23 0 5 53 16 6
2 1 3 2 3 6 11 16 18 34 34 32 22 24 16 9 11 7 17 0 0 0 0 0 0 0 0 0 0 1 0 35 7 6 13 73 8 5 1 6 0 0 3 0 1 10 11
2 0 1 1 3 3 8 3 16 26 31 24 21 21 20 7 10 8 1 0 0 0 0 0 0 0 0 0 27 0 0 10 10 5 6 4 3 0 0 1 0 0 6 2 0 9 3
2 0 0 1 2 4 3 6 22 20 24 27 26 20 17 1 9 6 0 0 0 0 0 0 0 0 0 0 0 0 0 2 40 0 2 1 0 0 0 1 0 0 0 1 0 0 15
3 0 0 1 1 2 3 10 12 18 20 22 21 16 14 2 11 1 0 0 0 0 0 0 0 0 0 0 0 0 0 2 2 0 0 0 0 1 0 9 11 0 0 0 0 0 1
1 0 0 1 0 2 3 6 12 25 17 19 17 14 11 4 0 0 0 0 0 0 0 0 0 0 0 0 0 4 0 2 2 0 0 0 0 0 14 7 11 2 0 0 0 0 0
1 0 0 0 0 2 3 6 16 18 14 15 10 7 5 7 0 0 0 0 0 0 0 0 1 0 2 10 1 0 0 4 0 0 0 0 6 2 8 3 3 0 0 0 0 0 0
0 0 0 0 0 3 4 6 10 14 13 4 4 2 4 1 0 0 0 0 0 0 0 1 0 0 0 3 8 3 1 2 14 0 1 1 0 0 0 0 0 0 0 0 0 0 0
0 0 0 0 0 3 2 3 7 6 5 2 1 3 1 0 0 0 0 0 0 0 0 0 1 0 0 0 2 2 3 0 0 0 0 2 12 0 0 3 0 0 0 0 1 0 0
0 0 0 0 0 2 2 5 2 3 5 1 1 1 0 0 0 0 0 0 0 0 0 0 0 0 3 0 0 0 10 2 0 0 0 0 2 0 0 9 5 0 0 0 0 0 0
0 0 0 0 1 1 2 1 2 4 4 1 0 0 0 0 0 0 0 0 0 0 1 0 0 0 0 1 0 0 0 0 0 0 0 0 0 0 0 0 1 1 0 0 0 0 0
0 0 0 0 1 0 1 2 1 3 0 0 0 0 0 0 0 0 0 0 0 0 1 0 0 0 0 0 0 0 0 0 0 0 0 0 0 1 0 0 0 2 0 0 0 0 0
0 0 0 0 0 0 2 2 1 1 0 0 0 0 0 0 0 0 0 0 0 0 0 0 0 0 0 0 0 0 0 0 1 0 0 0 0 1 1 5 0 0 0 0 0 0 0
0 0 0 0 0 0 1 1 0 0 0 0 0 0 0 0 0 0 0 0 0 0 0 0 0 0 0 0 0 0 0 0 0 0 0 0 0 0 0 4 0 0 0 0 0 0 0
0 0 0 0 0 0 1 0 0 0 0 0 0 0 0 0 0 0 0 0 0 0 0 0 0 0 0 0 0 0 0 0 0 0 0 0 0 0 0 1 0 2 0 0 0 0 0
0 0 0 0 0 0 0 0 0 0 0 0 0 0 0 1 0 0 0 0 0 0 0 0 0 0 0 0 0 0 0 0 0 0 0 0 0 0 0 0 0 0 0 0 0 0 0
0 0 0 0 0 0 0 0 0 0 0 0 0 0 0 0 0 0 0 0 0 0 0 0 0 0 0 0 0 0 0 0 0 0 0 0 0 0 0 0 0 0 0 0 0 0 0
0 0 0 0 0 0 0 0 0 0 0 0 0 0 0 0 0 0 0 0 0 0 0 0 0 0 0 0 0 0 0 0 0 0 0 0 0 0 0 0 0 0 0 0 0 0 0
0 0 0 0 0 0 0 0 0 0 0 0 0 0 0 0 0 0 0 0 0 0 1 3 7 0 0 0 0 0 0 0 0 0 0 0 0 0 0 0 0 0 0 0 0 0 0
0 0 0 0 0 0 0 0 0 0 0 0 0 0 0 0 0 0 0 0 0 0 0 0 3 3 0 0 0 0 0 0 0 0 0 0 0 0 0 0 0 0 0 0 0 0 0
0 0 0 0 0 0 0 0 0 0 0 0 0 0 0 0 0 0 0 0 0 0 0 0 0 0 0 0 0 0 0 0 0 0 0 0 0 0 0 0 0 0 0 0 0 0 0
0 0 0 1 0 0 0 0 0 0 0 0 0 0 0 0 0 0 0 0 0 0 0 0 0 0 0 0 0 0 0 0 0 0 0 0 0 0 0 0 0 0 0 0 0 0 0
0 0 0 0 0 0 0 0 0 0 0 0 0 0 0 0 0 0 0 0 0 0 0 0 0 0 0 0 1 0 0 0 0 0 0 0 0 0 1 0 0 0 0 0 0 0 0
0 0 0 0 0 0 0 0 0 0 0 0 0 0 0 0 0 0 0 0 0 0 0 0 0 0 0 0 0 0 0 0 0 0 0 0 0 0 0 0 0 0 0 0 0 0 0
0 0 0 0 0 0 0 0 0 0 0 0 0 0 0 0 0 0 0 0 0 0 0 0 0 0 0 0 0 0 0 0 0 0 0 0 0 0 0 0 0 0 0 0 0 0 0

GFSGBSN_con_mlcape_054.txt.gz
CAPE
4 0 7 6 3 6 1 8 9 10 12 10 41 2 4 24 7 5 6 4 3 4 7 0 4 47 44 17 6 0 1 0 7 28 34 37 33 12 1 32 39 10 0 8 8 5 33
2 2 3 4 0 4 6 6 16 24 24 28 30 34 1 10 21 21 4 3 7 0 0 3 5 0 59 3 0 0 0 0 11 7 19 44 11 11 12 17 8 21 39 2 1 3 1
2 2 0 1 2 0 2 4 14 22 34 26 38 26 19 9 12 19 5 0 17 0 0 0 0 0 30 4 0 0 0 0 1 17 22 28 26 15 15 23 21 70 74 73 53 8 0
4 1 1 2 2 2 2 10 22 22 40 35 42 35 20 11 8 20 21 2 10 0 0 0 0 0 0 0 1 16 0 0 0 2 47 12 32 40 39 27 25 50 51 33 59 99 26
2 3 1 1 0 1 3 7 17 20 39 35 33 26 21 15 9 17 4 11 0 0 0 0 0 0 1 1 0 1 0 14 12 17 52 15 40 4 39 19 15 38 6 13 64 67 40
4 1 2 1 1 0 2 9 15 26 29 25 28 29 27 13 8 12 0 0 0 0 0 0 0 0 0 0 0 0 3 38 21 21 28 17 19 0 7 12 1 0 9 23 27 8 20
4 3 2 1 0 1 3 3 11 23 23 29 32 23 18 17 4 11 0 0 0 0 0 0 0 0 0 1 9 7 0 24 22 31 24 16 3 2 0 3 0 13 15 26 5 21 11
4 4 0 1 1 0 1 3 8 10 20 22 23 15 15 12 4 17 0 0 0 0 0 0 0 0 0 19 10 9 2 0 8 14 2 1 0 8 6 2 1 5 13 6 9 8 6
6 3 1 0 0 0 0 0 3 9 25 20 21 15 17 10 3 3 0 0 0 0 0 0 0 0 7 14 7 5 1 0 8 4 1 2 0 8 5 13 0 3 1 9 10 15 23
6 3 1 0 0 0 0 0 4 12 12 15 13 12 11 4 0 0 0 0 0 0 0 0 0 1 14 26 5 5 8 1 7 7 0 0 1 7 2 6 1 0 0 0 0 0 0
5 3 0 0 0 0 0 0 5 9 9 11 8 11 8 3 0 0 0 0 0 0 1 0 0 0 0 18 1 1 7 5 4 4 0 0 6 8 10 5 1 0 0 0 0 0 2
3 1 0 0 0 0 0 0 4 7 9 7 7 5 4 1 1 0 0 0 0 0 0 0 0 0 2 14 6 2 16 23 8 0 0 1 3 0 5 0 0 0 0 0 4 15 1
3 0 0 0 0 0 0 0 3 1 5 3 2 1 0 0 1 0 0 0 0 0 0 0 0 0 0 3 3 1 15 1 0 0 8 2 2 0 1 0 0 0 7 3 4 4 1
3 0 0 0 0 0 0 0 2 4 6 2 1 2 0 0 0 0 0 0 0 0 2 0 0 0 1 0 0 4 3 0 1 0 0 0 0 1 0 0 0 2 2 0 0 0 1
2 0 0 0 0 0 0 0 0 3 3 2 0 0 0 0 0 0 0 0 0 0 0 0 0 0 0 2 0 0 1 5 7 0 0 0 0 0 0 0 1 0 3 0 0 0 0
2 0 0 0 0 0 0 0 0 2 0 0 0 0 0 0 0 0 0 0 0 0 0 0 0 0 0 0 0 0 0 3 0 0 0 0 1 17 0 1 1 7 0 0 0 0 0
2 0 0 0 0 0 0 0 0 1 0 0 0 0 0 0 0 0 0 0 0 0 1 0 1 1 2 0 0 0 0 0 0 0 0 0 0 6 14 32 10 0 0 0 1 0 0
2 0 0 0 0 0 0 0 0 0 0 0 0 0 0 0 3 0 0 0 0 0 0 1 0 2 3 0 0 0 0 0 0 0 0 0 2 1 0 0 0 0 3 1 4 0 0
2 0 0 0 0 0 0 0 0 0 0 0 0 0 0 0 1 0 0 0 0 0 0 0 0 0 0 0 0 0 0 0 0 0 0 0 0 0 0 0 0 2 0 0 0 0 0
3 0 0 0 0 0 0 0 0 0 0 0 0 0 0 1 0 0 0 0 0 0 0 0 0 0 0 0 0 0 1 0 0 0 0 0 0 0 0 0 0 0 1 0 0 0 0
4 0 0 0 0 0 0 0 0 0 0 0 0 0 0 0 0 0 0 0 0 0 0 0 0 0 0 0 0 0 0 0 0 0 0 0 0 0 0 0 0 0 0 0 0 0 0
3 0 0 0 0 0 0 0 0 0 0 0 0 0 0 0 0 0 0 0 0 0 0 0 0 0 0 0 0 0 0 0 1 0 0 0 0 0 0 0 0 0 0 0 0 0 0
6 0 0 0 0 0 0 0 0 0 0 0 0 0 0 0 0 0 0 0 0 0 0 0 0 0 0 0 0 0 0 0 0 0 0 0 0 0 0 0 0 0 0 0 0 0 0
5 1 0 0 0 0 0 0 0 0 0 0 0 0 0 0 0 0 0 0 0 0 0 0 0 4 0 0 0 0 0 0 0 0 0 0 0 0 0 0 0 0 0 0 0 0 0
2 2 0 0 0 0 0 0 0 0 0 0 0 0 0 0 0 0 0 0 0 0 0 0 0 0 0 0 0 0 0 0 0 0 0 0 0 0 0 0 0 0 0 0 0 0 0
3 3 0 0 0 0 0 0 0 0 0 0 0 0 0 0 0 0 0 0 0 0 0 0 0 0 0 0 1 0 0 0 0 0 0 0 0 0 0 0 0 0 0 0 0 2 0
4 1 1 0 0 0 0 0 0 0 0 0 0 0 0 0 0 0 0 0 0 0 0 0 0 0 0 1 1 0 0 0 0 0 0 2 3 0 1 1 0 0 0 0 0 0 0
0 4 1 0 0 0 0 0 0 0 0 0 0 0 0 0 0 0 0 0 0 0 0 0 0 0 0 0 0 0 0 0 0 0 0 1 2 2 0 1 0 0 0 0 0 0 0
0 2 0 0 1 0 0 0 0 0 0 0 0 0 0 0 0 0 0 0 0 0 0 0 0 0 0 0 0 1 1 0 0 0 0 3 0 0 0 0 0 0 0 0 0 0 0

GFSGBSN_con_mlcape_057.txt.gz
CAPE
4 2 0 1 1 2 1 3 5 15 22 22 24 38 22 1 8 11 6 3 15 1 0 0 0 0 49 58 32 42 0 18 27 12 68 46 75 71 18 0 0 51 92 75 16 40 69
4 5 2 1 1 5 4 7 5 11 7 14 40 35 23 14 2 6 23 0 5 21 0 0 0 0 53 19 14 0 0 0 30 0 26 68 55 87 39 51 1 3 49 94 93 57 42
3 3 3 1 2 2 4 7 6 20 10 17 40 29 21 22 8 3 18 33 4 17 0 0 0 0 6 15 4 9 0 0 30 3 2 16 68 58 14 24 47 14 0 43 12 8 4
4 4 2 2 0 3 6 5 9 12 10 16 25 27 25 18 7 1 17 15 20 4 0 0 0 0 10 0 4 15 10 4 4 0 6 0 8 19 35 46 103 27 32 9 0 0 5
7 7 4 3 2 1 5 3 7 12 16 18 19 24 32 13 16 2 13 2 11 0 0 0 0 0 13 0 0 1 2 11 18 13 18 9 45 18 60 41 25 43 1 4 21 3 16
33 9 4 3 2 0 4 6 4 10 13 14 24 24 20 14 15 4 11 0 0 0 0 0 0 2 1 8 0 0 12 0 37 30 12 29 15 25 25 28 3 12 1 2 5 16 31
8 12 3 3 2 1 2 4 4 8 4 13 20 21 16 18 14 5 3 2 1 0 0 0 0 0 0 19 17 4 15 61 30 19 5 3 3 10 1 0 0 1 0 17 26 24 33
3 32 4 3 2 0 0 1 4 4 2 23 14 18 18 16 10 8 4 2 0 0 0 0 0 0 0 30 13 3 10 0 15 9 4 2 0 25 14 5 0 5 0 14 19 64 35
9 35 5 3 2 0 0 0 4 4 10 10 10 13 11 13 5 3 4 0 0 0 3 3 0 0 3 41 13 18 19 3 11 18 12 0 0 0 9 8 0 17 1 15 18 35 23
17 6 5 2 1 0 0 0 2 5 5 7 5 10 12 7 0 2 0 0 0 0 1 1 11 5 14 26 18 0 2 0 3 7 12 0 3 0 23 8 11 2 14 27 25 12 0
17 2 4 1 0 0 0 0 2 4 4 6 5 12 10 5 0 1 0 0 0 0 8 1 7 0 11 27 2 9 7 0 4 8 0 0 3 3 10 9 5 11 0 5 17 20 4
34 3 4 1 0 0 0 0 1 3 4 5 5 6 5 1 2 2 0 0 2 0 0 0 7 3 6 16 9 1 10 11 8 5 0 1 2 7 10 14 14 0 1 3 6 5 0
0 5 3 1 0 0 0 0 0 2 3 2 1 2 0 0 1 0 0 2 0 1 0 0 3 5 6 1 0 1 6 5 5 1 0 1 1 1 2 5 0 13 10 4 2 2 2
0 5 3 1 0 0 0 0 0 0 1 1 0 1 0 1 0 0 2 0 0 1 0 1 2 1 6 0 0 2 1 2 4 12 0 0 0 3 1 4 0 0 9 0 0 0 0
1 3 5 1 0 0 0 0 0 1 0 0 0 1 2 0 0 1 1 0 1 1 3 0 0 4 3 1 1 6 0 15 15 11 5 1 0 0 3 0 0 0 1 0 0 0 0
0 6 5 1 0 0 0 0 0 1 0 0 0 2 3 0 0 8 3 1 2 0 2 0 3 1 5 2 4 2 4 4 2 0 0 0 0 8 0 0 0 12 0 0 0 0 0
0 6 5 2 0 0 0 0 0 0 0 0 1 11 1 0 3 6 2 3 0 1 0 0 1 1 3 0 2 0 1 2 0 0 0 7 1 8 3 11 8 0 0 10 9 0 2
3 7 5 0 0 0 0 0 0 0 0 0 9 1 0 0 3 4 0 2 0 1 9 3 4 5 3 0 0 1 4 7 9 3 2 0 3 0 0 1 0 2 12 12 4 0 0
3 8 5 1 0 0 0 0 0 0 0 0 1 1 0 2 5 4 0 0 1 1 1 3 0 1 0 5 0 6 9 0 4 3 0 0 1 1 0 0 0 1 0 0 7 6 7
5 6 4 3 0 0 0 0 0 0 0 0 9 0 2 3 1 3 8 7 2 0 0 0 0 0 0 2 0 2 6 0 0 2 0 0 0 2 0 0 0 0 0 0 0 0 0
6 6 4 5 0 0 0 0 0 0 0 0 0 3 0 0 0 2 0 6 5 3 0 0 0 0 0 1 4 2 1 3 1 0 0 1 0 0 0 0 0 0 0 0 3 0 2
6 6 5 5 0 0 0 0 0 0 0 0 0 0 0 3 0 2 0 8 8 0 7 0 0 0 0 4 0 3 1 6 1 1 2 0 0 0 0 0 0 0 0 0 9 6 8
6 6 5 2 0 0 0 0 0 0 0 0 0 0 0 0 0 10 4 0 0 2 3 2 2 5 0 0 0 0 0 2 3 4 11 8 0 0 2 0 0 0 0 0 0 0 0
7 6 5 2 0 0 0 0 0 0 0 0 0 0 0 0 1 5 0 0 0 0 0 0 0 11 0 0 0 0 0 0 0 0 4 7 2 0 0 0 0 0 0 0 0 0 0
6 6 6 3 1 0 0 0 0 0 0 0 0 0 0 0 0 0 0 0 0 0 0 0 0 0 0 0 0 1 3 1 0 0 0 0 2 0 0 0 0 0 0 0 0 0 0
5 6 7 1 0 0 0 0 0 0 0 0 0 0 0 0 0 0 0 0 7 2 0 0 0 0 0 11 13 12 4 5 0 0 0 0 0 0 0 0 0 0 0 0 0 0 0
6 7 5 1 0 0 0 0 0 0 0 0 0 0 0 0 0 0 0 0 0 0 2 0 0 0 0 18 25 10 6 0 3 5 0 4 8 1 2 4 1 0 0 0 0 0 0
6 6 9 0 0 0 0 0 0 0 0 0 0 0 0 0 0 0 0 0 0 0 1 0 0 0 0 8 10 3 5 1 0 0 3 4 4 3 3 4 0 0 0 0 0 0 0
6 6 6 0 0 0 0 0 0 0 0 0 0 0 0 0 0 0 0 0 0 0 0 0 0 0 0 0 0 0 0 0 0 2 0 0 0 1 0 0 0 0 0 0 0 0 0

GFSGBSN_con_mlcape_060.txt.gz
CAPE
3 7 7 3 0 0 0 0 2 6 14 13 4 29 25 16 14 0 4 28 1 13 2 0 0 0 0 41 38 59 19 35 62 44 9 80 150 85 25 2 114 75 28 117 114 37 0
4 3 6 5 2 0 0 0 0 12 14 15 10 23 17 12 26 7 3 13 23 0 23 0 0 0 15 14 12 16 6 0 62 45 11 46 81 96 43 46 51 9 20 39 41 42 59
22 10 4 7 3 1 1 2 1 9 16 18 9 9 20 24 32 8 0 14 18 8 3 0 0 0 3 10 0 10 6 0 15 24 8 4 2 38 33 35 72 0 3 2 35 35 14
10 18 30 5 4 3 0 2 2 8 19 15 10 10 21 26 25 20 0 11 1 8 1 0 0 0 3 0 0 15 20 8 2 41 0 0 0 3 21 54 19 2 0 1 15 18 6
1 11 18 25 5 1 0 1 6 12 12 13 5 16 20 18 22 20 0 6 0 0 0 0 0 11 9 0 0 0 2 3 5 27 0 3 2 47 23 32 14 3 0 0 6 21 9
0 3 13 9 2 3 1 2 8 9 11 6 2 19 17 18 20 14 0 0 0 0 0 0 0 0 3 12 0 3 19 6 12 29 9 3 13 13 18 30 0 12 0 0 0 1 6
0 2 0 14 3 4 2 1 7 3 7 0 12 12 14 18 20 9 0 0 0 0 0 0 0 0 0 8 6 15 38 4 25 15 0 1 0 0 0 0 0 0 0 0 0 8 14
0 23 0 9 5 4 2 2 2 1 3 7 8 11 9 9 12 0 5 1 1 0 2 0 0 0 0 7 28 44 3 0 2 1 2 0 0 0 0 18 2 25 4 0 22 45 27
0 25 17 11 6 3 1 1 0 1 3 3 8 6 6 6 8 0 0 4 0 0 9 0 0 0 0 19 9 16 1 0 2 1 1 0 2 5 5 10 1 0 1 0 27 53 41
32 22 31 6 6 2 0 0 0 0 3 1 7 4 5 5 0 0 0 0 0 0 1 0 4 2 5 2 2 0 0 0 7 1 3 0 0 0 0 0 5 25 14 89 33 18 0
68 13 33 4 5 3 0 0 0 0 0 2 3 2 6 6 0 0 0 0 0 0 5 0 0 0 1 11 0 4 8 1 2 5 0 0 0 0 1 6 15 27 20 6 30 37 4
9 36 30 2 5 1 0 0 0 0 0 0 0 3 4 0 0 0 0 0 0 0 0 0 0 0 4 6 0 6 2 0 8 0 0 4 1 2 2 8 2 0 13 1 0 0 0
0 63 20 2 5 2 0 0 0 0 0 0 0 0 0 1 5 0 0 0 1 1 0 0 0 1 8 0 0 2 2 2 4 1 0 1 1 0 0 5 6 0 0 0 0 0 0
2 37 19 2 5 4 0 0 0 0 0 0 0 0 0 0 0 0 0 1 0 0 4 0 0 0 11 3 0 5 0 0 0 0 0 0 0 1 4 9 1 2 0 0 0 0 0
12 3 27 3 5 4 0 0 0 0 0 0 0 0 0 0 0 0 5 0 1 1 0 0 0 5 1 0 0 1 1 3 1 11 0 0 0 2 1 0 2 13 11 0 0 0 0
4 6 15 3 6 4 0 0 0 0 0 0 0 0 0 0 0 0 1 1 0 1 0 0 3 0 0 0 0 2 0 2 1 1 4 0 0 1 0 0 0 0 0 0 0 0 0
6 4 1 4 6 6 0 1 0 0 0 0 0 6 0 0 0 2 2 0 3 4 0 1 0 0 0 0 2 0 5 0 4 0 0 1 0 3 0 0 0 0 0 0 0 0 3
12 4 0 5 5 4 3 0 0 0 0 0 2 0 0 2 0 5 0 7 3 3 5 1 0 1 2 0 0 0 9 8 8 0 0 0 0 0 0 0 0 0 7 2 3 0 0
22 4 3 6 5 5 1 1 0 0 0 0 2 1 1 2 2 0 0 0 1 0 4 5 1 0 2 1 0 0 3 0 6 0 1 1 0 0 0 0 0 1 0 0 1 0 0
8 1 4 5 6 4 1 1 0 0 0 0 1 0 2 2 0 0 1 2 0 0 0 1 0 2 1 1 0 4 1 5 3 3 0 0 1 0 0 0 0 0 0 0 0 0 0
2 5 4 5 5 6 2 1 0 0 0 0 1 0 0 0 0 0 8 1 0 0 0 0 0 0 0 2 0 0 0 0 2 0 0 1 0 0 0 0 0 0 0 0 0 0 0
5 7 5 6 5 6 6 0 0 0 0 0 0 0 0 0 0 1 0 3 9 0 3 0 0 0 0 1 0 0 0 0 2 0 0 0 0 0 0 0 0 0 0 2 1 5 1
7 3 5 6 4 6 4 1 0 0 0 0 0 0 0 0 3 2 0 0 1 0 0 0 4 1 0 0 0 0 0 0 2 1 1 2 0 0 0 0 0 0 0 0 0 0 0
4 5 5 5 4 7 4 0 0 0 0 0 0 0 0 0 0 1 1 0 0 0 0 0 0 1 0 0 0 0 0 0 0 1 2 8 2 0 0 0 0 0 0 0 0 0 0
4 5 11 3 8 8 1 0 0 0 0 0 0 0 0 0 0 0 0 0 0 0 0 0 0 0 0 0 0 0 0 0 0 0 0 0 0 0 0 0 0 0 0 0 0 0 0
1 0 13 5 8 6 1 0 0 0 0 0 0 0 0 0 0 0 0 0 0 0 0 0 0 0 0 2 1 0 0 2 0 0 0 0 0 0 0 0 0 0 0 0 0 0 0
0 5 8 6 6 6 0 0 0 0 0 0 0 0 0 0 0 0 0 0 0 0 1 0 0 0 0 0 0 0 0 0 0 0 0 0 0 0 0 0 0 0 0 0 0 0 0
0 6 5 5 8 11 0 0 0 0 0 0 0 0 0 0 0 0 0 0 0 0 0 0 0 0 0 2 4 0 0 0 0 0 0 0 0 0 0 0 0 0 0 0 0 0 0
0 5 6 8 11 3 1 0 0 0 0 0 0 0 0 0 0 0 0 0 0 0 0 0 0 0 0 0 0 0 0 0 0 1 0 0 0 0 0 0 0 0 0 0 0 0 0

GFSGBSN_con_mlcape_063.txt.gz
CAPE
7 4 1 1 4 2 1 1 1 0 7 2 21 18 21 24 13 23 10 3 12 17 1 14 0 0 0 14 6 50 28 59 110 36 5 25 67 91 9 0 49 41 26 45 76 100 12
35 29 25 9 3 5 2 2 0 2 3 3 21 21 10 20 21 38 9 0 18 28 1 2 0 0 0 0 6 49 3 0 63 31 0 0 29 46 81 5 35 40 2 112 3 35 3
9 10 14 24 31 10 3 2 0 4 2 6 19 26 13 26 29 32 10 0 12 3 3 0 0 0 0 0 4 15 1 2 0 32 9 2 7 6 18 44 19 25 9 3 17 32 35
10 5 5 21 27 18 3 1 0 1 2 3 19 12 13 21 21 26 13 0 1 0 1 0 0 0 0 0 0 2 22 32 0 35 15 15 3 0 19 39 46 14 4 2 0 0 10
37 0 2 3 25 27 3 3 1 1 5 3 11 2 17 16 19 15 3 0 0 0 0 0 0 3 0 1 0 0 0 10 13 19 0 0 0 13 31 39 24 24 0 1 0 0 4
52 42 0 0 7 32 3 3 2 1 3 5 1 6 15 14 19 16 0 0 0 0 0 0 0 0 0 0 2 3 37 2 17 17 0 1 0 2 14 27 3 0 0 0 0 0 0
5 30 44 9 13 3 4 3 1 2 0 5 4 6 5 15 9 2 0 0 0 0 0 0 0 0 0 8 7 11 31 10 3 24 0 1 0 0 0 0 1 0 0 0 0 0 2
4 2 29 54 22 4 4 3 0 1 0 1 8 1 6 4 4 0 0 0 0 0 0 0 0 0 0 12 20 39 2 0 11 5 1 0 0 0 0 0 9 12 6 0 0 0 15
4 6 3 42 22 33 5 3 1 0 0 2 4 1 1 0 0 0 0 0 0 0 0 0 0 0 3 18 5 24 1 0 2 0 0 0 0 10 0 0 15 4 0 0 0 8 14
0 3 9 3 56 16 5 3 0 0 0 3 0 1 0 0 0 0 0 0 0 0 0 0 0 2 0 2 2 8 0 0 4 0 1 1 4 0 0 1 0 0 0 16 25 7 2
0 0 0 13 3 24 5 3 0 0 0 0 0 0 2 0 0 1 0 0 0 0 0 0 0 0 0 6 1 8 2 0 1 0 1 1 2 5 5 0 0 0 0 0 0 0 0
5 0 0 18 0 35 4 4 0 0 0 0 0 0 3 0 0 1 0 0 0 0 0 0 0 0 1 2 4 7 2 0 11 0 2 2 0 0 1 0 0 0 0 0 0 0 0
53 12 6 4 0 17 4 3 0 0 0 0 0 0 0 0 2 0 0 0 0 0 0 0 0 0 0 0 2 1 0 0 0 0 0 0 0 0 0 0 0 0 0 0 0 1 0
75 9 19 22 8 1 3 3 2 0 0 0 0 0 0 1 2 0 0 0 0 0 0 0 0 0 0 0 0 0 0 0 0 0 0 0 2 0 0 0 0 0 0 0 0 0 0
86 21 42 7 3 2 5 3 2 0 0 0 0 0 0 0 0 0 0 0 0 0 0 0 0 0 0 0 0 0 0 4 1 0 0 0 0 0 0 0 0 0 0 0 0 0 0
3 60 31 0 1 3 6 5 3 0 0 0 0 0 1 0 0 0 0 0 0 0 0 0 0 0 0 0 0 1 0 0 0 0 0 0 0 0 0 0 0 0 0 0 0 0 0
26 48 12 18 1 4 5 9 1 1 0 0 0 0 0 0 0 0 0 1 1 0 0 0 0 0 0 0 0 3 0 1 0 0 0 0 0 1 0 0 0 0 0 0 0 0 0
21 33 2 3 7 4 4 4 0 3 0 0 0 0 0 0 0 0 1 6 2 1 2 0 0 0 0 0 0 2 6 3 0 0 0 0 0 0 0 0 0 0 0 0 0 0 0
17 43 14 9 2 6 4 3 3 2 0 0 0 0 3 1 0 0 1 2 15 0 6 0 0 0 0 0 0 5 3 8 14 0 0 0 0 0 0 0 0 0 0 0 0 0 0
0 25 14 4 3 5 3 3 3 2 0 0 0 0 2 4 0 0 0 0 0 4 4 4 0 0 1 0 0 0 0 3 5 0 0 0 0 0 0 0 0 0 0 1 0 0 0
1 52 6 8 3 6 5 2 0 0 0 0 0 0 0 0 0 0 6 0 0 0 0 0 2 1 2 0 0 2 0 2 0 0 0 0 0 0 0 0 0 0 0 0 0 0 0
15 43 18 8 3 8 5 6 0 0 0 0 0 0 0 0 0 0 0 2 0 0 0 0 2 0 0 0 0 0 0 0 0 0 0 0 0 0 0 0 0 0 0 0 0 0 0
13 43 14 7 15 15 4 1 0 2 2 0 0 0 0 0 0 0 0 5 1 0 0 0 1 0 0 0 0 0 0 0 0 0 0 0 0 0 0 0 0 0 0 0 0 0 0
18 45 4 13 4 17 3 3 4 1 0 0 0 0 0 0 0 0 0 3 0 0 0 0 0 0 0 0 0 0 0 0 0 0 1 1 0 0 0 0 0 0 0 0 0 0 0
14 45 7 8 18 12 10 1 5 0 0 0 0 0 0 0 0 0 4 0 0 0 0 0 0 0 0 0 0 0 0 0 0 0 0 0 0 0 0 0 0 0 0 0 0 0 0
23 39 6 15 39 15 15 4 6 0 0 0 0 0 0 0 0 0 2 0 0 0 0 0 0 0 0 0 0 0 0 0 0 0 0 0 0 0 0 0 0 0 0 0 0 0 0
17 13 7 2 0 18 9 7 2 0 0 0 0 0 0 0 0 0 0 0 0 0 0 0 0 0 0 0 0 0 0 0 0 0 0 0 0 0 0 0 0 0 0 0 0 0 0
23 21 24 12 1 9 7 4 0 1 0 0 0 0 0 0 0 0 0 0 0 0 0 0 0 0 0 0 0 0 0 0 0 0 0 0 0 0 0 2 0 0 0 0 0 0 0
25 20 1 11 4 8 1 1 0 1 0 0 0 0 0 0 0 0 0 0 0 0 0 0 0 0 0 0 0 0 0 0 0 0 0 0 0 0 0 0 0 0 0 0 0 0 0

GFSGBSN_con_mlcape_066.txt.gz
CAPE
20 16 19 23 24 22 22 4 3 0 0 2 7 10 19 13 16 14 24 12 2 24 15 3 0 0 0 0 0 0 6 0 94 29 5 1 38 25 29 6 0 38 0 19 10 103 35
39 29 22 22 0 13 43 25 4 2 2 2 9 11 23 9 15 25 32 11 0 21 21 6 0 0 0 0 0 31 6 0 8 15 0 0 51 31 45 20 0 46 21 14 5 53 22
6 20 34 30 24 0 17 46 4 3 2 2 5 9 11 9 12 14 29 10 0 2 6 3 0 0 0 0 0 2 0 2 0 9 11 10 10 13 40 18 12 37 18 14 20 3 23
9 6 8 23 35 4 3 13 5 2 4 3 6 7 3 11 13 15 5 4 0 1 1 2 0 0 0 0 0 0 0 8 23 21 8 14 0 0 10 31 73 22 11 1 0 22 8
7 10 5 3 9 47 3 38 2 4 3 4 4 0 0 13 11 11 5 0 0 0 0 1 0 0 0 0 0 0 0 4 30 33 14 12 0 0 30 85 32 49 0 0 2 0 15
0 2 7 4 2 2 31 48 3 4 3 6 1 0 2 1 4 1 0 0 0 0 0 0 0 0 0 0 0 3 16 10 7 18 0 18 0 0 4 37 6 0 0 1 0 2 0
0 1 1 0 4 5 5 82 3 5 2 1 0 1 0 1 0 0 0 0 0 0 0 0 0 0 0 0 10 12 13 19 9 12 0 5 1 0 0 2 0 0 0 0 5 7 1
2 1 0 5 1 1 3 48 4 4 4 0 0 0 0 0 0 0 0 0 0 0 0 0 0 0 0 2 5 34 6 11 3 8 0 1 1 0 2 1 14 3 0 0 7 1 2
25 14 3 2 5 0 2 9 3 3 4 0 0 0 0 0 0 0 0 0 0 0 0 0 0 0 0 0 3 36 2 0 4 1 0 0 0 0 2 1 15 0 0 0 0 0 3
16 36 27 0 5 2 0 9 3 4 2 0 0 0 0 0 0 0 0 0 0 0 0 0 0 0 0 0 2 16 0 2 1 0 3 2 0 0 3 0 1 0 0 21 0 0 0
11 9 24 12 6 7 0 2 4 3 1 0 0 0 0 0 0 0 0 0 0 0 0 0 0 0 0 0 1 9 0 3 0 0 1 2 1 0 0 0 0 0 0 15 8 1 0
16 11 17 14 33 9 0 10 8 3 1 0 0 0 2 0 0 0 0 0 0 0 0 0 0 0 0 1 4 1 7 2 9 1 0 7 8 0 1 0 0 0 0 0 0 0 0
21 37 8 17 41 7 13 2 4 3 0 0 0 0 0 0 0 0 0 0 0 0 0 0 0 0 0 0 0 0 0 5 1 0 1 3 1 3 11 5 8 1 0 1 1 0 0
21 49 12 22 0 13 26 0 5 3 1 0 0 0 0 0 0 0 0 0 0 0 0 0 0 0 0 0 0 0 0 4 0 0 0 0 0 2 0 0 0 0 0 0 0 0 0
12 34 19 29 1 46 3 22 6 5 1 0 0 0 0 0 0 0 0 0 0 0 0 0 0 0 0 0 0 0 0 0 0 0 0 0 0 0 0 0 0 0 0 0 0 0 0
30 18 17 24 43 22 6 4 8 3 0 0 0 0 0 0 0 0 0 0 0 0 0 0 0 0 0 0 0 0 0 0 0 0 0 0 0 0 0 0 0 0 0 0 0 0 0
45 32 26 27 35 7 0 11 8 8 0 0 0 0 0 0 0 1 0 0 0 0 0 0 0 0 0 0 0 0 0 0 0 0 0 0 0 0 0 0 0 0 0 0 0 0 0
26 28 22 15 39 0 1 6 12 3 0 0 0 0 0 0 0 0 0 0 0 0 0 0 0 0 0 0 0 4 0 0 0 0 0 0 0 0 0 0 0 0 0 0 0 0 0
28 28 14 20 35 1 5 17 12 0 2 0 0 2 1 1 0 0 2 0 1 0 0 0 0 0 0 0 0 6 0 0 0 0 0 0 0 0 0 0 0 0 0 0 0 0 0
26 31 17 16 33 0 0 18 37 5 0 0 0 0 5 2 0 0 0 4 5 1 0 0 0 0 0 0 0 1 7 4 1 0 0 0 0 0 0 0 0 0 0 0 0 0 0
29 32 15 21 30 0 10 6 5 49 1 0 0 0 0 1 0 0 0 0 1 1 0 0 0 0 0 0 0 1 0 2 0 0 0 0 0 0 0 0 0 0 0 0 0 0 0
38 24 16 16 23 18 4 0 10 25 11 0 0 0 0 0 0 0 0 0 0 0 0 0 0 0 0 0 0 0 0 0 0 0 0 0 0 0 0 0 0 0 0 0 0 0 0
32 12 30 4 27 6 8 13 0 7 11 0 0 0 0 0 0 0 0 2 0 0 0 0 0 0 0 0 0 0 0 0 0 0 0 0 0 0 0 0 0 0 0 0 0 0 0
30 24 18 19 5 2 18 3 7 17 6 0 0 0 0 0 0 0 1 2 5 1 0 0 0 0 0 0 0 0 0 0 0 0 0 0 0 0 0 0 0 0 0 0 0 0 0
24 27 11 31 10 8 10 5 14 26 1 0 0 0 0 0 0 0 4 0 0 0 0 0 0 0 0 0 0 0 0 0 0 0 0 0 0 0 0 0 0 0 0 0 0 0 0
24 15 5 38 14 15 13 4 11 26 27 0 0 0 0 0 0 0 0 3 0 0 0 0 0 0 0 0 0 0 0 0 0 0 0 0 0 0 0 0 0 0 0 0 0 0 0
29 8 11 15 0 2 4 20 13 36 12 0 0 0 0 0 0 0 0 0 0 0 0 0 0 0 0 0 0 0 0 0 0 0 0 0 0 0 0 0 0 0 0 0 0 0 0
22 9 15 7 3 0 9 4 9 46 7 0 0 0 0 0 0 0 0 0 0 0 0 0 0 0 0 0 0 0 0 0 0 0 0 0 0 0 0 0 0 0 0 0 0 0 0
14 1 21 0 7 29 4 1 8 25 3 0 0 0 0 0 0 0 0 0 0 0 0 0 0 0 0 0 0 0 0 0 0 0 0 0 0 0 0 0 0 0 0 0 0 0 0

GFSGBSN_con_mlcape_069.txt.gz
CAPE
6 6 4 11 18 14 8 0 29 54 4 6 5 5 10 17 10 7 24 30 15 2 29 20 5 0 0 0 0 0 22 0 25 7 0 1 4 13 37 0 42 35 48 23 114 132 89
5 6 6 5 4 2 15 26 0 25 26 6 5 2 11 5 0 10 12 27 8 0 14 26 10 0 0 0 0 0 8 0 0 0 0 0 5 6 30 19 4 12 0 28 76 36 65
0 0 2 3 5 5 4 2 24 16 74 6 5 6 6 0 2 9 8 6 8 0 2 20 16 0 0 0 0 0 0 3 4 8 15 1 2 4 6 37 9 12 0 10 34 24 46
0 2 3 4 2 3 3 2 1 33 74 5 4 6 1 0 1 14 7 2 0 4 2 12 15 0 0 0 0 0 0 0 12 56 52 6 9 0 11 32 17 20 0 3 0 0 12
7 0 0 1 5 6 2 3 0 2 56 6 2 3 0 0 1 7 0 0 0 0 1 21 4 0 0 0 0 0 1 0 14 18 20 18 7 3 8 47 11 0 0 1 1 0 9
12 15 18 0 1 6 8 3 1 1 36 5 6 0 0 0 0 1 0 0 0 0 0 0 0 0 0 0 0 0 7 9 12 11 19 20 1 9 2 24 7 0 0 1 0 5 6
9 2 27 38 4 6 4 5 0 3 23 2 2 0 0 0 0 2 0 0 0 0 0 0 0 0 0 0 0 0 9 1 22 10 1 8 1 0 0 1 0 6 0 1 4 3 0
8 10 16 17 36 1 3 10 0 0 9 3 0 0 0 0 0 0 0 0 0 0 0 0 0 0 0 0 0 36 1 23 0 5 0 0 0 1 0 0 0 4 0 0 6 7 0
0 1 2 10 32 28 1 9 11 2 4 3 0 0 0 0 0 0 0 0 0 0 0 0 0 0 0 0 1 24 5 4 0 1 0 1 0 0 0 0 0 0 0 0 0 8 0
0 0 0 0 2 11 30 8 15 0 1 3 1 0 0 0 0 0 0 0 0 0 0 0 0 0 0 0 2 24 4 2 4 0 0 2 3 0 0 0 0 0 0 0 1 0 0
9 14 18 26 20 11 5 14 18 1 0 3 2 1 0 0 0 0 0 0 0 0 0 0 0 0 0 3 2 14 3 6 0 0 0 1 1 0 0 0 0 0 5 0 0 3 0
26 36 33 39 33 25 9 15 18 0 38 3 7 0 0 0 0 0 0 0 0 0 0 0 0 0 0 2 3 0 2 5 7 5 8 5 8 0 2 2 0 0 0 0 4 0 0
42 37 43 26 31 20 14 18 3 8 54 5 12 1 5 0 0 0 0 0 0 0 0 0 0 0 0 0 1 0 0 3 0 0 0 4 2 0 13 7 0 0 0 0 0 0 0
58 28 30 32 35 19 39 17 3 45 39 7 10 5 1 0 0 0 0 0 0 0 0 0 0 0 0 0 0 0 1 2 1 0 0 0 0 0 1 0 0 0 0 0 0 0 0
53 31 20 30 13 36 32 22 51 4 5 10 13 3 0 0 0 0 0 0 0 0 0 0 0 0 0 0 0 0 0 0 3 0 0 0 0 0 3 0 0 0 0 0 0 0 0
37 33 22 24 12 3 14 58 9 10 7 21 1 1 0 0 0 0 0 0 0 0 0 0 0 0 0 0 0 0 0 0 0 0 0 0 0 0 0 0 0 0 0 0 0 0 0
26 34 23 21 5 1 11 5 4 2 15 1 0 0 0 0 0 1 0 0 0 0 0 0 0 0 0 0 0 0 0 0 0 0 0 0 0 0 0 0 0 0 0 0 0 0 0
32 46 24 26 12 2 19 10 2 3 11 8 10 0 0 0 0 1 0 0 0 0 0 0 0 0 0 0 0 0 0 0 0 0 0 0 0 0 0 0 0 0 0 0 0 0 0
12 52 19 4 24 9 32 10 20 4 14 9 3 2 3 0 0 0 0 2 0 0 0 0 0 0 0 0 0 0 0 0 0 0 0 0 0 0 0 0 0 0 0 0 0 0 0
16 50 27 13 21 24 33 6 21 32 29 7 3 2 7 2 0 0 0 1 0 0 0 0 0 0 0 0 0 0 0 0 0 0 0 0 0 0 0 0 0 0 0 0 0 0 0
49 48 12 24 27 4 28 0 7 8 53 16 0 0 0 0 0 0 0 3 0 3 0 0 0 0 0 0 0 1 0 0 0 0 0 0 0 0 0 0 0 0 0 0 0 0 0
70 40 29 34 34 2 34 6 0 2 31 13 3 0 0 0 0 0 0 1 4 0 0 0 0 0 0 0 0 0 0 0 0 0 0 0 0 0 0 0 0 0 0 0 0 0 0
61 49 25 28 10 3 26 7 4 33 2 1 0 0 0 1 0 0 0 0 0 0 0 0 0 0 0 0 0 0 0 0 0 0 0 0 0 0 0 0 0 0 0 0 0 0 0
44 51 26 27 4 16 3 2 1 20 25 0 0 0 0 0 0 0 0 0 0 0 0 0 0 0 0 0 0 0 0 0 0 0 0 0 0 0 0 0 0 0 0 0 0 0 0
43 33 28 15 6 20 3 4 1 4 4 0 0 0 0 0 0 0 4 1 0 0 0 0 0 0 0 0 0 0 0 0 0 0 0 0 0 0 0 0 0 0 0 0 0 0 0
12 15 15 9 0 8 5 8 8 28 10 0 0 0 0 0 0 0 0 1 0 0 0 0 0 0 0 0 0 0 0 0 0 0 0 0 0 0 0 0 0 0 0 0 0 0 0
13 26 15 0 1 3 13 8 25 21 30 0 0 0 0 0 0 0 0 2 0 0 0 0 0 0 0 0 0 0 0 0 0 0 0 0 0 0 0 0 0 0 0 0 0 0 0
11 19 13 0 0 1 10 0 9 9 3 0 0 0 0 0 0 0 0 0 0 0 0 0 0 0 0 0 0 0 0 0 0 0 0 0 0 0 0 0 0 0 0 0 0 0 0
7 14 8 0 0 1 10 1 3 22 2 0 0 0 0 0 0 0 0 0 0 0 0 0 0 0 0 0 0 0 0 0 0 0 0 0 0 0 0 0 0 0 0 0 0 0 0

GFSGBSN_con_mlcape_072.txt.gz
CAPE
5 3 2 4 3 8 7 11 2 1 11 35 73 4 3 4 3 5 0 4 10 14 0 18 23 3 0 0 0 0 37 0 16 14 0 0 0 10 4 2 5 36 7 19 86 123 132
3 2 2 1 3 2 5 7 6 4 6 1 72 4 1 7 1 8 1 0 21 16 0 3 27 0 0 0 0 0 0 0 0 0 8 20 0 10 0 3 20 2 2 38 118 51 123
10 9 9 7 2 3 1 7 4 1 1 8 34 5 2 1 10 9 8 7 8 22 0 1 30 0 0 0 0 0 0 0 0 0 5 21 12 5 9 4 0 13 15 29 24 61 100
19 25 19 5 10 7 3 1 5 3 1 3 6 3 3 0 1 12 3 8 11 13 4 1 21 0 0 0 0 0 0 0 0 15 18 27 1 6 5 8 15 8 31 17 2 46 132
7 11 13 24 20 2 12 7 5 6 0 2 6 3 2 0 1 9 0 2 0 11 4 7 0 0 0 0 0 0 0 0 0 2 17 6 1 10 17 0 4 5 0 0 0 5 6
20 17 19 22 21 26 9 2 13 8 10 0 3 4 1 0 1 2 0 0 0 15 1 0 0 0 0 0 0 0 1 1 10 3 9 0 3 4 2 0 0 2 0 0 0 5 5
15 15 10 12 17 25 23 15 0 5 6 2 0 5 1 0 0 0 0 0 0 0 0 0 0 0 0 0 0 2 2 3 7 4 0 4 3 0 0 0 2 0 0 0 5 6 9
11 13 11 8 6 9 17 19 29 0 3 3 0 7 2 13 0 0 0 0 0 0 0 0 0 0 0 0 0 13 5 1 0 0 4 0 0 0 3 3 2 0 0 0 1 8 2
10 14 19 14 2 0 0 0 13 23 7 3 3 18 3 8 15 2 0 0 0 0 0 0 0 0 0 0 0 4 1 8 0 0 0 0 0 0 0 0 8 1 0 0 0 4 3
18 20 20 15 10 3 1 1 8 14 8 7 7 22 5 8 2 0 0 0 0 0 0 0 0 0 0 0 1 11 6 0 0 1 0 0 8 0 0 0 0 0 0 0 0 0 0
15 17 7 2 6 7 2 2 4 2 9 14 1 20 7 0 0 0 0 0 0 0 0 0 0 0 0 0 1 11 5 4 1 0 1 3 4 7 0 0 0 0 0 0 0 0 0
14 14 16 20 8 16 13 17 13 8 0 2 0 24 14 9 0 0 0 0 0 0 0 0 0 0 0 2 1 0 5 1 3 2 4 3 4 0 0 2 0 1 1 3 0 0 0
24 32 30 32 22 12 15 34 30 29 11 0 3 9 20 3 0 0 0 0 0 0 0 0 0 0 0 0 1 1 1 2 1 0 0 2 2 1 1 1 0 1 0 0 0 0 0
21 39 33 30 23 24 19 15 24 36 21 87 30 12 14 2 0 0 0 0 0 0 0 0 0 0 0 0 0 1 5 2 0 0 1 0 0 0 0 0 0 0 0 0 0 0 0
28 32 27 19 37 44 11 9 4 15 25 28 7 12 7 6 0 0 0 0 0 0 0 0 0 0 0 0 0 0 0 1 2 0 0 2 0 0 0 0 0 0 0 0 0 0 0
33 47 21 51 53 32 13 3 2 9 15 5 7 7 7 3 0 0 0 0 0 0 0 0 0 0 0 0 0 0 0 0 0 0 0 0 1 1 0 0 0 0 0 0 0 0 0
53 38 31 54 46 13 1 15 30 4 11 6 6 3 5 0 12 8 0 0 0 0 0 0 0 0 0 0 0 0 0 0 0 0 0 0 0 0 0 0 0 0 0 0 0 0 0
31 75 64 61 27 20 1 14 34 31 0 10 7 0 1 8 15 1 0 0 0 0 0 0 0 0 0 0 0 0 0 0 0 0 0 0 0 0 0 0 0 0 0 0 0 0 0
27 79 91 36 23 22 6 13 25 47 12 11 3 3 1 12 2 0 0 0 0 0 0 0 0 0 0 0 0 0 0 0 0 0 0 0 0 0 0 0 0 0 0 0 0 0 0
40 81 99 24 19 36 10 13 18 37 32 1 0 0 8 7 0 0 0 0 0 0 0 0 0 0 0 0 0 0 0 0 0 0 0 0 0 0 0 0 0 0 0 0 0 0 0
54 44 59 13 29 38 9 17 14 42 10 0 2 1 2 1 1 0 0 0 0 0 0 0 0 0 0 0 0 0 0 0 0 0 0 0 0 0 0 0 0 0 0 0 0 0 0
54 88 60 35 27 37 3 28 8 32 18 1 1 1 0 0 0 0 0 0 0 0 0 0 0 0 0 0 0 0 0 0 0 0 0 0 0 0 0 0 0 0 0 0 0 0 0
65 57 58 25 22 24 0 21 9 10 31 14 0 0 0 1 0 0 0 1 1 0 0 0 0 0 0 0 0 0 0 0 0 0 0 0 0 0 0 0 0 0 0 0 0 0 0
43 66 32 32 26 16 2 10 6 2 17 1 0 0 0 0 0 0 0 1 0 0 0 0 0 0 0 0 0 0 0 0 0 0 0 0 0 0 0 0 0 0 0 0 0 0 0
39 35 34 25 23 0 9 3 12 0 11 0 0 0 0 0 0 0 0 0 0 0 0 0 0 0 0 0 0 0 0 0 0 0 0 0 0 0 0 0 0 0 0 0 0 0 0
24 29 24 28 2 4 5 0 16 1 3 0 0 0 0 0 0 0 1 0 0 0 0 0 0 0 0 0 0 0 0 0 0 0 0 0 0 0 0 0 0 0 0 0 0 0 0
21 30 9 14 1 0 4 7 20 12 0 0 0 0 0 0 0 0 0 0 0 0 0 0 0 0 0 0 0 0 0 0 0 0 0 0 0 0 0 0 0 0 0 0 0 0 0
37 6 10 10 0 0 12 17 16 4 0 0 0 0 0 0 0 0 0 0 0 0 0 0 0 0 0 0 0 0 0 0 0 0 0 0 0 0 0 0 0 0 0 0 0 0 0
31 5 5 0 0 1 10 4 8 2 0 0 0 0 0 0 0 0 0 0 0 0 0 0 0 0 0 0 0 0 0 0 0 0 0 0 0 0 0 0 0 0 0 0 0 0 0

GFSGBSN_con_mlcape_075.txt.gz
CAPE
12 6 5 2 2 0 1 1 8 6 4 7 7 8 34 3 4 0 2 0 1 1 0 0 18 8 0 0 0 0 0 7 0 5 0 0 0 8 9 11 1 1 0 4 1 0 133
4 6 17 8 6 6 6 2 2 3 1 2 5 0 3 4 3 0 0 11 7 14 0 0 5 1 0 0 0 0 0 0 0 0 0 3 0 3 9 12 3 0 0 3 2 0 87
8 17 13 5 5 8 5 3 5 4 4 4 4 0 20 3 1 0 2 9 6 3 0 3 7 0 0 0 0 0 0 0 0 0 0 0 5 16 5 0 5 8 0 0 0 0 34
23 6 10 8 12 15 11 17 13 10 8 6 5 2 39 3 1 0 8 2 8 2 0 3 31 0 0 0 0 0 0 0 0 0 0 3 25 16 0 1 4 9 11 1 0 0 21
15 28 29 17 7 5 12 11 13 15 11 8 6 3 2 4 0 3 13 2 0 0 0 14 7 0 0 0 0 0 0 0 0 0 4 12 12 1 2 0 0 5 1 0 28 17 61
22 27 22 9 30 25 24 8 20 22 4 6 10 5 0 3 0 0 1 0 0 1 10 15 0 0 0 0 0 0 0 0 0 8 6 9 4 1 1 2 0 0 5 1 0 19 3
25 14 16 40 48 57 31 23 27 27 34 1 5 3 1 3 0 4 0 0 0 0 0 0 0 0 0 0 0 0 0 0 11 6 0 7 0 1 1 0 0 0 0 0 1 0 1
29 46 47 54 55 43 21 24 28 23 24 3 1 7 1 0 11 9 0 0 0 0 0 0 0 0 0 0 0 0 0 0 0 0 7 0 1 2 1 0 0 1 0 1 0 10 6
36 52 37 38 43 36 32 29 21 19 15 15 0 10 0 7 9 6 0 0 0 0 0 0 0 0 0 0 0 0 0 2 0 0 0 0 1 3 0 0 1 1 0 0 0 3 1
16 31 43 45 29 27 34 32 29 27 24 19 0 8 0 14 4 0 0 0 0 0 0 0 0 0 0 0 0 5 1 0 0 0 0 0 6 2 0 0 1 4 0 0 0 0 0
25 14 6 16 28 17 16 18 21 12 6 12 2 1 0 12 0 0 0 0 0 0 0 0 0 0 0 0 5 4 4 1 1 2 1 0 13 12 0 0 0 2 0 0 0 0 0
32 20 9 15 20 19 40 34 31 30 18 8 9 5 1 1 0 0 0 0 0 0 0 0 0 0 0 4 6 1 3 1 4 2 2 1 3 0 0 0 0 0 2 1 0 0 0
22 14 23 21 18 12 18 30 36 25 13 18 0 0 34 1 0 2 0 0 0 0 0 0 0 0 0 0 1 2 0 1 2 0 1 3 2 4 2 2 1 0 0 0 0 0 0
11 18 30 35 25 12 43 50 28 23 11 9 14 85 50 0 0 0 0 0 0 0 0 0 0 0 0 0 0 2 1 2 0 0 0 0 0 1 3 1 0 0 0 0 0 0 0
18 31 23 42 48 58 72 47 52 16 8 13 14 36 1 6 1 0 0 0 0 0 0 0 0 0 0 0 0 1 0 3 1 0 0 0 0 1 0 0 0 0 0 0 0 0 0
24 30 87 58 77 65 73 73 60 29 88 21 1 2 4 3 0 8 6 0 0 0 0 0 0 0 0 0 0 0 0 0 2 0 0 0 0 0 0 0 0 0 0 0 0 0 0
35 62 68 75 67 46 40 43 59 31 26 0 0 0 11 8 2 4 0 0 0 0 0 0 0 0 0 0 0 0 0 0 0 0 0 0 0 0 0 0 0 0 0 0 0 0 0
77 76 84 76 77 39 20 33 38 22 33 0 1 1 4 4 1 5 0 0 0 0 0 0 0 0 0 0 0 0 0 0 0 0 0 0 0 0 0 0 0 0 0 0 0 0 0
26 58 97 79 61 18 30 43 24 17 11 0 1 2 10 16 0 2 0 0 0 0 0 0 0 0 0 0 0 0 0 0 0 0 0 0 0 0 0 0 0 0 0 0 0 0 0
29 55 88 56 33 10 28 26 11 30 2 0 0 0 1 8 0 0 3 0 0 0 0 0 0 0 0 0 0 0 0 0 0 0 0 0 0 0 0 0 0 0 0 0 0 0 0
44 63 51 47 29 24 33 25 16 29 2 0 1 1 1 0 1 0 0 0 0 0 0 0 0 0 0 0 0 0 0 0 0 0 0 0 0 0 0 0 0 0 0 0 0 0 0
24 50 41 41 29 30 19 7 26 21 10 0 1 1 0 0 0 0 1 0 0 0 0 0 0 0 0 0 0 0 0 0 0 0 0 0 0 0 0 0 0 0 0 0 0 0 0
25 26 23 30 33 24 16 1 2 9 6 6 0 0 0 0 0 0 1 0 0 0 0 0 0 0 0 0 0 0 0 0 0 0 0 0 0 0 0 0 0 0 0 0 0 0 0
35 15 14 26 31 30 4 0 9 25 8 0 0 0 0 0 0 0 0 0 0 0 0 0 0 0 0 0 0 0 0 0 0 0 0 0 0 0 0 0 0 0 0 0 0 0 0
28 17 22 22 19 3 0 4 0 4 0 0 0 0 0 0 0 0 0 0 0 0 0 0 0 0 0 0 0 0 0 0 0 0 0 0 0 0 0 0 0 0 0 0 0 0 0
16 10 22 9 8 0 0 2 4 10 0 0 0 0 0 0 0 0 0 0 0 0 0 0 0 0 0 0 0 0 0 0 0 0 0 0 0 0 0 0 0 0 0 0 0 0 0
14 14 14 12 17 0 1 13 11 0 0 0 0 0 0 0 0 0 0 0 0 0 0 0 0 0 0 0 0 0 0 0 0 0 0 0 0 0 0 0 0 0 0 0 0 0 0
8 17 4 9 6 0 23 5 1 0 0 0 0 0 0 0 0 0 0 0 0 0 0 0 0 0 0 0 0 0 0 0 0 0 0 0 0 0 0 0 0 0 0 0 0 0 0
19 4 4 2 0 0 29 13 7 0 0 0 0 0 0 0 0 0 0 0 0 0 0 0 0 0 0 0 0 0 0 0 0 0 0 0 0 0 0 0 0 0 0 0 0 0 0

GFSGBSN_con_mlcape_078.txt.gz
CAPE
13 18 10 12 6 9 12 5 21 14 4 8 5 3 8 0 24 11 0 2 0 0 9 0 0 3 0 0 0 0 0 10 5 0 0 0 0 4 1 1 5 12 0 1 0 7 16
25 25 33 37 39 23 19 17 2 24 7 4 4 5 14 0 64 6 4 0 0 0 9 0 0 1 0 0 0 0 0 0 0 0 0 0 0 10 10 10 12 0 5 1 7 14 18
26 22 38 45 43 46 42 38 24 5 7 15 11 6 9 4 66 5 0 6 0 0 4 0 2 1 0 0 0 0 0 0 0 0 0 0 1 12 19 11 6 14 9 8 5 6 20
28 34 30 45 41 47 27 19 20 22 6 7 14 5 6 0 56 1 0 0 0 0 0 0 18 0 0 0 0 0 0 0 0 0 0 0 14 20 19 10 8 5 2 3 1 5 1
25 41 41 49 53 29 44 30 37 35 10 18 16 8 7 0 13 3 0 7 2 0 0 9 0 1 0 0 0 0 0 0 0 0 0 2 19 18 18 7 2 1 0 3 5 0 4
37 20 59 32 29 37 47 56 39 36 21 6 10 12 3 0 3 1 4 0 1 6 6 5 0 0 0 0 0 0 0 0 6 27 13 13 22 6 4 5 0 0 1 0 4 2 0
28 64 56 18 34 42 49 42 38 54 55 28 2 1 1 11 3 6 0 4 0 0 6 0 0 0 0 0 0 0 0 7 23 13 6 19 1 0 2 2 2 0 0 0 0 0 6
51 54 43 27 34 41 59 64 46 40 40 37 18 4 0 5 29 4 0 0 0 0 0 0 0 0 0 0 0 0 0 10 3 4 5 4 2 0 2 3 1 0 0 11 20 39 17
54 57 55 60 47 41 57 63 46 41 53 35 40 17 2 2 17 5 0 0 0 0 0 0 0 0 0 0 2 1 3 6 4 3 0 1 0 1 3 1 1 0 2 2 0 7 4
26 37 50 50 47 37 47 61 63 74 64 62 52 50 9 11 10 0 1 0 0 0 0 0 0 0 0 0 1 5 17 4 2 0 4 1 2 2 3 0 6 2 3 1 0 0 6
32 29 12 17 25 49 46 87 114 111 92 73 59 56 64 20 2 3 0 0 0 0 0 0 0 0 0 0 13 6 4 0 0 2 0 0 3 10 7 0 5 11 3 0 0 0 2
22 21 15 25 48 102 133 125 164 102 88 81 56 49 53 6 14 0 0 0 0 0 0 0 0 0 0 12 7 0 10 3 5 1 1 4 7 4 1 0 0 2 5 3 5 0 0
33 22 30 51 76 136 170 154 123 117 94 43 18 17 15 32 4 0 0 2 0 0 0 0 0 0 4 1 6 2 1 0 0 0 0 3 0 0 0 5 4 3 11 0 2 1 0
42 30 33 72 160 134 118 74 70 55 33 25 27 6 2 28 27 0 1 1 0 0 0 0 0 0 7 3 0 1 2 2 0 4 0 0 0 1 2 0 1 2 0 1 1 0 0
29 28 80 104 108 87 56 66 70 60 17 6 24 15 8 21 0 2 4 0 0 0 0 0 0 3 0 0 0 0 0 7 2 3 1 0 0 4 0 0 0 0 0 0 0 0 0
19 36 51 89 100 50 39 65 64 28 23 15 3 11 6 17 4 8 1 0 0 0 0 0 0 0 0 0 0 1 0 0 1 2 0 0 0 0 0 0 0 0 0 0 0 0 0
17 23 43 39 70 23 29 54 34 13 18 10 2 0 4 16 20 2 0 0 0 0 0 0 0 0 0 0 0 0 0 0 1 0 0 0 0 0 0 0 0 0 0 0 0 0 0
11 38 30 59 31 12 26 41 10 16 19 0 0 0 13 15 0 0 0 0 0 0 0 0 0 0 0 0 0 0 2 2 0 0 0 0 0 0 0 0 0 0 0 0 0 0 0
13 22 15 24 13 7 23 17 1 11 8 0 0 2 16 6 0 2 1 0 0 0 0 0 0 0 0 0 0 0 0 0 0 0 0 0 0 0 0 0 0 0 0 0 0 0 0
16 22 20 13 16 18 24 8 28 10 6 0 0 0 1 1 4 0 5 0 0 0 0 0 0 0 0 0 0 0 0 0 0 0 0 0 0 0 0 0 0 0 0 0 0 0 0
25 20 20 14 28 29 21 2 28 8 6 0 0 0 1 0 2 0 0 0 0 0 0 0 0 0 0 0 0 0 0 0 0 0 0 0 0 0 0 0 0 0 0 0 0 0 0
20 18 16 8 22 25 27 11 0 8 9 1 0 1 1 2 1 0 0 0 0 0 0 0 0 0 0 0 0 0 0 0 0 0 0 0 0 0 0 0 0 0 0 0 0 0 0
20 21 18 17 9 5 8 0 18 12 0 7 0 0 0 1 0 0 1 0 0 0 0 0 0 0 0 0 0 0 0 0 0 0 0 0 0 0 0 0 0 0 0 0 0 0 0
21 15 14 12 8 2 0 3 9 5 0 0 0 0 0 0 0 0 0 0 0 0 0 0 0 0 0 0 0 0 0 0 0 0 0 0 0 0 0 0 0 0 0 0 0 0 0
22 15 12 18 8 0 0 1 11 0 0 0 0 0 0 0 0 1 2 0 0 0 0 0 0 0 0 0 0 0 0 0 0 0 0 0 0 0 0 0 0 0 0 0 0 0 0
9 7 13 7 0 0 1 1 2 0 0 0 0 0 0 0 0 0 0 0 0 0 0 0 0 0 0 0 0 0 0 0 0 0 0 0 0 0 0 0 0 0 0 0 0 0 0
9 11 7 2 0 0 3 3 1 0 0 0 0 0 0 0 0 0 0 0 0 0 0 0 0 0 0 0 0 0 0 0 0 0 0 0 0 0 0 0 0 0 0 0 0 0 0
7 12 7 0 0 1 6 0 0 0 0 0 0 0 0 0 0 0 0 0 0 0 0 0 0 0 0 0 0 0 0 0 0 0 0 0 0 0 0 0 0 0 0 0 0 0 0
6 8 5 0 0 8 2 0 0 0 0 0 0 0 0 0 0 0 0 0 0 0 0 0 0 0 0 0 0 0 0 0 0 0 0 0 0 0 0 0 0 0 0 0 0 0 0

GFSGBSN_con_mlcape_081.txt.gz
CAPE
39 32 41 49 38 36 34 15 11 14 17 18 25 15 16 11 10 4 83 8 4 0 0 0 0 0 0 0 0 0 0 1 11 0 0 0 0 0 0 0 0 1 4 2 4 22 0
40 41 43 43 40 45 35 27 25 1 2 17 12 22 8 20 1 3 90 8 0 0 1 0 0 0 1 0 0 0 0 0 1 6 5 2 0 3 1 2 0 1 7 12 17 9 20
21 41 35 23 42 35 27 18 24 16 1 4 15 19 14 9 0 3 21 0 4 1 1 11 0 2 0 0 0 0 0 0 1 4 11 18 9 9 8 6 0 10 6 1 1 9 3
33 32 30 43 20 29 19 23 27 32 14 4 7 17 6 5 3 4 1 2 1 3 0 4 1 8 0 0 0 0 0 0 0 1 7 11 4 14 10 8 10 11 10 5 0 3 1
26 33 23 34 24 23 27 31 38 26 29 14 9 12 4 0 1 19 1 4 18 2 3 2 7 6 0 0 0 0 0 0 3 13 8 10 13 14 14 8 4 8 1 6 1 9 11
38 25 15 35 40 26 29 34 52 45 38 44 42 27 8 0 6 7 11 0 2 2 9 8 0 1 0 0 0 0 0 0 2 8 8 19 19 7 2 7 0 3 2 0 2 12 7
24 29 20 25 36 12 27 27 55 48 47 44 42 27 22 0 3 34 1 5 0 0 7 0 0 0 0 0 0 0 0 7 20 9 2 16 4 4 17 10 3 2 0 0 0 0 3
13 20 37 24 40 29 21 32 44 66 77 79 65 43 31 15 5 15 14 0 0 0 0 0 0 0 0 0 0 0 0 7 12 10 12 9 4 2 1 4 12 4 0 0 0 16 19
6 23 29 21 45 25 34 73 66 85 108 117 75 62 39 35 4 22 0 0 0 0 0 0 0 0 0 0 0 6 1 9 7 10 5 10 0 0 3 0 2 1 2 3 0 1 15
6 26 27 50 44 50 75 96 120 137 162 164 112 88 74 56 35 1 2 0 0 0 4 1 0 0 0 0 0 10 8 23 21 6 10 6 1 2 3 0 0 1 0 3 2 15 18
8 36 56 38 45 56 116 136 136 163 161 126 104 105 108 40 24 2 2 0 0 3 0 0 0 0 0 0 2 3 4 4 3 5 0 1 0 8 5 0 3 1 2 3 0 0 0
12 34 35 45 69 102 113 101 105 82 73 56 71 52 58 18 28 0 0 0 5 1 0 0 0 1 0 0 15 7 9 4 9 1 1 0 19 15 5 4 2 1 0 3 3 0 3
10 19 42 95 81 102 96 81 77 60 29 22 21 19 17 25 1 20 0 3 1 1 0 0 0 0 0 0 13 1 0 3 3 0 0 6 2 0 0 1 0 5 1 0 0 0 0
9 29 29 84 91 99 63 74 57 44 46 23 18 22 3 2 3 28 1 0 1 0 0 0 0 0 0 1 0 5 6 4 1 2 0 0 0 0 5 2 10 9 0 0 0 0 0
12 32 46 69 86 63 64 71 57 27 27 20 1 7 5 7 11 11 1 0 1 0 0 0 3 3 6 8 4 1 2 5 3 10 1 0 0 0 0 0 0 4 0 0 1 0 0
17 21 44 51 41 32 64 44 16 37 19 10 2 11 5 18 7 17 0 0 0 0 0 0 0 0 4 3 3 4 11 0 3 5 4 1 0 1 0 0 0 0 0 0 1 0 0
18 54 34 32 24 26 45 14 30 17 17 20 3 4 53 24 20 1 0 0 0 0 0 0 0 0 5 3 12 5 0 1 1 1 0 0 0 0 0 0 0 0 0 0 0 0 2
8 19 19 26 10 36 30 25 18 0 0 0 0 0 16 4 0 0 0 8 0 0 0 0 0 3 5 2 4 6 6 2 0 0 0 0 1 0 0 0 0 0 0 0 0 0 0
9 22 24 19 2 7 15 25 23 25 0 1 0 0 2 2 0 0 8 2 3 0 0 0 0 0 0 3 0 3 5 0 0 0 0 0 0 1 0 0 0 0 0 0 0 0 0
17 17 10 20 11 13 9 0 3 35 16 0 1 0 0 0 1 4 11 0 0 0 0 0 0 0 0 0 0 4 0 0 0 0 0 0 0 0 0 0 0 0 0 0 0 0 0
31 10 13 29 19 10 4 0 0 1 0 0 0 1 0 0 5 6 4 0 0 1 0 0 0 0 0 0 0 0 0 0 0 0 0 0 0 0 0 0 0 0 0 0 0 0 0
27 14 10 23 19 15 0 0 0 0 0 0 0 4 3 2 1 0 0 0 0 0 0 0 0 0 0 0 0 0 0 0 0 0 0 0 0 0 0 0 0 0 0 0 0 0 0
23 18 13 15 16 15 4 0 0 0 0 2 1 0 3 0 1 5 1 0 0 0 0 0 0 0 0 0 0 0 0 0 0 0 0 0 0 0 0 0 0 0 0 0 0 0 0
19 11 14 8 6 1 2 1 0 0 0 0 0 0 1 3 3 0 3 0 0 0 0 0 0 0 0 0 0 0 0 0 0 0 0 0 0 0 0 0 0 0 0 0 0 0 0
13 8 5 4 1 1 3 0 0 0 0 0 0 0 0 2 1 0 0 0 0 0 0 0 0 0 0 0 0 0 0 0 0 0 0 0 0 0 0 0 0 0 0 0 0 0 0
15 4 3 5 1 2 0 0 0 0 0 0 0 0 0 0 0 0 0 3 0 0 0 0 0 0 0 0 0 0 0 0 0 0 0 0 0 0 0 0 0 0 0 0 0 0 0
15 4 2 0 1 5 0 0 0 0 0 0 0 0 0 0 0 0 0 0 0 0 0 0 0 0 0 0 0 0 0 0 0 0 0 0 0 0 0 0 0 0 0 0 0 0 0
8 6 1 0 0 0 1 0 0 0 0 0 0 0 0 0 0 0 0 0 0 0 0 0 0 0 0 0 0 0 0 0 0 0 0 0 0 0 0 0 0 0 0 0 0 0 0
0 9 1 0 0 3 0 0 0 0 0 0 0 0 0 0 0 0 0 0 0 0 0 0 0 0 0 0 0 0 0 0 0 0 0 0 0 0 0 0 0 0 0 0 0 0 0

GFSGBSN_con_mlcape_084.txt.gz
CAPE
40 35 48 50 48 50 54 37 23 27 20 14 18 18 32 21 18 1 0 4 34 1 1 3 0 0 0 0 0 0 0 3 0 0 0 0 0 0 0 0 0 1 1 0 1 0 0
49 49 48 49 49 52 32 24 30 29 31 22 21 25 16 18 15 6 14 3 44 1 6 0 0 0 0 0 0 0 0 0 0 0 0 0 0 0 0 0 0 0 0 0 0 0 1
31 38 44 43 48 27 35 24 35 37 37 36 32 29 8 11 13 6 3 4 2 1 2 6 0 0 0 0 0 0 0 0 0 0 0 0 1 1 0 0 0 1 0 0 0 0 0
10 22 26 33 20 54 33 27 35 35 51 44 34 26 16 8 7 1 5 18 2 3 13 13 0 2 0 0 0 0 0 0 0 0 0 0 0 1 2 5 0 0 0 0 0 0 0
5 5 27 30 33 23 14 19 29 27 54 47 42 36 17 13 3 11 58 13 1 1 0 3 3 3 0 0 0 0 0 0 0 0 1 4 12 4 5 5 1 2 0 0 0 0 3
17 8 26 25 41 29 11 26 27 33 50 63 52 35 17 16 5 0 63 23 12 0 14 16 1 0 0 0 0 0 0 0 0 2 1 9 7 4 11 7 0 0 1 0 0 0 1
25 8 10 32 19 28 10 17 35 58 56 69 76 59 21 13 16 4 2 1 0 0 13 0 0 0 0 0 0 0 0 0 1 0 1 12 3 0 1 0 0 0 0 0 0 0 1
21 22 9 27 28 28 37 73 73 82 96 92 106 102 48 15 26 1 19 0 0 0 3 0 0 0 0 0 0 1 0 0 5 0 0 7 4 0 0 2 7 9 3 0 2 0 14
24 34 9 31 35 73 71 56 14 157 125 156 155 172 89 45 2 26 7 0 0 0 1 0 0 0 0 0 1 3 0 1 0 0 0 3 0 3 1 1 0 0 0 2 0 0 4
46 35 14 41 87 34 38 116 15 78 120 145 159 179 151 134 1 12 1 12 0 2 0 0 2 0 0 0 2 12 0 0 0 0 6 4 0 0 0 1 1 0 0 1 0 0 0
33 16 21 47 43 105 121 114 72 44 42 60 88 119 138 126 18 1 0 0 0 1 0 0 2 0 0 5 3 7 0 0 0 5 1 0 0 3 4 4 2 0 4 0 2 7 0
12 15 23 22 56 57 66 48 35 37 32 34 16 0 41 8 23 1 0 0 0 0 0 0 0 1 5 5 5 6 2 0 0 2 0 0 0 2 2 1 3 1 4 2 1 0 2
7 11 20 17 38 46 35 39 37 33 25 21 19 8 6 18 22 3 0 0 0 0 0 0 1 6 6 2 0 0 0 0 0 0 0 0 2 0 1 1 3 2 1 0 0 0 0
8 12 15 24 29 42 40 30 37 38 30 23 45 7 15 20 30 3 2 0 0 0 0 0 4 9 1 0 0 4 0 0 1 1 0 0 0 0 1 0 3 0 0 0 0 0 0
8 16 12 18 34 32 23 24 2 3 28 26 15 11 5 18 16 5 0 0 0 0 0 0 10 1 2 0 0 0 0 6 3 4 0 1 0 1 0 0 0 0 0 0 2 0 0
13 19 14 17 24 19 44 83 48 17 15 4 2 8 13 18 15 1 0 0 0 0 0 2 0 0 0 0 0 0 1 0 0 4 0 1 0 0 0 0 1 0 0 0 0 0 0
13 11 16 20 27 10 15 43 46 21 13 4 1 2 2 16 4 2 0 0 0 0 0 0 0 0 1 2 1 6 0 0 0 1 0 0 0 1 4 0 0 0 0 0 0 0 0
17 10 14 12 32 1 7 18 39 42 4 0 0 1 14 2 2 0 0 11 1 0 0 0 0 2 0 0 0 3 0 0 0 0 0 0 0 0 0 0 0 0 0 0 0 0 0
13 27 19 25 32 11 6 2 12 17 0 0 0 1 0 0 3 1 1 10 17 1 0 0 0 0 0 0 0 2 0 0 0 0 0 0 0 1 0 0 0 0 0 0 0 0 0
17 22 17 29 12 11 1 1 8 0 0 0 0 0 0 1 0 2 0 0 0 0 0 0 0 0 0 1 0 2 0 0 0 0 0 0 0 0 0 0 0 0 0 0 0 0 0
6 19 8 31 13 0 0 0 0 1 0 0 0 1 0 0 0 2 0 3 0 0 0 0 0 0 0 2 1 0 0 0 0 0 0 0 0 0 0 0 0 0 0 0 0 0 0
2 14 14 12 12 3 0 0 0 0 0 0 0 0 0 0 0 0 0 0 0 0 0 0 0 0 0 0 0 0 0 0 0 0 0 0 0 0 0 0 0 0 0 0 0 0 0
2 11 13 4 6 3 1 0 0 0 0 0 0 0 0 0 0 0 0 0 0 0 0 0 0 0 0 0 0 0 0 0 0 0 0 0 0 0 0 0 0 0 0 0 0 0 0
6 12 10 8 2 3 0 0 0 0 0 0 0 0 0 0 0 0 0 0 0 0 0 0 0 0 0 0 0 0 0 0 0 0 0 0 0 0 0 0 0 0 0 0 0 0 0
8 4 6 5 2 5 0 0 0 0 0 0 0 0 0 0 0 0 0 0 0 0 0 0 0 0 0 0 0 0 0 0 0 0 0 0 0 0 0 0 0 0 0 0 0 0 0
5 1 2 1 1 3 0 0 0 0 0 0 0 0 0 0 0 0 0 0 0 0 0 0 0 0 0 0 0 0 0 0 0 0 0 0 0 0 0 0 0 0 0 0 0 0 0
2 0 0 0 5 1 0 0 0 0 0 0 0 0 0 0 0 0 0 0 0 0 0 0 0 0 0 0 0 0 0 0 0 0 0 0 0 0 0 0 0 0 0 0 0 0 0
3 1 0 0 0 0 0 0 0 0 0 0 0 0 0 0 0 0 0 0 0 0 0 0 0 0 0 0 0 0 0 0 0 0 0 0 0 0 0 0 0 0 0 0 0 0 0
0 1 0 0 0 1 0 0 0 0 0 0 0 0 0 0 0 0 0 0 0 0 0 0 0 0 0 0 0 0 0 0 0 0 0 0 0 0 0 0 0 0 0 0 0 0 0

GFSGBSN_con_mlcape_087.txt.gz
CAPE
19 28 24 35 24 21 21 9 23 26 36 45 31 28 24 18 16 11 9 16 3 13 12 6 2 0 0 0 0 0 0 8 0 0 0 0 0 0 0 0 0 0 0 0 0 0 0
19 13 8 17 28 32 11 16 6 24 32 41 40 26 18 14 20 20 17 17 13 12 4 5 0 0 0 0 0 0 0 0 0 0 0 0 0 0 0 0 0 0 0 0 0 0 0
29 20 16 11 30 36 37 24 15 30 37 48 59 36 34 17 14 7 6 12 0 56 8 0 0 0 0 0 0 0 0 0 0 0 0 0 0 0 0 0 0 0 0 0 0 0 0
23 26 24 6 28 31 57 42 25 31 31 30 81 80 48 33 4 1 0 84 140 14 11 0 0 0 0 0 0 0 0 0 0 0 0 0 0 0 0 0 0 0 0 0 0 0 0
31 48 28 11 17 32 40 49 14 24 29 52 75 78 55 41 11 0 1 21 19 20 11 5 0 0 0 0 0 0 0 0 0 0 0 0 3 0 0 1 0 0 0 0 0 0 0
50 48 6 10 7 47 49 47 71 71 83 86 87 104 97 40 18 4 46 11 25 40 8 16 3 8 0 0 0 0 0 0 0 0 1 1 1 4 2 2 0 0 0 0 0 0 0
0 0 8 19 10 63 72 99 72 89 51 105 117 122 109 57 31 15 0 5 0 3 13 0 0 0 0 0 0 0 0 0 0 0 0 6 0 0 0 0 0 0 0 0 0 0 1
0 8 35 22 25 48 67 106 12 0 12 147 113 145 136 78 76 18 3 11 5 2 0 2 1 0 0 0 0 0 0 0 2 0 0 1 0 0 0 0 1 0 0 0 0 0 3
6 31 14 9 31 28 26 40 75 70 78 69 149 165 163 124 48 39 0 13 6 3 1 4 3 0 0 0 2 1 0 1 0 0 0 0 0 0 0 0 0 0 0 0 0 1 2
11 18 18 41 32 28 39 36 19 35 45 34 30 67 100 152 8 3 5 1 0 2 0 0 3 0 0 0 14 8 2 0 0 0 0 0 0 0 0 0 0 1 0 2 3 2 0
12 18 14 29 33 58 46 41 45 47 57 30 42 63 71 35 3 1 0 0 0 7 0 0 1 0 0 2 0 7 0 0 0 0 0 0 0 0 0 0 0 0 0 0 0 1 2
15 12 30 35 33 33 26 63 49 48 8 32 24 10 2 0 0 0 0 0 0 0 0 0 0 5 1 8 9 7 1 0 0 0 0 0 0 0 3 0 0 2 3 1 1 0 0
19 24 36 41 23 24 106 43 78 71 21 11 7 13 0 2 10 0 0 0 0 0 0 0 0 2 2 1 1 0 0 0 0 0 0 0 0 0 0 0 1 1 0 0 0 0 0
26 30 35 32 27 17 68 89 52 44 21 17 30 16 9 13 9 0 0 0 0 0 0 0 0 0 3 7 2 0 0 0 0 0 1 0 0 0 0 0 0 2 0 0 0 0 0
26 35 35 25 32 18 59 50 20 16 2 29 3 1 0 12 0 0 0 0 0 0 1 0 0 7 2 2 0 0 0 0 1 2 1 1 0 0 0 0 1 0 0 0 0 0 0
22 20 15 23 24 23 52 48 16 15 15 0 0 0 4 11 0 0 0 0 0 0 0 0 0 2 0 0 0 0 0 0 0 4 1 0 0 0 1 0 1 0 0 0 0 0 0
3 8 16 15 19 15 27 51 34 9 6 0 0 1 12 2 0 0 0 0 1 3 0 0 3 2 0 0 0 1 0 0 0 0 0 0 1 0 0 0 0 0 0 0 0 0 0
8 6 3 8 6 7 22 26 48 1 0 0 0 1 4 0 0 0 0 0 1 0 0 0 0 0 0 0 0 0 0 0 0 0 0 0 0 0 0 0 0 0 0 0 0 0 0
9 15 0 7 9 6 1 8 28 26 1 0 0 7 0 0 0 0 0 1 2 0 0 0 0 0 0 0 0 0 0 0 0 0 0 0 0 0 0 0 0 0 0 0 0 0 0
8 16 3 1 5 6 4 7 9 7 0 0 0 0 0 0 0 0 0 0 0 0 0 0 0 0 0 0 0 0 0 0 0 0 0 0 0 0 0 0 0 0 0 0 0 0 0
5 13 4 8 4 7 3 0 0 0 0 0 0 0 0 0 0 0 0 0 0 0 0 0 0 0 0 0 0 0 0 0 0 0 0 0 0 0 0 0 0 0 0 0 0 0 0
1 8 6 6 5 3 1 0 0 0 0 0 0 0 0 0 0 0 0 0 0 0 0 0 0 0 0 0 0 0 0 0 0 0 0 0 0 0 0 0 0 0 0 0 0 0 0
6 5 5 3 3 1 0 0 0 0 0 0 0 0 0 0 0 0 0 0 0 0 0 0 0 0 0 0 0 0 0 0 0 0 0 0 0 0 0 0 0 0 0 0 0 0 0
3 6 10 3 11 0 0 0 0 0 0 0 0 0 0 0 0 0 0 0 0 0 0 0 0 0 0 0 0 0 0 0 0 0 0 0 0 0 0 0 0 0 0 0 0 0 0
2 5 12 1 7 0 0 0 0 0 0 0 0 0 0 0 0 0 0 0 0 0 0 0 0 0 0 0 0 0 0 0 0 0 0 0 0 0 0 0 0 0 0 0 0 0 0
1 7 7 0 3 0 0 0 0 0 0 0 0 0 0 0 0 0 0 0 0 0 0 0 0 0 0 0 0 0 0 0 0 0 0 0 0 0 0 0 0 0 0 0 0 0 0
1 1 12 0 7 0 0 0 0 0 0 0 0 0 0 0 0 0 0 0 0 0 0 0 0 0 0 0 0 0 0 0 0 0 0 0 0 0 0 0 0 0 0 0 0 0 0
0 0 4 0 6 0 0 0 0 0 0 0 0 0 0 0 0 0 0 0 0 0 0 0 0 0 0 0 0 0 0 0 0 0 0 0 0 0 0 0 0 0 0 0 0 0 0
0 0 0 1 0 1 0 0 0 0 0 0 0 0 0 0 0 0 0 0 0 0 0 0 0 0 0 0 0 0 0 0 0 0 0 0 0 0 0 0 0 0 0 0 0 0 0

GFSGBSN_con_mlcape_090.txt.gz
CAPE
10 12 10 15 0 2 25 29 19 22 29 42 56 88 45 30 19 4 8 10 10 8 1 61 2 0 0 0 0 0 0 0 0 0 0 0 0 0 0 0 0 0 0 0 0 0 0
38 35 38 29 15 4 40 28 62 51 34 55 75 72 72 56 31 10 6 10 17 13 7 79 1 3 0 0 0 0 0 0 0 0 0 0 0 0 0 0 0 0 0 0 0 0 0
83 34 135 22 14 17 6 42 53 36 29 49 100 77 77 57 30 15 13 3 1 20 15 119 0 0 0 0 0 12 12 0 0 0 0 0 0 0 0 0 0 0 0 0 0 0 0
113 102 10 16 23 8 23 83 124 69 91 104 123 117 93 75 25 7 7 7 59 72 80 29 0 0 0 0 0 0 0 0 0 0 0 0 0 0 0 0 0 0 0 0 0 0 0
17 23 42 25 33 13 35 79 171 148 172 136 140 149 108 108 18 7 0 203 249 161 26 3 10 0 0 0 0 0 0 0 0 0 0 0 0 0 0 0 0 0 0 0 0 0 0
31 22 27 31 7 12 30 37 44 96 90 90 153 185 129 79 9 16 0 17 26 24 6 4 1 0 0 0 0 0 0 0 0 0 0 0 0 0 0 0 0 0 0 0 0 0 0
23 23 20 11 27 31 27 30 60 54 32 65 137 111 50 86 24 27 0 0 0 0 1 3 0 0 0 0 0 0 0 0 0 0 0 1 0 0 0 0 0 0 0 0 0 0 0
9 16 19 18 29 20 27 34 40 33 70 83 82 53 65 92 30 40 0 4 3 1 1 14 1 0 0 0 0 0 0 0 0 0 0 0 0 0 0 0 0 0 0 0 0 0 5
6 15 21 21 28 43 53 33 28 25 90 27 8 7 10 21 1 18 0 0 3 5 2 2 0 0 0 0 0 0 0 0 0 0 0 0 0 0 0 0 0 0 2 0 1 1 0
16 18 14 23 27 37 55 82 103 98 4 43 27 6 9 15 0 5 0 1 2 0 0 0 4 3 0 0 4 0 0 0 3 0 0 0 0 0 0 0 0 1 0 2 1 0 0
23 5 10 17 15 21 75 70 236 78 84 27 28 14 13 0 0 0 3 2 0 0 0 0 0 1 0 0 0 3 0 0 0 0 0 0 0 0 0 0 1 0 1 2 3 1 0
18 10 7 2 0 30 91 120 84 40 18 19 23 0 0 0 0 0 0 0 0 0 0 0 0 3 2 15 4 0 0 0 0 0 0 0 0 0 0 1 1 0 2 2 0 0 0
19 13 11 3 2 23 45 29 25 11 3 14 9 0 0 0 0 0 0 0 0 0 0 0 1 0 2 2 0 0 0 0 0 1 0 0 0 0 0 0 0 1 0 0 0 0 0
22 20 13 3 2 15 7 32 23 10 17 4 0 0 0 0 0 0 0 0 0 0 0 0 0 0 0 2 0 0 0 0 0 0 0 0 0 0 0 0 1 2 0 0 0 0 0
13 20 15 4 20 26 6 33 17 5 5 0 0 0 0 0 0 0 0 0 0 0 1 1 5 2 3 7 0 0 0 0 1 3 0 0 0 0 0 0 1 0 0 1 0 0 0
11 20 21 8 10 17 31 4 6 7 0 0 0 0 0 0 0 0 0 0 0 0 0 0 0 0 0 0 0 0 0 0 1 2 0 1 0 0 0 0 0 2 0 0 0 0 0
2 14 19 14 0 10 4 30 8 9 2 0 0 0 0 0 0 0 0 0 0 0 0 0 0 0 0 0 0 1 0 0 0 0 0 0 0 0 0 0 0 0 0 0 0 0 0
0 15 9 16 3 1 1 1 22 0 0 0 0 0 0 0 0 0 0 0 0 0 0 0 0 0 0 0 0 0 0 0 0 0 0 0 0 0 0 0 0 0 0 0 0 0 0
3 13 5 8 7 2 0 0 0 0 0 0 0 0 0 0 0 0 0 0 0 0 0 0 0 0 0 0 0 0 0 0 0 0 0 0 0 0 0 0 0 0 0 0 0 0 0
1 9 2 4 10 5 0 0 0 0 0 0 0 0 0 0 0 0 0 0 0 0 0 0 0 0 0 0 0 0 0 0 0 0 0 0 0 0 0 0 0 0 0 0 0 0 0
8 4 8 4 5 2 0 0 0 0 0 0 0 0 0 0 0 0 0 0 0 0 0 0 0 0 0 0 0 0 0 0 0 0 0 0 0 0 0 0 0 0 0 0 0 0 0
8 3 4 11 2 0 0 0 0 0 0 0 0 0 0 0 0 0 0 0 0 0 0 0 0 0 0 0 0 0 0 0 0 0 0 0 0 0 0 0 0 0 0 0 0 0 0
7 2 6 18 0 0 0 0 0 0 0 0 0 0 0 0 0 0 0 0 0 0 0 0 0 0 0 0 0 0 0 0 0 0 0 0 0 0 0 0 0 0 0 0 0 0 0
6 4 4 16 0 0 0 0 0 0 0 0 0 0 0 0 0 0 0 0 0 0 0 0 0 0 0 0 0 0 0 0 0 0 0 0 0 0 0 0 0 0 0 0 0 0 0
1 7 1 3 0 0 0 0 0 0 0 0 0 0 0 0 0 0 0 0 0 0 0 0 0 0 0 0 0 0 0 0 0 0 0 0 0 0 0 0 0 0 0 0 0 0 0
0 8 0 0 8 0 0 0 0 0 0 0 0 0 0 0 0 0 0 0 0 0 0 0 0 0 0 0 0 0 0 0 0 0 0 0 0 0 0 0 0 0 0 0 0 0 0
0 5 2 0 0 0 0 0 0 0 0 0 0 0 0 0 0 0 0 0 0 0 0 0 0 0 0 0 0 0 0 0 0 0 0 0 0 0 0 0 0 0 0 0 0 0 0
0 1 4 0 0 0 0 0 0 0 0 0 0 0 0 0 0 0 0 0 0 0 0 0 0 0 0 0 0 0 0 0 0 0 0 0 0 0 0 0 0 0 0 0 0 0 0
0 0 2 0 0 0 0 0 0 0 0 0 0 0 0 0 0 0 0 0 0 0 0 0 0 0 0 0 0 0 0 0 0 0 0 0 0 0 0 0 0 0 0 0 0 0 0

GFSGBSN_con_mlcape_093.txt.gz
CAPE
59 84 93 60 69 23 16 13 33 30 41 29 20 46 43 35 35 47 29 18 19 22 7 2 17 0 0 0 0 0 0 5 0 0 0 0 0 0 0 0 0 0 0 0 0 0 0
11 13 7 13 46 35 27 19 32 31 35 0 11 73 55 34 65 54 40 12 10 19 21 5 85 1 0 0 0 0 0 0 0 0 0 0 0 0 0 0 0 0 0 0 0 0 0
32 0 15 14 15 19 11 20 33 55 72 77 50 91 106 105 67 42 26 7 15 6 20 9 69 0 0 0 0 0 0 0 0 0 0 0 0 0 0 0 0 0 0 0 0 0 0
21 0 13 24 14 14 28 21 19 35 40 65 116 138 131 126 64 16 9 3 5 39 52 41 11 0 0 0 15 14 0 0 0 0 0 0 0 0 0 0 0 0 0 0 0 0 0
7 0 9 6 12 9 8 20 18 26 24 24 26 66 0 84 101 25 0 0 124 172 106 138 0 0 1 0 15 0 0 0 0 0 0 0 0 0 0 0 0 0 0 0 0 0 0
3 5 11 12 13 15 13 20 30 46 27 28 4 43 73 20 66 47 0 0 12 2 0 0 0 0 0 0 0 0 0 0 0 0 0 0 0 0 0 0 0 0 0 0 0 0 0
2 12 15 22 21 16 23 46 49 6 55 31 47 61 50 6 41 0 0 0 2 0 1 3 0 0 0 0 0 0 0 0 0 0 0 0 0 0 0 0 0 0 0 0 0 0 0
16 20 20 34 25 19 25 85 74 11 11 79 22 20 15 39 16 4 0 1 3 1 2 9 4 2 0 0 0 0 0 0 0 0 0 0 0 0 0 0 0 0 0 0 0 0 0
30 29 18 31 23 17 83 211 147 119 56 6 9 0 0 12 14 0 1 0 25 1 0 1 5 0 2 0 0 0 0 0 0 0 0 0 0 0 0 0 0 0 2 0 0 0 0
49 37 29 25 26 33 60 55 89 56 30 1 0 0 17 0 0 0 5 2 5 0 0 0 1 5 0 3 0 0 0 0 0 0 0 0 0 0 0 1 0 2 0 0 0 0 0
43 45 31 24 25 4 13 41 47 23 3 0 0 6 8 0 0 0 7 11 1 0 0 0 0 0 0 0 0 7 0 0 0 1 0 0 0 0 1 0 0 0 0 2 2 0 0
25 39 35 45 9 0 4 17 10 0 0 26 13 15 0 0 0 0 3 0 0 0 0 0 0 0 3 6 8 5 2 0 0 0 0 0 0 0 0 0 1 0 3 2 1 0 0
21 38 40 37 7 0 5 18 22 1 0 0 0 0 0 0 0 0 0 0 0 0 0 0 0 0 0 2 0 0 0 0 0 0 0 0 0 0 0 1 1 0 1 0 0 0 0
21 39 38 24 12 0 3 7 30 19 0 0 0 0 0 0 0 0 0 0 0 0 0 0 0 0 0 0 0 0 0 0 0 0 0 0 0 0 0 0 1 2 0 0 0 0 0
12 31 35 24 16 0 3 4 7 7 0 0 0 0 0 0 0 0 0 0 0 0 0 0 0 0 0 3 0 0 0 0 0 0 0 0 0 0 0 0 0 1 0 1 0 0 0
10 26 27 30 19 9 0 0 0 0 0 0 0 0 0 0 0 0 0 0 0 0 0 0 0 0 0 0 0 0 0 0 0 1 0 1 0 0 0 0 0 3 3 0 0 0 0
5 14 24 30 24 7 0 16 0 0 0 0 0 0 0 0 0 0 0 1 0 0 0 0 0 0 0 0 0 0 0 0 0 1 0 0 0 0 0 0 0 0 0 0 0 0 0
5 8 16 23 17 2 0 0 0 0 0 0 0 0 0 0 0 0 0 0 0 0 0 0 0 0 0 0 0 1 0 0 0 0 0 0 0 0 0 0 0 0 0 0 0 0 0
3 6 13 17 12 0 0 0 0 0 0 0 0 0 0 0 0 0 0 0 0 0 0 0 0 0 0 0 0 0 0 0 0 0 0 0 0 0 0 0 0 0 0 0 0 0 0
5 2 6 22 1 0 0 0 0 0 0 0 0 0 0 0 0 0 0 0 0 0 0 0 0 0 0 0 0 0 0 0 0 0 0 0 0 0 0 0 0 0 0 0 0 0 0
6 0 15 12 0 0 0 0 0 0 0 0 0 0 0 0 0 0 0 0 0 0 0 0 0 0 0 0 0 0 0 0 0 0 0 0 0 0 0 0 0 0 0 0 0 0 0
6 0 14 0 1 0 0 0 0 0 0 0 0 0 0 0 0 0 0 0 0 0 0 0 0 0 0 0 0 0 0 0 0 0 0 0 0 0 0 0 0 0 0 0 0 0 0
3 0 5 2 0 0 0 0 0 0 0 0 0 0 0 0 0 0 0 0 0 0 0 0 0 0 0 0 0 0 0 0 0 0 0 0 0 0 0 0 0 0 0 0 0 0 0
0 4 1 10 0 0 0 0 0 0 0 0 0 0 0 0 0 0 0 0 0 0 0 0 0 0 0 0 0 0 0 0 0 0 0 0 0 0 0 0 0 0 0 0 0 0 0
0 0 1 4 0 0 0 0 0 0 0 0 0 0 0 0 0 0 0 0 0 0 0 0 0 0 0 0 0 0 0 0 0 0 0 0 0 0 0 0 0 0 0 0 0 0 0
0 0 0 0 2 0 0 0 0 0 0 0 0 0 0 0 0 0 0 0 0 0 0 0 0 0 0 0 0 0 0 0 0 0 0 0 0 0 0 0 0 0 0 0 0 0 0
0 0 0 0 0 0 0 0 0 0 0 0 0 0 0 0 0 0 0 0 0 0 0 0 0 0 0 0 0 0 0 0 0 0 0 0 0 0 0 0 0 0 0 0 0 0 0
0 0 0 0 0 0 0 0 0 0 0 0 0 0 0 0 0 0 0 0 0 0 0 0 0 0 0 0 0 0 0 0 0 0 0 0 0 0 0 0 0 0 0 0 0 0 0
0 0 0 0 0 0 0 0 0 0 0 0 0 0 0 0 0 0 0 0 0 0 0 0 0 0 0 0 0 0 0 0 0 0 0 0 0 0 0 0 0 0 0 0 0 0 0

GFSGBSN_con_mlcape_096.txt.gz
CAPE
11 10 0 4 10 10 11 9 0 20 24 12 8 10 29 97 66 14 20 33 42 19 5 25 0 28 0 0 0 0 0 15 0 0 0 0 0 0 0 0 0 0 0 0 0 0 0
18 8 4 7 16 10 8 16 21 21 19 26 32 30 34 139 108 14 18 52 46 39 13 15 7 21 0 11 0 0 0 0 0 0 0 0 0 0 0 0 0 0 0 0 0 0 0
27 9 10 19 7 11 15 31 32 16 10 25 25 28 38 153 195 124 79 39 40 46 40 14 6 0 0 0 3 0 0 0 0 0 0 0 0 0 0 0 0 0 0 0 0 0 0
17 13 17 15 13 29 31 34 35 34 16 24 28 14 53 17 132 137 49 6 22 25 15 18 26 0 0 0 4 0 0 0 0 0 0 0 0 0 0 0 0 0 0 0 0 0 0
11 15 28 24 34 52 75 108 138 123 80 62 21 0 17 49 21 66 3 0 0 188 173 48 6 0 0 3 23 0 0 0 0 0 0 0 0 0 0 0 0 0 0 0 0 0 0
16 20 30 46 84 100 151 197 209 221 124 28 20 12 30 12 13 7 0 0 0 123 88 3 0 0 0 0 0 0 0 0 0 0 0 0 0 0 0 0 0 0 0 0 0 0 0
1 24 31 47 84 105 198 273 236 104 201 5 49 32 15 4 1 0 0 0 0 7 0 3 2 0 0 0 0 0 0 0 0 0 0 0 0 0 0 0 0 0 0 0 0 0 0
7 29 39 67 73 46 112 213 175 9 3 3 24 14 0 8 2 0 0 0 1 1 1 8 0 0 0 0 0 0 0 0 0 0 0 0 0 0 0 0 0 0 0 0 0 0 0
7 35 37 70 37 12 20 118 32 21 14 8 5 0 0 1 16 0 0 0 1 5 0 3 1 3 1 0 0 0 0 0 0 0 0 0 0 0 0 0 0 0 0 0 0 0 0
5 36 47 40 44 11 9 26 48 8 0 5 0 0 0 0 0 8 2 11 16 1 0 0 1 1 9 0 0 0 0 0 0 0 0 0 0 0 0 0 0 1 0 0 0 0 0
5 25 39 23 31 5 0 32 5 2 48 35 10 0 0 0 0 0 0 1 2 0 0 0 0 0 21 1 0 2 0 0 0 0 0 0 0 0 0 0 0 0 0 2 1 1 0
8 39 32 17 18 8 0 2 20 15 5 1 0 0 0 0 0 0 1 4 0 0 0 0 1 8 0 8 4 8 0 0 0 0 0 0 0 0 0 0 0 0 0 0 2 0 0
5 33 29 26 18 7 4 2 1 4 0 0 0 0 0 0 1 0 0 0 0 0 0 0 0 2 0 0 0 0 0 0 0 0 0 0 0 0 0 0 0 1 0 0 0 0 0
5 22 31 25 8 9 2 3 0 0 0 0 0 0 0 0 0 0 0 0 0 3 2 0 0 0 0 0 0 0 0 0 0 0 0 0 0 0 0 0 2 1 0 0 0 0 0
7 15 30 22 6 1 0 0 0 0 0 0 0 0 0 0 0 0 0 0 0 0 0 0 0 0 0 0 0 0 0 0 0 0 0 0 0 0 0 0 0 2 0 1 0 0 0
3 7 25 18 9 0 1 0 0 0 0 0 0 0 0 0 0 0 0 1 0 0 0 0 0 0 0 0 0 0 0 0 0 0 0 0 0 0 0 0 0 1 0 0 0 0 0
2 5 30 27 6 0 0 0 0 0 0 0 0 0 0 0 0 0 0 0 0 0 0 0 0 0 0 0 0 0 0 0 0 2 0 0 0 0 0 0 0 0 0 0 0 0 0
1 9 26 27 0 0 0 0 0 0 0 0 0 0 0 0 0 0 0 0 0 0 0 0 0 0 0 0 0 0 0 0 0 0 0 0 0 0 0 0 0 0 0 0 0 0 0
1 8 13 8 0 0 0 0 0 0 0 0 0 0 0 0 0 0 0 0 0 0 0 0 0 0 0 0 0 0 0 0 0 0 0 0 0 0 0 0 0 0 0 0 0 0 0
0 5 9 0 0 0 0 0 0 0 0 0 0 0 0 0 0 0 0 0 0 0 0 0 0 0 0 0 0 0 0 0 0 0 0 0 0 0 0 0 0 0 0 0 0 0 0
0 1 11 0 0 0 0 0 0 0 0 0 0 0 0 0 0 0 0 0 0 0 0 0 0 0 0 0 0 0 0 0 0 0 0 0 0 0 0 0 0 0 0 0 0 0 0
0 0 4 0 0 0 0 0 0 0 0 0 0 0 0 0 0 0 0 0 0 0 0 0 0 0 0 0 0 0 0 0 0 0 0 0 0 0 0 0 0 0 0 0 0 0 0
0 0 1 0 0 0 0 0 0 0 0 0 0 0 0 0 0 0 0 0 0 0 0 0 0 0 0 0 0 0 0 0 0 0 0 0 0 0 0 0 0 0 0 0 0 0 0
0 0 0 0 0 0 0 0 0 0 0 0 0 0 0 0 0 0 0 0 0 0 0 0 0 0 0 0 0 0 0 0 0 0 0 0 0 0 0 0 0 0 0 0 0 0 0
0 0 0 0 0 0 0 0 0 0 0 0 0 0 0 0 0 0 0 0 0 0 0 0 0 0 0 0 0 0 0 0 0 0 0 0 0 0 0 0 0 0 0 0 0 0 0
0 0 0 2 0 0 0 0 0 0 0 0 0 0 0 0 0 0 0 0 0 0 0 0 0 0 0 0 0 0 0 0 0 0 0 0 0 0 0 0 0 0 0 0 0 0 0
0 0 0 0 0 0 0 0 0 0 0 0 0 0 0 0 0 0 0 0 0 0 0 0 0 0 0 0 0 0 0 0 0 0 0 0 0 0 0 0 0 0 0 0 0 0 0
0 0 0 0 0 0 0 0 0 0 0 0 0 0 0 0 0 0 0 0 0 0 0 0 0 0 0 0 0 0 0 0 0 0 0 0 0 0 0 0 0 0 0 0 0 0 0
1 0 0 0 0 0 0 0 0 0 0 0 0 0 0 0 0 0 0 0 0 0 0 0 0 0 0 0 0 0 0 0 0 0 0 0 0 0 0 0 0 0 0 0 0 0 0

GFSGBSN_con_mlcape_099.txt.gz
CAPE
38 27 9 18 17 7 20 12 37 39 43 45 37 21 26 23 36 63 48 23 32 32 27 0 20 15 0 0 0 0 33 7 0 0 0 0 0 0 0 0 0 0 0 0 0 0 0
9 16 19 16 15 15 25 44 79 86 99 70 61 35 1 16 41 26 19 5 17 25 36 16 3 12 0 16 0 0 0 0 0 0 0 0 0 0 0 0 0 0 0 0 0 0 0
14 10 15 27 29 52 99 170 202 181 168 141 104 75 63 57 78 15 71 11 3 38 41 59 24 7 3 0 0 0 0 0 0 0 0 0 0 0 0 0 0 0 0 0 0 0 0
15 19 40 63 70 74 190 225 244 224 190 168 126 57 48 23 14 5 118 12 17 37 36 31 40 1 0 0 0 0 0 0 0 0 0 0 0 0 0 0 0 0 0 0 0 0 0
10 33 51 66 66 72 141 237 202 188 148 152 89 31 29 23 0 29 3 0 0 31 158 75 29 2 2 19 0 0 0 0 0 0 0 0 0 0 0 0 0 0 0 0 0 0 0
12 39 57 39 25 28 118 189 184 70 44 42 8 36 0 2 0 0 0 0 18 79 88 47 5 0 2 0 0 0 0 0 0 0 0 0 0 0 0 0 0 0 0 0 0 0 0
10 45 59 20 28 51 143 110 8 29 39 44 32 0 1 3 0 0 0 0 3 23 7 29 4 2 1 0 0 0 0 0 0 0 0 0 0 0 0 0 0 0 0 0 0 0 0
7 44 36 23 36 46 166 151 49 36 45 11 0 2 8 50 0 0 0 0 0 0 0 5 1 6 0 0 0 0 0 0 0 0 0 0 0 0 0 0 0 0 0 0 0 0 0
11 43 22 34 23 15 18 112 58 39 14 1 1 0 27 13 0 0 0 0 0 3 0 1 8 5 2 0 0 0 0 0 0 0 0 0 0 0 0 0 0 0 0 0 0 0 0
1 36 14 28 22 15 1 7 7 4 2 11 1 0 0 28 0 1 1 0 2 0 0 0 1 0 2 0 0 0 0 0 0 0 0 0 0 0 0 0 0 0 0 0 0 0 0
7 23 29 24 23 11 3 3 5 5 0 0 0 0 0 0 0 0 0 0 0 0 0 0 1 0 13 0 0 0 0 0 0 0 0 0 0 0 0 0 0 0 0 0 0 1 1
2 11 34 1 13 4 5 2 1 1 0 0 0 0 0 0 0 0 0 0 0 0 0 0 2 5 5 2 0 0 0 0 0 0 0 0 0 0 0 0 0 0 0 0 1 0 0
1 19 21 21 2 4 1 0 0 0 0 0 0 0 0 0 0 0 0 0 0 0 0 0 1 4 0 0 0 0 0 0 0 0 0 0 0 0 0 0 0 1 0 0 0 0 0
3 10 13 20 5 0 0 0 0 0 0 0 0 0 0 0 0 0 0 0 0 1 1 0 1 0 0 0 0 0 0 0 0 0 0 0 0 0 0 0 0 1 0 0 0 0 0
1 2 22 11 10 2 0 0 0 0 0 0 0 0 0 0 0 0 0 0 0 0 0 0 0 0 0 0 0 0 0 0 0 0 0 0 0 0 0 0 0 1 0 1 1 0 0
4 6 12 7 0 0 0 0 0 0 0 0 0 0 0 0 0 0 0 1 0 0 0 0 0 0 0 0 0 0 0 0 2 0 0 1 0 0 0 0 0 1 1 0 0 0 0
1 15 8 0 0 0 0 0 0 0 0 0 0 0 0 0 0 0 0 0 0 0 0 0 0 0 0 0 0 0 0 0 0 0 0 0 0 0 0 0 0 0 0 0 0 0 0
1 14 1 0 0 0 0 0 0 0 0 0 0 0 0 0 0 0 0 0 0 0 0 0 0 0 0 0 0 0 0 0 0 0 0 0 0 0 0 0 0 0 0 0 0 0 0
3 6 8 0 0 0 0 0 0 0 0 0 0 0 0 0 0 0 0 0 0 0 0 0 0 0 0 0 0 0 0 0 0 0 0 0 0 0 0 0 0 0 0 0 0 0 0
0 4 9 1 0 0 0 0 0 0 0 0 0 0 0 0 0 0 0 0 0 0 0 0 0 0 0 0 0 0 0 0 0 0 0 0 0 0 0 0 0 0 0 0 0 0 0
0 3 4 6 0 0 0 0 0 0 0 0 0 0 0 0 0 0 0 0 0 0 0 0 0 0 0 0 0 0 0 0 0 0 0 0 0 0 0 0 0 0 0 0 0 0 0
0 0 2 5 2 0 0 0 0 0 0 0 0 0 0 0 0 0 0 0 0 0 0 0 0 0 0 0 0 0 0 0 0 0 0 0 0 0 0 0 0 0 0 0 0 0 0
0 0 0 2 3 0 0 0 0 0 0 0 0 0 0 0 0 0 0 0 0 0 0 0 0 0 0 0 0 0 0 0 0 0 0 0 0 0 0 0 0 0 0 0 0 0 0
0 0 0 0 0 0 0 0 0 0 0 0 0 0 0 0 0 0 0 0 0 0 0 0 0 0 0 0 0 0 0 0 0 0 0 0 0 0 0 0 0 0 0 0 0 0 0
0 0 0 0 0 0 0 0 0 0 0 0 0 0 0 0 0 0 0 0 0 0 0 0 0 0 0 0 0 0 0 0 0 0 0 0 0 0 0 0 0 0 0 0 0 0 0
0 0 0 0 0 0 0 0 0 0 0 0 0 0 0 0 0 0 0 0 0 0 0 0 0 0 0 0 0 0 0 0 0 0 0 0 0 0 0 0 0 0 0 0 0 0 0
0 0 0 0 0 0 0 0 0 0 0 0 0 0 0 0 0 0 0 0 0 0 0 0 0 0 0 0 0 0 0 0 0 0 0 0 0 0 0 0 0 0 0 0 0 0 0
0 0 0 0 0 0 0 0 0 0 0 0 0 0 0 0 0 0 0 0 0 0 0 0 0 0 0 0 0 0 0 0 0 0 0 0 0 0 0 0 0 0 0 0 0 0 0
0 0 0 0 0 0 0 0 0 0 0 0 0 0 0 0 0 0 0 0 0 0 0 0 0 0 0 0 0 0 0 0 0 0 0 0 0 0 0 0 0 0 0 0 0 0 0

GFSGBSN_con_mlcape_102.txt.gz
CAPE
5 11 23 42 53 68 87 122 129 112 108 123 75 59 60 52 25 23 7 3 13 28 10 0 2 54 0 0 0 0 17 1 0 0 0 0 0 0 0 0 0 0 0 0 0 0 0
10 22 38 61 79 129 254 256 248 266 129 206 139 65 55 19 12 0 0 8 6 4 9 19 11 54 1 8 0 0 0 0 0 0 0 0 0 0 0 0 0 0 0 0 0 0 0
7 36 39 49 59 138 221 240 225 300 247 239 199 108 86 42 28 5 4 14 0 0 0 22 43 52 24 7 0 0 0 0 0 0 0 0 0 0 0 0 0 0 0 0 0 0 0
19 38 29 8 53 233 186 172 230 163 152 121 69 84 7 0 0 0 13 19 20 3 17 14 60 3 14 0 0 0 0 0 0 0 0 0 0 0 0 0 0 0 0 0 0 0 0
19 41 10 25 67 131 93 132 12 81 53 0 55 18 7 7 0 1 0 0 0 12 50 42 19 8 8 3 0 0 0 0 0 0 0 0 0 0 0 0 0 0 0 0 0 0 0
31 20 20 21 21 91 60 72 18 4 1 0 0 16 30 44 0 0 0 83 155 135 58 0 1 7 14 0 0 0 0 0 0 0 0 0 0 0 0 0 0 0 0 0 0 0 0
28 13 31 15 14 6 6 32 34 46 48 37 27 32 28 0 0 0 0 0 4 0 40 0 0 8 0 0 0 0 0 0 0 0 0 0 0 0 0 0 0 0 0 0 0 0 0
25 14 25 24 12 4 6 10 12 6 6 5 11 40 24 0 0 0 0 0 0 0 0 2 13 3 3 0 1 0 0 0 0 0 0 0 0 0 0 0 0 0 0 0 0 0 0
18 30 8 22 16 12 13 8 8 12 27 2 1 31 10 0 1 0 0 2 0 0 0 2 6 6 2 0 0 0 0 0 0 0 0 0 0 0 0 0 0 0 0 0 0 0 0
16 25 11 16 17 3 8 5 0 0 1 14 10 0 10 16 0 0 2 4 2 0 0 0 0 0 2 2 0 0 0 0 0 0 0 0 0 0 0 0 0 0 0 0 1 1 0
7 24 13 0 1 0 0 0 0 0 0 0 0 2 0 0 0 0 1 0 0 0 0 0 1 0 0 0 0 0 0 0 0 0 0 0 0 0 0 0 0 0 0 0 2 0 2
6 15 23 5 0 0 0 0 0 2 0 0 0 0 0 0 0 0 0 0 0 0 0 0 2 7 8 1 0 0 0 0 0 0 0 0 0 0 0 0 0 0 0 1 5 1 0
3 11 17 15 1 0 0 0 0 0 0 0 0 0 0 0 0 0 0 0 0 0 0 0 3 3 1 0 0 0 0 0 0 0 0 0 0 0 0 0 0 1 1 0 0 0 0
3 12 18 9 4 1 2 1 1 5 0 0 0 0 0 0 0 0 0 0 0 2 2 1 2 0 0 0 0 0 0 0 0 0 0 0 0 0 0 0 0 3 0 0 0 1 2
8 24 12 8 4 5 4 3 1 0 0 3 0 0 0 0 0 0 0 0 0 0 0 2 0 0 1 0 0 0 0 1 0 0 0 0 0 0 0 0 0 1 0 1 1 0 1
8 17 3 2 1 1 4 4 1 0 0 0 0 0 0 0 0 0 0 0 0 0 0 0 0 0 0 0 0 0 0 0 1 0 0 0 0 0 0 0 0 1 4 1 1 1 0
8 7 2 2 0 0 0 0 0 0 0 0 0 0 0 0 0 0 0 0 0 0 0 0 0 0 0 0 0 0 0 0 0 0 1 0 0 0 0 0 0 2 2 0 1 0 1
2 3 5 0 0 0 0 0 0 0 0 0 0 0 0 0 0 0 0 0 0 0 0 0 0 0 0 0 0 0 0 0 0 0 0 0 0 0 0 0 0 0 0 0 0 0 0
0 5 9 4 0 0 0 0 0 0 0 0 0 0 0 0 0 0 0 0 0 0 0 0 0 0 0 0 0 0 0 0 0 0 0 0 0 0 0 0 0 0 0 0 0 0 0
0 1 3 5 0 0 0 0 0 0 0 0 0 0 0 0 0 0 0 0 0 0 0 0 0 0 0 0 0 0 0 0 0 0 0 0 0 0 0 0 0 0 0 0 0 0 0
0 0 0 1 6 0 0 0 0 0 0 0 0 0 0 0 0 0 0 0 0 0 0 0 0 0 0 0 0 0 0 0 0 0 0 0 0 0 0 0 0 0 0 0 0 0 0
0 0 1 0 4 0 0 0 0 0 0 0 0 0 0 0 0 0 0 0 0 0 0 0 0 0 0 0 0 0 0 0 0 0 0 0 0 0 0 0 0 0 0 0 0 0 0
0 0 0 2 2 0 0 0 0 0 0 0 0 0 0 0 0 0 0 0 0 0 0 0 0 0 0 0 0 0 0 0 0 0 0 0 0 0 0 0 0 0 0 0 0 0 0
0 0 0 0 1 0 0 0 0 0 0 0 0 0 0 0 0 0 0 0 0 0 0 0 0 0 0 0 0 0 0 0 0 0 0 0 0 0 0 0 0 0 0 0 0 0 0
0 0 0 0 0 0 0 0 0 0 0 0 0 0 0 0 0 0 0 0 0 0 0 0 0 0 0 0 0 0 0 0 0 0 0 0 0 0 0 0 0 0 0 0 0 0 0
0 0 0 0 0 0 0 0 0 0 0 0 0 0 0 0 0 0 0 0 0 0 0 0 0 0 0 0 0 0 0 0 0 0 0 0 0 0 0 0 0 0 0 0 0 0 0
0 0 0 0 0 0 0 0 0 0 0 0 0 0 0 0 0 0 0 0 0 0 0 0 0 0 0 0 0 0 0 0 0 0 0 0 0 0 0 0 0 0 0 0 0 0 0
0 0 0 0 0 0 0 0 0 0 0 0 0 0 0 0 0 0 0 0 0 0 0 0 0 0 0 0 0 0 0 0 0 0 0 0 0 0 0 0 0 0 0 0 0 0 0
0 0 0 0 0 0 0 0 0 0 0 0 0 0 0 0 0 0 0 0 0 0 0 0 0 0 0 0 0 0 0 0 0 0 0 0 0 0 0 0 0 0 0 0 0 0 0

GFSGBSN_con_mlcape_105.txt.gz
CAPE
28 33 24 16 58 153 213 235 207 270 267 123 103 130 73 52 45 21 6 10 41 21 21 0 0 81 4 14 0 0 8 1 0 0 0 0 0 0 0 0 0 0 0 0 0 0 0
36 28 18 22 41 61 166 141 55 174 279 63 127 91 73 22 10 11 0 16 25 11 3 3 0 53 32 41 0 0 8 0 0 0 0 0 0 0 0 0 0 0 0 0 0 0 0
31 15 15 24 25 22 36 69 58 139 86 98 46 28 26 94 52 28 10 0 0 7 0 1 1 40 30 16 0 0 0 0 0 0 0 0 0 0 0 0 0 0 0 0 0 0 0
32 21 12 10 9 9 21 15 108 145 114 69 23 0 27 16 22 10 27 37 24 0 0 2 18 19 26 1 0 0 0 0 0 0 0 0 0 0 0 0 0 0 0 0 0 0 0
28 32 20 24 7 7 11 6 1 9 27 31 45 31 3 16 5 24 0 0 0 12 13 1 16 23 18 0 0 0 0 0 0 0 0 0 0 0 0 0 0 0 0 0 0 0 0
27 16 34 21 8 4 7 10 5 12 22 26 25 53 61 16 2 0 34 65 21 30 25 15 17 7 2 1 0 3 0 0 0 0 0 0 0 0 0 0 0 0 0 0 0 0 0
24 2 28 13 6 6 3 5 9 2 8 25 57 9 0 0 0 0 21 10 13 0 15 9 0 7 2 0 0 0 0 0 0 0 0 0 0 0 0 0 0 0 0 0 0 0 0
28 22 9 13 13 6 2 3 1 4 1 10 53 20 0 0 0 0 0 6 2 0 0 1 11 5 8 11 6 0 0 0 0 0 0 0 0 0 0 0 0 0 0 0 0 0 0
19 30 2 6 14 6 1 2 6 24 33 39 20 15 7 7 1 6 0 0 0 0 0 1 6 4 1 3 1 0 0 0 0 0 0 0 0 0 0 0 0 0 0 0 0 0 0
4 32 16 0 4 11 7 7 10 1 1 18 15 13 8 1 0 4 2 6 1 1 0 0 0 0 3 4 1 0 0 0 0 0 0 0 0 0 0 0 0 0 0 0 0 0 0
6 12 42 3 0 0 4 5 12 20 0 0 0 0 6 0 1 3 0 0 0 0 0 0 2 0 0 0 0 0 0 0 0 0 0 0 0 0 0 0 0 0 0 0 2 0 1
8 16 29 18 5 7 7 11 15 25 15 1 0 0 0 0 0 0 1 0 0 1 0 0 4 2 3 0 0 0 0 0 0 0 0 0 0 0 0 0 0 0 0 1 0 0 0
11 4 8 18 4 5 8 12 11 13 10 4 0 0 0 0 4 0 0 0 0 0 0 1 1 2 0 0 0 0 0 0 0 0 0 0 0 0 0 0 0 0 1 0 1 0 0
14 3 1 0 3 1 0 1 6 5 5 0 0 0 0 0 0 0 0 0 0 5 4 0 3 0 0 0 0 0 0 0 0 0 0 0 0 0 0 0 0 0 2 0 0 1 0
11 15 2 0 0 0 0 0 0 1 2 0 0 0 0 0 0 0 0 0 1 2 1 2 0 0 0 0 0 1 2 2 1 0 0 0 0 0 0 3 1 0 1 3 0 0 0
5 10 3 1 0 0 0 0 0 0 0 0 0 0 0 0 0 0 0 0 0 0 0 0 0 0 0 0 0 1 0 0 0 0 0 0 1 0 0 0 1 1 0 1 0 1 0
0 5 4 4 0 0 0 0 0 0 0 0 0 0 0 0 0 0 5 3 0 0 0 0 0 0 0 0 1 0 0 0 0 0 0 1 0 0 0 0 1 0 1 0 1 0 1
0 5 6 6 1 0 0 0 0 0 0 0 0 0 0 0 0 0 0 0 0 0 0 0 0 0 0 0 3 1 0 0 0 2 2 0 0 0 0 0 0 0 1 0 0 2 1
0 0 0 4 0 0 0 0 0 0 0 0 0 0 0 0 1 0 0 0 0 0 0 0 0 0 0 0 0 0 0 0 0 1 1 0 0 0 0 0 0 0 0 0 0 0 0
0 0 1 2 1 0 0 0 0 0 0 0 0 0 0 0 0 0 0 0 0 0 0 0 0 0 0 0 0 0 0 0 0 0 0 0 0 0 0 0 0 0 0 0 0 0 0
0 0 0 2 3 0 0 0 0 0 0 0 0 0 0 0 0 0 0 0 0 0 0 0 0 0 0 0 0 0 0 0 0 0 0 0 0 0 0 0 0 0 0 0 0 0 0
0 0 0 1 0 0 0 0 0 0 0 0 0 0 0 0 0 0 0 0 0 0 0 0 0 0 0 0 0 0 0 0 0 0 0 0 0 0 0 0 0 0 0 0 0 0 0
0 0 0 0 0 0 0 0 0 0 0 0 0 0 0 0 0 0 0 0 0 0 0 0 0 0 0 0 0 0 0 0 0 0 0 0 0 0 0 0 0 0 0 0 0 0 0
0 0 0 0 0 0 0 0 0 0 0 0 0 0 0 0 0 0 0 0 0 0 0 0 0 0 0 0 0 0 0 0 0 0 0 0 0 0 0 0 0 0 0 0 0 0 0
0 0 0 0 0 0 0 0 0 0 0 0 0 0 0 0 0 0 0 0 0 0 0 0 0 0 0 0 0 0 0 0 0 0 0 0 0 0 0 0 0 0 0 0 0 0 0
0 0 0 0 0 0 0 0 0 0 0 0 0 0 0 0 0 0 0 0 0 0 0 0 0 0 0 0 0 0 0 0 0 0 0 0 0 0 0 0 0 0 0 0 0 0 0
0 0 0 0 0 0 0 0 0 0 0 0 0 0 0 0 0 0 0 0 0 0 0 0 0 0 0 0 0 0 0 0 0 0 0 0 0 0 0 0 0 0 0 0 0 0 0
0 0 0 0 0 0 0 0 0 0 0 0 0 0 0 0 0 0 0 0 0 0 0 0 0 0 0 0 0 0 0 0 0 0 0 0 0 0 0 0 0 0 0 0 0 0 0
0 0 0 0 0 0 0 0 0 0 0 0 0 0 0 0 0 0 0 0 0 0 0 0 0 0 0 0 0 0 0 0 0 0 0 0 0 0 0 0 0 0 0 0 0 0 0

GFSGBSN_con_mlcape_108.txt.gz
CAPE
13 12 31 22 27 13 14 19 30 42 189 78 63 87 72 70 125 80 34 42 108 95 30 0 0 74 36 25 6 0 10 0 0 0 0 0 0 0 0 0 0 0 0 0 0 0 0
6 12 21 23 32 11 2 20 104 125 132 74 54 85 60 65 87 69 89 68 84 44 12 0 0 43 29 31 0 0 5 0 0 0 0 0 0 0 0 0 0 0 0 0 0 0 0
2 36 25 13 6 16 13 1 8 114 67 33 31 66 85 150 137 92 55 3 21 40 19 9 0 84 50 14 1 0 0 0 0 0 0 0 0 0 0 0 0 0 0 0 0 0 0
2 31 15 10 13 18 12 14 10 29 95 120 27 52 43 77 34 30 57 39 0 0 0 11 3 24 41 7 0 0 0 0 0 0 0 0 0 0 0 0 0 0 0 0 0 0 0
4 22 13 16 21 16 17 14 14 24 35 40 54 52 57 21 29 12 5 5 28 18 1 1 15 19 8 0 0 0 0 0 0 0 0 0 0 0 0 0 0 0 0 0 0 0 0
9 8 11 16 18 14 7 4 7 9 8 9 9 3 3 1 0 0 66 0 22 3 18 4 0 3 0 1 0 0 0 0 0 0 0 0 0 0 0 0 0 0 0 0 0 0 0
18 4 7 19 21 33 24 8 2 4 3 17 0 0 0 0 0 2 36 6 6 0 0 3 1 4 0 0 0 1 0 0 0 0 0 0 0 0 0 0 0 0 0 0 0 0 0
6 21 0 14 15 24 34 24 0 3 0 0 0 0 0 0 0 0 1 2 1 0 0 2 3 5 2 0 2 0 0 0 0 0 0 0 0 0 0 0 0 0 0 0 0 0 0
5 10 21 0 5 5 13 12 32 4 1 1 5 4 2 0 0 0 0 0 1 0 0 1 6 3 1 4 1 0 0 0 0 0 0 0 0 0 0 0 0 0 0 0 0 0 0
4 4 18 17 16 9 10 24 32 28 21 3 13 4 7 0 0 0 0 2 2 0 0 0 0 0 4 4 1 0 0 0 0 0 0 0 0 0 0 0 0 0 0 0 0 0 0
25 9 0 3 5 12 7 14 21 22 5 1 0 0 0 0 0 3 0 0 0 0 0 0 1 0 4 0 0 0 0 0 0 0 0 0 0 0 0 0 0 0 0 0 0 0 0
24 2 1 0 0 0 1 1 6 20 5 0 0 0 0 1 0 0 0 0 0 0 0 0 1 2 1 1 0 0 0 0 0 0 0 0 0 0 0 0 0 0 0 0 0 0 0
12 2 6 0 0 0 0 1 4 4 8 0 0 0 0 0 0 0 0 0 0 0 0 0 2 1 0 0 0 0 0 0 0 0 0 1 0 0 0 0 0 0 0 0 0 0 0
7 5 3 3 0 0 0 0 0 0 0 0 0 0 0 0 0 0 0 0 0 6 1 0 0 0 0 0 0 0 0 0 0 0 0 0 0 0 0 0 0 1 0 0 0 0 0
7 6 1 3 1 0 0 0 0 0 0 0 0 0 0 0 0 0 0 0 0 0 1 0 1 0 0 0 0 1 1 0 0 0 0 0 0 0 0 0 0 0 0 0 0 0 0
1 5 6 2 0 0 0 0 0 0 0 0 0 0 0 0 0 0 0 0 0 0 0 0 0 0 0 0 0 1 0 0 0 0 0 0 0 0 0 0 0 3 0 0 0 0 0
0 2 5 2 0 0 0 0 0 0 0 0 0 0 0 0 0 0 0 0 0 0 0 0 0 0 0 0 1 0 0 0 0 0 0 0 0 0 0 0 0 1 0 0 0 0 0
0 0 1 3 0 0 0 0 0 0 0 0 0 0 0 0 0 0 0 0 0 0 0 0 0 0 0 0 0 1 0 0 0 0 0 0 0 0 0 0 0 0 0 0 0 0 0
0 0 1 0 0 0 0 0 0 0 0 0 0 0 0 0 0 0 0 0 0 0 0 0 0 0 0 0 0 0 0 0 0 0 0 0 0 0 0 0 0 0 0 0 0 0 0
0 0 0 1 2 0 0 0 0 0 0 0 0 0 0 0 0 0 0 0 0 0 0 0 0 0 0 0 0 0 0 0 0 0 0 0 0 0 0 0 0 0 0 0 0 0 0
0 0 0 0 2 1 0 0 0 0 0 0 0 0 0 0 0 0 0 0 0 0 0 0 0 0 0 0 0 0 0 0 0 0 0 0 0 0 0 0 0 0 0 0 0 0 0
0 0 0 0 0 0 0 0 0 0 0 0 0 0 0 0 0 0 0 0 0 0 0 0 0 0 0 0 0 0 0 0 0 0 0 0 0 0 0 0 0 0 0 0 0 0 0
0 0 0 0 0 0 0 0 0 0 0 0 0 0 0 0 0 0 0 0 0 0 0 0 0 0 0 0 0 0 0 0 0 0 0 0 0 0 0 0 0 0 0 0 0 0 0
0 0 0 0 0 0 0 0 0 0 0 0 0 0 0 0 0 0 0 0 0 0 0 0 0 0 0 0 0 0 0 0 0 0 0 0 0 0 0 0 0 0 0 0 0 0 0
0 0 0 0 0 0 0 0 0 0 0 0 0 0 0 0 0 0 0 0 0 0 0 0 0 0 0 0 0 0 0 0 0 0 0 0 0 0 0 0 0 0 0 0 0 0 0
0 0 0 0 0 0 0 0 0 0 0 0 0 0 0 0 0 0 0 0 0 0 0 0 0 0 0 0 0 0 0 0 0 0 0 0 0 0 0 0 0 0 0 0 0 0 0
0 0 0 0 0 0 0 0 0 0 0 0 0 0 0 0 0 0 0 0 0 0 0 0 0 0 0 0 0 0 0 0 0 0 0 0 0 0 0 0 0 0 0 0 0 0 0
2 0 0 0 0 0 0 0 0 0 0 0 0 0 0 0 0 0 0 0 0 0 0 0 0 0 0 0 0 0 0 0 0 0 0 0 0 0 0 0 0 0 0 0 0 0 0
3 2 0 0 0 0 0 0 0 0 0 0 0 0 0 0 0 0 0 0 0 0 0 0 0 0 0 0 0 0 0 0 0 0 0 0 0 0 0 0 0 0 0 0 0 0 0

GFSGBSN_con_mlcape_111.txt.gz
CAPE
11 13 18 17 20 22 12 10 52 113 114 5 18 52 68 93 71 49 47 31 141 108 28 0 0 78 17 2 0 0 0 5 0 0 0 0 0 0 0 0 0 0 0 0 0 0 0
12 9 13 18 22 14 14 9 33 68 22 33 42 52 54 58 83 107 62 92 84 68 28 0 0 19 24 0 0 3 0 0 0 0 0 0 0 0 0 0 0 0 0 0 0 0 0
13 8 13 8 5 5 17 28 22 65 111 126 120 76 78 110 161 145 73 27 25 30 49 10 0 19 27 0 1 1 0 0 0 0 0 0 0 0 0 0 0 0 0 0 0 0 0
10 7 14 14 25 25 20 13 16 31 53 102 78 60 38 8 73 156 147 46 30 24 41 6 16 5 8 2 0 0 0 0 0 0 0 0 0 0 0 0 0 0 0 0 0 0 0
2 3 12 14 18 19 20 21 6 12 23 55 77 146 75 58 10 0 7 11 17 3 15 7 1 8 6 1 0 0 0 0 0 0 0 0 0 0 0 0 0 0 0 0 0 0 0
3 0 2 8 14 29 26 13 19 29 17 6 3 0 0 0 0 48 0 0 0 0 1 0 0 0 0 1 0 0 0 0 0 0 0 0 0 0 0 0 0 0 0 0 0 0 0
26 1 0 0 0 5 5 46 6 10 19 1 1 5 0 0 0 11 0 0 0 0 0 1 5 2 3 0 0 0 0 0 0 0 0 0 0 0 0 0 0 0 0 0 0 0 0
25 19 4 0 0 0 7 26 24 14 7 1 0 0 0 0 0 0 0 0 2 0 0 1 0 6 8 7 4 0 0 0 0 0 0 0 0 0 0 0 0 0 0 0 0 0 0
20 15 7 3 2 8 22 17 24 22 2 6 0 0 0 0 0 0 0 0 0 0 0 0 2 1 0 1 1 0 0 0 0 0 0 0 0 0 0 0 0 0 0 0 0 0 0
15 6 3 0 0 0 3 9 17 20 11 0 0 0 0 0 0 0 0 0 0 0 0 0 0 0 0 0 0 0 0 0 0 0 0 0 0 0 0 0 0 0 0 0 0 0 0
13 4 5 1 0 2 4 5 0 2 8 0 0 0 0 0 0 0 0 0 0 0 0 0 1 0 0 0 0 0 0 0 0 0 0 0 0 0 0 0 0 0 0 0 0 0 0
17 9 4 3 2 1 6 3 3 0 0 0 0 0 0 0 0 0 0 0 0 0 0 0 1 4 2 0 0 0 0 0 0 0 0 0 0 0 0 0 0 0 0 0 0 0 0
7 10 2 4 4 2 1 5 2 1 0 0 0 0 0 0 0 0 0 0 0 0 0 0 1 0 0 0 0 0 0 0 0 0 0 0 0 0 0 0 0 0 0 0 0 0 0
10 7 3 1 4 3 2 2 1 0 0 0 0 0 0 0 0 0 0 0 0 2 2 1 0 0 0 0 0 0 0 0 0 0 0 0 0 0 0 0 0 1 0 0 0 0 0
1 7 3 3 4 3 2 3 1 0 0 0 0 0 0 0 0 0 0 0 0 0 0 0 0 1 0 0 0 0 0 0 0 0 0 0 0 0 0 0 0 0 0 0 0 0 0
1 3 3 2 1 0 2 2 1 0 0 0 0 0 0 0 0 0 0 0 0 0 0 0 0 0 0 0 0 0 0 0 0 0 0 0 0 0 0 0 0 1 0 0 0 0 0
3 1 3 1 0 0 0 0 0 0 0 0 0 0 0 0 0 0 0 0 0 0 0 0 0 0 0 0 0 0 0 0 0 0 0 0 0 0 0 0 0 0 0 0 0 0 0
3 0 1 0 0 0 0 0 0 0 0 0 0 0 0 0 0 0 0 0 0 0 0 0 0 0 0 0 0 0 0 0 0 0 0 0 0 0 0 0 0 0 0 0 0 0 0
4 0 0 0 0 0 0 0 0 0 0 0 0 0 0 0 0 0 0 0 0 0 0 0 0 0 0 0 0 0 0 0 0 0 0 0 0 0 0 0 0 0 0 0 0 0 0
0 1 0 0 0 0 0 0 0 0 0 0 0 0 0 0 0 0 0 0 0 0 0 0 0 0 0 0 0 0 0 0 0 0 0 0 0 0 0 0 0 0 0 0 0 0 0
0 0 0 0 0 0 0 0 0 0 0 0 0 0 0 0 0 0 0 0 0 0 0 0 0 0 0 0 0 0 0 0 0 0 0 0 0 0 0 0 0 0 0 0 0 0 0
0 0 0 0 0 0 0 0 0 0 0 0 0 0 0 0 0 0 0 0 0 0 0 0 0 0 0 0 0 0 0 0 0 0 0 0 0 0 0 0 0 0 0 0 0 0 0
0 0 0 0 0 0 0 0 0 0 0 0 0 0 0 0 0 0 0 0 0 0 0 0 0 0 0 0 0 0 0 0 0 0 0 0 0 0 0 0 0 0 0 0 0 0 0
0 0 0 0 0 0 0 0 0 0 0 0 0 0 0 0 0 0 0 0 0 0 0 0 0 0 0 0 0 0 0 0 0 0 0 0 0 0 0 0 0 0 0 0 0 0 0
0 0 0 0 0 0 0 0 0 0 0 0 0 0 0 0 0 0 0 0 0 0 0 0 0 0 0 0 0 0 0 0 0 0 0 0 0 0 0 0 0 0 0 0 0 0 0
0 0 0 0 0 0 0 0 0 0 0 0 0 0 0 0 0 0 0 0 0 0 0 0 0 0 0 0 0 0 0 0 0 0 0 0 0 0 0 0 0 0 0 0 0 0 0
1 0 0 0 0 0 0 0 0 0 0 0 0 0 0 0 0 0 0 0 0 0 0 0 0 0 0 0 0 0 0 0 0 0 0 0 0 0 0 0 0 0 0 0 0 0 0
2 3 0 0 0 0 0 0 0 0 0 0 0 0 0 0 0 0 0 0 0 0 0 0 0 0 0 0 0 0 0 0 0 0 0 0 0 0 0 0 0 0 0 0 0 0 0
0 3 4 0 0 0 0 0 0 0 0 0 0 0 0 0 0 0 0 0 0 0 0 0 0 0 0 0 0 0 0 0 0 0 0 0 0 0 0 0 0 0 0 0 0 0 0

GFSGBSN_con_mlcape_114.txt.gz
CAPE
6 7 7 15 11 14 18 34 42 39 46 40 56 95 99 46 14 24 32 18 16 119 36 0 14 66 30 10 0 0 1 0 0 0 0 0 0 0 0 0 0 0 0 0 0 0 0
10 10 10 7 11 13 11 30 58 86 142 141 87 65 38 29 56 65 103 39 25 60 21 0 0 52 26 0 0 0 0 0 0 0 0 0 0 0 0 0 0 0 0 0 0 0 0
9 8 17 7 5 11 6 14 33 80 151 199 127 89 86 78 125 147 140 124 60 79 43 0 0 13 31 1 0 2 0 0 0 0 0 0 0 0 0 0 0 0 0 0 0 0 0
8 1 1 4 16 20 11 13 5 26 34 43 109 48 33 102 181 93 117 12 3 0 9 48 5 0 33 2 1 0 0 0 0 0 0 0 0 0 0 0 0 0 0 0 0 0 0
1 1 0 0 1 9 37 18 20 2 2 43 98 79 31 18 41 42 98 70 30 11 23 0 0 0 3 1 0 0 0 0 0 0 0 0 0 0 0 0 0 0 0 0 0 0 0
36 2 0 0 0 0 20 18 9 12 0 5 0 0 0 30 0 0 2 0 0 0 0 0 0 1 0 2 0 0 0 0 0 0 0 0 0 0 0 0 0 0 0 0 0 0 0
47 16 16 10 10 11 33 42 4 6 2 0 1 0 2 2 13 6 0 0 0 0 0 5 2 2 0 1 0 0 0 0 0 0 0 0 0 0 0 0 0 0 0 0 0 0 0
22 6 8 12 11 13 13 36 34 6 1 0 0 0 0 0 0 0 0 0 1 0 0 0 3 3 7 0 0 0 0 0 0 0 0 0 0 0 0 0 0 0 0 0 0 0 0
6 5 6 8 4 10 11 9 29 20 0 0 0 0 0 0 0 0 0 0 0 0 0 0 2 0 1 0 0 0 0 0 0 0 0 0 0 0 0 0 0 0 0 0 0 0 0
5 2 2 4 3 3 4 10 13 4 0 0 0 0 0 0 0 0 0 0 0 0 0 0 0 0 8 5 0 0 0 0 0 0 0 0 0 0 0 0 0 0 0 0 0 0 0
8 5 1 2 7 3 5 1 6 0 0 0 0 0 0 0 0 0 0 0 0 0 0 0 1 1 8 0 0 0 0 0 0 0 0 0 0 0 0 0 0 0 0 0 0 0 0
10 4 5 1 1 5 2 1 4 0 0 0 0 0 0 0 0 0 0 0 0 0 0 0 3 1 0 0 0 0 0 0 0 0 0 0 0 0 0 0 0 0 0 0 0 0 0
6 5 3 3 1 3 3 1 1 0 0 0 0 0 0 0 0 0 0 0 0 0 0 0 1 0 0 0 0 0 0 0 0 0 0 0 0 0 0 0 0 0 0 0 0 0 0
1 5 1 2 3 0 3 0 2 0 0 0 0 0 0 0 0 0 0 0 0 1 1 1 1 0 0 0 0 0 0 0 0 0 0 0 0 0 0 0 0 0 0 0 0 0 0
4 1 1 1 0 2 0 3 0 0 0 0 0 0 0 0 0 0 0 0 0 0 0 0 0 0 0 0 0 0 0 0 0 0 0 0 0 0 0 1 0 0 0 0 0 0 0
2 2 2 0 0 0 2 3 1 0 0 0 0 0 0 0 0 0 0 0 0 0 0 0 0 0 0 0 0 0 0 0 0 0 0 0 0 0 0 0 0 0 0 0 0 0 0
2 2 2 0 0 0 0 1 1 0 0 0 0 0 0 0 0 0 0 0 0 0 0 0 0 0 0 0 0 0 0 0 0 0 0 0 0 0 0 0 0 0 0 0 0 0 0
0 1 1 1 0 0 0 0 0 0 0 0 0 0 0 0 0 0 0 0 0 0 0 0 0 0 0 0 0 0 0 0 0 0 0 0 0 0 0 0 0 0 0 0 0 0 0
0 0 0 0 0 0 0 0 0 0 0 0 0 0 0 0 0 0 0 0 0 0 0 0 0 0 0 0 0 0 0 0 0 0 0 0 0 0 0 0 0 0 0 0 0 0 0
0 0 0 0 0 0 0 0 0 0 0 0 0 0 0 0 0 0 0 0 0 0 0 0 0 0 0 0 0 0 0 0 0 0 0 0 0 0 0 0 0 0 0 0 0 0 0
0 0 0 0 0 0 0 0 0 0 0 0 0 0 0 0 0 0 0 0 0 0 0 0 0 0 0 0 0 0 0 0 0 0 0 0 0 0 0 0 0 0 0 0 0 0 0
0 0 0 0 0 0 0 0 0 0 0 0 0 0 0 0 0 0 0 0 0 0 0 0 0 0 0 0 0 0 0 0 0 0 0 0 0 0 0 0 0 0 0 0 0 0 0
0 0 0 0 0 0 0 0 0 0 0 0 0 0 0 0 0 0 0 0 0 0 0 0 0 0 0 0 0 0 0 0 0 0 0 0 0 0 0 0 0 0 0 0 0 0 0
0 0 0 0 0 0 0 0 0 0 0 0 0 0 0 0 0 0 0 0 0 0 0 0 0 0 0 0 0 0 0 0 0 0 0 0 0 0 0 0 0 0 0 0 0 0 0
0 0 0 0 0 0 0 0 0 0 0 0 0 0 0 0 0 0 0 0 0 0 0 0 0 0 0 0 0 0 0 0 0 0 0 0 0 0 0 0 0 0 0 0 0 0 0
0 0 0 0 0 0 0 0 0 0 0 0 0 0 0 0 0 0 0 0 0 0 0 0 0 0 0 0 0 0 0 0 0 0 0 0 0 0 0 0 0 0 0 0 0 0 0
3 1 0 0 0 0 0 0 0 0 0 0 0 0 0 0 0 0 0 0 0 0 0 0 0 0 0 0 0 0 0 0 0 0 0 0 0 0 0 0 0 0 0 0 0 0 0
1 1 0 0 0 0 0 0 0 0 0 0 0 0 0 0 0 0 0 0 0 0 0 0 0 0 0 0 0 0 0 0 0 0 0 0 0 0 0 0 0 0 0 0 0 0 0
0 0 0 0 0 0 0 0 0 0 0 0 0 0 0 0 0 0 0 0 0 0 0 0 0 0 0 0 0 0 0 0 0 0 0 0 0 0 0 0 0 0 0 0 0 0 0

GFSGBSN_con_mlcape_117.txt.gz
CAPE
5 7 13 11 8 12 9 40 85 156 177 180 164 116 65 65 82 60 43 19 14 70 38 2 19 38 51 2 1 0 1 0 0 0 0 0 0 0 0 0 0 0 0 0 0 0 0
3 2 11 20 27 14 18 18 61 180 193 223 151 67 62 106 130 52 5 69 67 94 37 0 0 28 7 1 1 1 0 0 0 0 0 0 0 0 0 0 0 0 0 0 0 0 0
0 1 5 16 17 25 39 21 1 65 71 107 56 23 49 119 122 141 110 70 47 96 20 24 5 4 5 0 2 2 0 0 0 0 0 0 0 0 0 0 0 0 0 0 0 0 0
0 0 2 7 10 19 17 27 2 1 28 69 69 70 121 98 127 156 66 16 38 22 37 12 11 0 3 1 0 0 0 0 0 0 0 0 0 0 0 0 0 0 0 0 0 0 0
26 12 13 17 18 26 52 17 7 0 0 0 3 7 2 24 60 148 99 42 31 2 0 0 0 2 3 1 0 0 0 0 0 0 0 0 0 0 0 0 0 0 0 0 0 0 0
4 9 12 15 19 15 40 4 8 0 1 1 0 0 2 7 15 53 20 0 0 0 0 0 0 0 0 2 0 0 0 0 0 0 0 0 0 0 0 0 0 0 0 0 0 0 0
0 4 3 14 24 22 16 25 2 0 0 0 0 0 9 1 13 1 0 0 0 0 0 4 6 2 1 0 0 0 0 0 0 0 0 0 0 0 0 0 0 0 0 0 0 0 0
4 8 3 11 27 26 22 24 20 0 0 0 0 6 4 6 1 0 0 0 1 0 1 1 0 0 1 0 0 0 0 0 0 0 0 0 0 0 0 0 0 0 0 0 0 0 0
2 4 2 3 15 22 21 8 24 1 0 0 0 0 0 0 0 0 0 0 0 0 0 0 3 1 3 1 2 3 0 0 0 0 0 0 0 0 0 0 0 0 0 0 0 0 0
3 4 6 2 6 17 11 8 10 1 0 0 0 0 0 0 0 0 0 0 0 0 0 0 1 1 0 2 0 0 0 0 0 0 0 0 0 0 0 0 0 0 0 0 0 0 0
11 1 3 3 2 12 8 9 3 0 0 0 0 0 0 0 0 0 0 0 0 0 0 0 1 8 2 0 0 0 0 0 0 0 0 0 0 0 0 0 0 0 0 0 0 0 0
1 1 5 2 1 5 7 4 3 0 0 0 0 0 0 0 0 0 0 0 0 0 0 0 3 2 2 0 0 0 0 0 0 0 0 0 0 0 0 0 0 0 0 0 0 0 0
0 2 2 1 3 2 4 1 0 0 0 0 0 0 0 0 0 0 0 0 0 0 0 0 0 1 0 0 0 0 0 0 0 0 0 0 0 0 0 0 0 0 0 0 0 0 0
3 1 2 3 4 2 1 2 2 0 0 0 0 0 0 0 0 0 0 0 0 0 1 1 0 0 0 0 0 0 0 0 0 0 0 0 0 0 0 0 0 0 0 0 0 0 0
3 0 1 4 2 3 1 1 0 0 0 0 0 0 0 0 0 0 0 0 0 0 0 0 0 0 0 0 0 0 0 0 0 0 0 0 0 0 0 0 0 0 0 0 0 0 0
1 1 0 1 3 1 2 0 0 0 0 0 0 0 0 0 0 0 0 0 0 0 0 0 0 0 0 0 0 0 0 0 0 0 0 0 0 0 0 0 0 0 0 0 0 0 0
1 0 0 0 2 2 0 1 0 0 0 0 0 0 0 0 0 0 0 0 0 0 0 0 0 0 0 0 0 0 0 0 0 0 0 0 0 0 0 0 0 0 0 0 0 0 0
0 1 0 0 0 0 0 0 1 0 0 0 0 0 0 0 0 0 0 0 0 0 0 0 0 0 0 0 0 0 0 0 0 0 0 0 0 0 0 0 0 0 0 0 0 0 0
0 0 0 0 0 0 0 0 2 1 0 0 0 0 0 0 0 0 0 0 0 0 0 0 0 0 0 0 0 0 0 0 0 0 0 0 0 0 0 0 0 0 0 0 0 0 0
0 0 0 0 0 0 0 0 0 0 0 0 0 0 0 0 0 0 0 0 0 0 0 0 0 0 0 0 0 0 0 0 0 0 0 0 0 0 0 0 0 0 0 0 0 0 0
0 0 0 0 0 0 0 0 0 0 0 0 0 0 0 0 0 0 0 0 0 0 0 0 0 0 0 0 0 0 0 0 0 0 0 0 0 0 0 0 0 0 0 0 0 0 0
0 0 0 0 0 0 0 0 0 0 0 0 0 0 0 0 0 0 0 0 0 0 0 0 0 0 0 0 0 0 0 0 0 0 0 0 0 0 0 0 0 0 0 0 0 0 0
0 0 0 0 0 0 0 0 0 0 0 0 0 0 0 0 0 0 0 0 0 0 0 0 0 0 0 0 0 0 0 0 0 0 0 0 0 0 0 0 0 0 0 0 0 0 0
0 0 0 0 0 0 0 0 0 0 0 0 0 0 0 0 0 0 0 0 0 0 0 0 0 0 0 0 0 0 0 0 0 0 0 0 0 0 0 0 0 0 0 0 0 0 0
0 0 0 0 0 0 0 0 0 0 0 0 0 0 0 0 0 0 0 0 0 0 0 0 0 0 0 0 0 0 0 0 0 0 0 0 0 0 0 0 0 0 0 0 0 0 0
2 1 0 0 0 0 0 0 0 0 0 0 0 0 0 0 0 0 0 0 0 0 0 0 0 0 0 0 0 0 0 0 0 0 0 0 0 0 0 0 0 0 0 0 0 0 0
0 3 0 0 0 0 0 0 0 0 0 0 0 0 0 0 0 0 0 0 0 0 0 0 0 0 0 0 0 0 0 0 0 0 0 0 0 0 0 0 0 0 0 0 0 0 0
0 0 0 0 0 0 0 0 0 0 0 0 0 0 0 0 0 0 0 0 0 0 0 0 0 0 0 0 0 0 0 0 0 0 0 0 0 0 0 0 0 0 0 0 0 0 0
0 0 0 0 0 0 0 0 0 0 0 0 0 0 0 0 0 0 0 0 0 0 0 0 0 0 0 0 0 0 0 0 0 0 0 0 0 0 0 0 0 0 0 0 0 0 0